[[{"header":{"parameterUnit":"m.s-1","parameterCategory":1,"la1":31.0,"la2":29.5877,"lo1":-88.7671,"lo2":-86.6584,"dy":0.0162,"dx":0.0185,"nx":115,"ny":88,"refTime":"2023-03-04T06:00:00:Z","depth":0,"parameterNumber":2,"parameterNumberName":"U-component_of_WINDS"},"data":[0.0,0.0,0.0,0.0,0.0,0.0,0.0,0.0,0.0,0.0,0.0,0.0,0.0,0.0,0.0,0.0,0.0,0.0,0.0,0.0,0.0,0.0,0.0,0.0,0.0,0.0,0.0,0.0,0.0,0.0,0.0,0.0,0.0,0.0,0.0,0.0,0.0,0.0,0.0,0.0,0.0,0.0,0.0,0.0,0.0,0.0,0.0,0.0,0.0,0.0,0.0,0.0,0.0,0.0,0.0,0.0,0.0,0.0,0.0,0.0,0.0,0.0,0.0,0.0,0.0,0.0,0.0,0.0,0.0,0.0,0.0,0.0,0.0,0.0,0.0,0.0,0.0,0.0,0.0,0.0,0.0,0.0,0.0,0.0,0.0,0.0,0.0,0.0,0.0,0.0,0.0,0.0,0.0,0.0,0.0,0.0,0.0,0.0,0.0,0.0,0.0,0.0,0.0,0.0,0.0,0.0,0.0,0.0,0.0,0.0,0.0,0.0,0.0,0.0,0.0,0.0,0.0,0.0,0.0,0.0,0.0,0.0,0.0,0.0,0.0,0.0,0.0,0.0,0.0,0.0,0.0,0.0,0.0,0.0,0.0,0.0,0.0,0.0,0.0,0.0,0.0,0.0,0.0,0.0,0.0,0.0,0.0,0.0,0.0,0.0,0.0,0.0,0.0,0.0,0.0,0.0,0.0,0.0,0.0,0.0,0.0,0.0,0.0,0.0,0.0,0.0,0.0,0.0,0.0,0.0,0.0,0.0,0.0,0.0,0.0,0.0,0.0,0.0,0.0,0.0,0.0,0.0,0.0,0.0,0.0,0.0,0.0,0.0,0.0,0.0,0.0,0.0,0.0,0.0,0.0,0.0,0.0,0.0,0.0,0.0,0.0,0.0,0.0,0.0,0.0,0.0,0.0,0.0,0.0,0.0,0.0,0.0,0.0,0.0,0.0,0.0,0.0,0.0,0.0,0.0,0.0,0.0,0.0,0.0,0.0,0.0,0.0,0.0,0.0,0.0,0.0,0.0,0.0,0.0,0.0,0.0,0.0,0.0,0.0,0.0,0.0,0.0,0.0,0.0,0.0,0.0,0.0,0.0,0.0,0.0,0.0,0.0,0.0,0.0,0.0,0.0,0.0,0.0,0.0,0.0,0.0,0.0,0.0,0.0,0.0,0.0,0.0,0.0,0.0,0.0,0.0,0.0,0.0,0.0,0.0,0.0,0.0,0.0,0.0,0.0,0.0,0.0,0.0,0.0,0.0,0.0,0.0,0.0,0.0,0.0,0.0,0.0,0.0,0.0,0.0,0.0,0.0,0.0,0.0,0.0,0.0,0.0,0.0,0.0,0.0,0.0,0.0,0.0,0.0,0.0,0.0,0.0,0.0,0.0,0.0,0.0,0.0,0.0,0.0,0.0,0.0,0.0,0.0,0.0,0.0,0.0,0.0,0.0,0.0,0.0,0.0,0.0,0.0,0.0,0.0,0.0,0.0,0.0,0.0,0.0,0.0,0.0,0.0,0.0,0.0,0.0,0.0,0.0,0.0,0.0,0.0,0.0,0.0,0.0,0.0,0.0,0.0,0.0,0.0,0.0,0.0,0.0,0.0,0.0,0.0,0.0,0.0,0.0,0.0,0.0,0.0,0.0,0.0,0.0,0.0,0.0,0.0,0.0,0.0,0.0,0.0,0.0,0.0,0.0,0.0,0.0,0.0,0.0,0.0,0.0,0.0,0.0,0.0,0.0,0.0,0.0,0.0,0.0,0.0,0.0,0.0,0.0,0.0,0.0,0.0,0.0,0.0,0.0,0.0,0.0,0.0,0.0,0.0,0.0,0.0,0.0,0.0,0.0,0.0,0.0,0.0,0.0,0.0,0.0,0.0,0.0,0.0,0.0,0.0,0.0,0.0,0.0,0.0,0.0,0.0,0.0,0.0,0.0,0.0,0.0,0.0,0.0,0.0,0.0,0.0,0.0,0.0,0.0,0.0,0.0,0.0,0.0,0.0,0.0,0.0,0.0,0.0,0.0,0.0,0.0,0.0,0.0,0.0,0.0,0.0,0.0,0.0,0.0,0.0,0.0,0.0,0.0,0.0,0.0,0.0,0.0,0.0,0.0,0.0,0.0,0.0,0.0,0.0,0.0,0.0,0.0,0.0,0.0,0.0,0.0,0.0,0.0,0.0,0.0,0.0,0.0,0.0,0.0,0.0,0.0,0.0,0.0,0.0,0.0,0.0,0.0,0.0,0.0,0.0,0.0,0.0,0.0,0.0,0.0,0.0,0.0,0.0,0.0,0.0,0.0,0.0,0.0,0.0,0.0,0.0,0.0,0.0,0.0,0.0,0.0,0.0,0.0,0.0,0.0,0.0,0.0,0.0,0.0,0.0,0.0,0.0,0.0,0.0,0.0,0.0,0.0,0.0,0.0,0.0,0.0,0.0,0.0,0.0,0.0,0.0,0.0,0.0,0.0,0.0,0.0,0.0,0.0,0.0,0.0,0.0,0.0,0.0,0.0,0.0,0.0,0.0,0.0,0.0,0.0,0.0,0.0,0.0,0.0,0.0,0.0,0.0,0.0,0.0,0.0,0.0,0.0,0.0,0.0,0.0,0.0,0.0,0.0,0.0,0.0,0.0,0.0,0.0,0.0,0.0,0.0,0.0,0.0,0.0,0.0,0.0,0.0,0.0,0.0,0.0,0.0,0.0,0.0,0.0,0.0,0.0,0.0,0.0,0.0,0.0,0.0,0.0,0.0,0.0,0.0,0.0,0.0,0.0,0.0,0.0,0.0,0.0,0.0,0.0,0.0,0.0,0.0,0.0,0.0,0.0,0.0,0.0,0.0,0.0,0.0,0.0,0.0,0.0,0.0,0.0,0.0,0.0,0.0,0.0,0.0,0.0,0.0,0.0,0.0,0.0,0.0,0.0,0.0,0.0,0.0,0.0,0.0,0.0,0.0,0.0,0.0,0.0,0.0,0.0,0.0,0.0,0.0,0.0,0.0,0.0,0.0,0.0,0.0,0.0,0.0,0.0,0.0,0.0,0.0,0.0,0.0,0.0,0.0,0.0,0.0,0.0,0.0,0.0,0.0,0.0,0.0,0.0,0.0,0.0,0.0,0.0,0.0,0.0,0.0,0.0,0.0,0.0,0.0,0.0,0.0,0.0,0.0,0.0,0.0,0.0,0.0,0.0,0.0,0.0,0.0,0.0,0.0,0.0,0.0,0.0,0.0,0.0,0.0,0.0,0.0,0.0,0.0,0.0,0.0,0.0,0.0,0.0,0.0,0.0,0.0,0.0,0.0,0.0,0.0,0.0,0.0,0.0,0.0,0.0,0.0,0.0,0.0,0.0,0.0,0.0,0.0,0.0,0.0,0.0,0.0,0.0,0.0,0.0,0.0,0.0,0.0,0.0,0.0,0.0,0.0,0.0,0.0,0.0,0.0,0.0,0.0,0.0,0.0,0.0,0.0,0.0,0.0,0.0,0.0,0.0,0.0,0.0,0.0,0.0,0.0,0.0,0.0,0.0,0.0,0.0,0.0,0.0,0.0,0.0,0.0,0.0,0.0,0.0,0.0,0.0,0.0,0.0,0.0,0.0,0.0,0.0,0.0,0.0,0.0,0.0,0.0,0.0,0.0,0.0,0.0,0.0,0.0,0.0,0.0,0.0,0.0,0.0,0.0,0.0,0.0,0.0,0.0,0.0,0.0,0.0,0.0,0.0,0.0,0.0,0.0,0.0,0.0,0.0,0.0,0.0,0.0,0.0,0.0,0.0,0.0,0.0,0.0,0.0,0.0,0.0,0.0,0.0,0.0,0.0,0.0,0.0,0.0,0.0,0.0,0.0,0.0,0.0,0.0,0.0,0.0,0.0,0.0,0.0,0.0,0.0,0.0,0.0,0.0,0.0,0.0,0.0,0.0,0.0,0.0,0.0,0.0,0.0,0.0,0.0,0.0,0.0,0.0,0.0,0.0,0.0,0.0,0.0,0.0,0.0,0.0,0.0,0.0,0.0,0.0,0.0,0.0,0.0,0.0,0.0,0.0,0.0,0.0,0.0,0.0,0.0,0.0,0.0,0.0,0.0,0.0,0.0,0.0,0.0,0.0,0.0,0.0,0.0,0.0,0.0,0.0,0.0,0.0,0.0,0.0,0.0,0.0,0.0,0.0,0.0,0.0,0.0,0.0,0.0,0.0,0.0,0.0,0.0,0.0,0.0,0.0,0.0,0.0,0.0,0.0,0.0,0.0,0.0,0.0,0.0,0.0,0.0,0.0,-4.1112,0.0,0.0,0.0,0.0,0.0,0.0,0.0,0.0,0.0,0.0,0.0,0.0,0.0,0.0,0.0,0.0,0.0,0.0,0.0,0.0,0.0,0.0,0.0,0.0,0.0,0.0,0.0,0.0,0.0,0.0,0.0,0.0,0.0,0.0,0.0,0.0,0.0,0.0,0.0,0.0,0.0,0.0,0.0,0.0,0.0,0.0,0.0,0.0,0.0,0.0,0.0,0.0,0.0,0.0,0.0,0.0,0.0,0.0,0.0,0.0,0.0,0.0,0.0,0.0,0.0,0.0,0.0,0.0,0.0,0.0,0.0,0.0,0.0,0.0,0.0,0.0,0.0,0.0,0.0,0.0,0.0,0.0,0.0,0.0,0.0,0.0,0.0,0.0,0.0,0.0,0.0,0.0,0.0,0.0,0.0,0.0,0.0,0.0,0.0,0.0,0.0,0.0,0.0,0.0,0.0,0.0,0.0,0.0,0.0,0.0,-4.1587,-4.1119,-4.1558,-4.158,-4.1131,0.0,0.0,0.0,0.0,0.0,0.0,0.0,0.0,0.0,0.0,0.0,0.0,0.0,0.0,0.0,0.0,0.0,0.0,0.0,0.0,0.0,0.0,0.0,0.0,0.0,0.0,0.0,0.0,0.0,0.0,0.0,0.0,0.0,0.0,0.0,0.0,0.0,0.0,0.0,0.0,0.0,0.0,0.0,0.0,0.0,0.0,0.0,0.0,0.0,0.0,0.0,0.0,0.0,0.0,0.0,0.0,0.0,0.0,0.0,0.0,0.0,0.0,0.0,0.0,0.0,0.0,0.0,0.0,0.0,0.0,0.0,0.0,0.0,0.0,0.0,0.0,0.0,0.0,0.0,0.0,0.0,0.0,0.0,0.0,0.0,0.0,0.0,0.0,0.0,0.0,0.0,0.0,0.0,0.0,0.0,0.0,0.0,0.0,0.0,0.0,0.0,0.0,0.0,0.0,0.0,0.0,0.0,0.0,0.0,0.0,0.0,0.0,-4.2043,-4.2068,-4.1424,0.0,0.0,0.0,0.0,0.0,0.0,0.0,0.0,0.0,0.0,0.0,0.0,0.0,0.0,0.0,0.0,0.0,0.0,0.0,0.0,0.0,0.0,0.0,0.0,0.0,0.0,0.0,0.0,0.0,0.0,0.0,0.0,0.0,0.0,0.0,0.0,0.0,0.0,0.0,0.0,0.0,0.0,0.0,0.0,0.0,0.0,0.0,0.0,0.0,0.0,0.0,0.0,0.0,0.0,0.0,0.0,0.0,0.0,0.0,0.0,0.0,0.0,0.0,0.0,0.0,0.0,0.0,0.0,0.0,0.0,0.0,0.0,0.0,0.0,0.0,0.0,0.0,0.0,0.0,0.0,0.0,0.0,0.0,0.0,0.0,0.0,0.0,0.0,0.0,0.0,0.0,0.0,0.0,0.0,0.0,0.0,0.0,0.0,0.0,0.0,0.0,0.0,0.0,0.0,0.0,0.0,0.0,0.0,0.0,0.0,-4.1551,-4.2264,-4.2343,0.0,-4.2266,0.0,0.0,0.0,0.0,0.0,0.0,0.0,0.0,0.0,0.0,0.0,0.0,0.0,0.0,0.0,0.0,0.0,0.0,0.0,0.0,0.0,0.0,0.0,0.0,0.0,0.0,0.0,0.0,0.0,0.0,0.0,0.0,0.0,0.0,0.0,0.0,0.0,0.0,0.0,0.0,0.0,0.0,0.0,0.0,0.0,0.0,0.0,0.0,0.0,0.0,0.0,0.0,0.0,0.0,0.0,0.0,0.0,0.0,0.0,0.0,0.0,0.0,0.0,0.0,0.0,0.0,0.0,0.0,0.0,0.0,0.0,0.0,0.0,0.0,0.0,0.0,0.0,0.0,0.0,0.0,0.0,0.0,0.0,0.0,0.0,0.0,0.0,0.0,0.0,0.0,0.0,0.0,0.0,0.0,0.0,0.0,0.0,0.0,0.0,0.0,0.0,0.0,0.0,0.0,0.0,0.0,0.0,0.0,0.0,0.0,-4.151,-4.2381,-4.2384,-4.2143,0.0,0.0,0.0,0.0,0.0,0.0,0.0,0.0,0.0,0.0,0.0,0.0,0.0,0.0,0.0,0.0,0.0,0.0,0.0,0.0,0.0,0.0,0.0,0.0,0.0,0.0,0.0,0.0,0.0,0.0,0.0,0.0,0.0,0.0,0.0,0.0,0.0,0.0,0.0,0.0,0.0,0.0,0.0,0.0,0.0,0.0,0.0,0.0,0.0,0.0,0.0,0.0,0.0,0.0,0.0,0.0,0.0,0.0,0.0,0.0,0.0,0.0,0.0,0.0,0.0,0.0,0.0,0.0,0.0,0.0,0.0,0.0,0.0,0.0,0.0,0.0,0.0,0.0,0.0,0.0,0.0,0.0,0.0,0.0,0.0,0.0,0.0,0.0,0.0,0.0,0.0,0.0,0.0,0.0,0.0,0.0,0.0,0.0,0.0,0.0,0.0,0.0,0.0,0.0,0.0,0.0,0.0,0.0,0.0,0.0,-4.1551,-4.1854,-4.2676,-4.2286,-4.1848,-4.1463,0.0,0.0,0.0,0.0,0.0,0.0,0.0,0.0,0.0,0.0,0.0,0.0,0.0,0.0,0.0,0.0,0.0,0.0,0.0,0.0,0.0,0.0,0.0,0.0,0.0,0.0,0.0,0.0,0.0,0.0,0.0,0.0,0.0,0.0,0.0,0.0,0.0,0.0,0.0,0.0,0.0,0.0,0.0,0.0,0.0,0.0,0.0,0.0,0.0,0.0,0.0,0.0,0.0,0.0,0.0,0.0,0.0,0.0,0.0,0.0,0.0,0.0,0.0,0.0,0.0,0.0,0.0,0.0,0.0,0.0,0.0,0.0,0.0,0.0,0.0,0.0,0.0,0.0,0.0,0.0,0.0,0.0,0.0,0.0,0.0,0.0,0.0,0.0,0.0,0.0,0.0,0.0,0.0,0.0,0.0,0.0,0.0,0.0,0.0,0.0,0.0,0.0,0.0,0.0,0.0,0.0,0.0,0.0,-4.3376,-4.264,-4.2694,-4.355,-4.2022,-4.1529,0.0,0.0,0.0,0.0,0.0,0.0,0.0,0.0,0.0,0.0,0.0,0.0,0.0,0.0,0.0,0.0,0.0,0.0,0.0,0.0,0.0,0.0,0.0,0.0,0.0,0.0,0.0,0.0,0.0,0.0,0.0,0.0,0.0,0.0,0.0,0.0,0.0,0.0,0.0,0.0,0.0,0.0,0.0,0.0,0.0,0.0,0.0,0.0,0.0,0.0,0.0,0.0,0.0,0.0,0.0,0.0,0.0,0.0,0.0,0.0,0.0,0.0,0.0,0.0,0.0,0.0,0.0,0.0,0.0,0.0,0.0,0.0,0.0,0.0,0.0,0.0,0.0,0.0,0.0,0.0,0.0,0.0,0.0,0.0,0.0,0.0,0.0,0.0,0.0,0.0,0.0,0.0,0.0,0.0,0.0,0.0,0.0,0.0,0.0,0.0,0.0,0.0,0.0,0.0,0.0,0.0,0.0,0.0,0.0,-4.2016,-4.2234,-4.2752,-4.3546,-4.254,-4.207,0.0,0.0,0.0,0.0,0.0,0.0,0.0,0.0,0.0,0.0,0.0,0.0,0.0,0.0,0.0,0.0,0.0,0.0,0.0,0.0,0.0,0.0,0.0,0.0,0.0,0.0,0.0,0.0,0.0,0.0,0.0,0.0,0.0,0.0,0.0,0.0,0.0,0.0,0.0,0.0,0.0,0.0,0.0,0.0,0.0,0.0,0.0,0.0,0.0,0.0,0.0,0.0,0.0,0.0,0.0,0.0,0.0,0.0,0.0,0.0,0.0,0.0,0.0,0.0,0.0,0.0,0.0,0.0,0.0,0.0,0.0,0.0,0.0,0.0,0.0,0.0,0.0,0.0,0.0,0.0,0.0,0.0,0.0,0.0,0.0,0.0,0.0,0.0,0.0,0.0,0.0,0.0,0.0,0.0,0.0,0.0,0.0,0.0,0.0,0.0,0.0,0.0,0.0,0.0,0.0,0.0,0.0,0.0,0.0,-4.1951,0.0,-4.3341,-4.3562,-4.2819,-4.2256,0.0,0.0,0.0,0.0,0.0,0.0,0.0,0.0,0.0,0.0,0.0,0.0,0.0,0.0,0.0,0.0,0.0,0.0,0.0,0.0,0.0,0.0,0.0,0.0,0.0,0.0,0.0,0.0,0.0,0.0,0.0,0.0,0.0,0.0,0.0,0.0,0.0,0.0,0.0,0.0,0.0,0.0,0.0,0.0,0.0,0.0,0.0,0.0,0.0,0.0,0.0,0.0,0.0,0.0,0.0,0.0,0.0,0.0,0.0,0.0,0.0,0.0,0.0,0.0,0.0,0.0,0.0,0.0,0.0,0.0,0.0,0.0,0.0,0.0,0.0,0.0,0.0,0.0,0.0,0.0,0.0,0.0,0.0,0.0,0.0,0.0,0.0,0.0,0.0,0.0,0.0,0.0,0.0,0.0,0.0,0.0,0.0,0.0,0.0,0.0,0.0,0.0,0.0,0.0,0.0,0.0,0.0,0.0,-4.3552,-4.3568,-4.4367,-4.4405,-4.3659,-4.2855,-4.203,0.0,0.0,0.0,0.0,0.0,0.0,0.0,0.0,0.0,0.0,0.0,0.0,0.0,0.0,0.0,0.0,0.0,0.0,0.0,0.0,0.0,0.0,0.0,0.0,0.0,0.0,0.0,0.0,0.0,0.0,0.0,0.0,0.0,0.0,0.0,0.0,0.0,0.0,0.0,0.0,0.0,0.0,0.0,0.0,0.0,0.0,0.0,0.0,0.0,0.0,0.0,0.0,0.0,0.0,0.0,0.0,0.0,0.0,0.0,0.0,0.0,0.0,0.0,0.0,0.0,0.0,0.0,0.0,0.0,0.0,0.0,0.0,0.0,0.0,0.0,0.0,0.0,0.0,0.0,0.0,0.0,0.0,0.0,0.0,0.0,0.0,0.0,0.0,0.0,0.0,0.0,0.0,0.0,0.0,0.0,0.0,0.0,0.0,0.0,0.0,0.0,0.0,0.0,0.0,0.0,0.0,0.0,0.0,0.0,-4.2747,-4.3565,-4.4452,-4.5281,-4.3445,-4.2837,0.0,0.0,0.0,0.0,0.0,0.0,0.0,0.0,0.0,0.0,0.0,0.0,0.0,0.0,0.0,0.0,0.0,0.0,0.0,0.0,0.0,0.0,0.0,0.0,0.0,0.0,0.0,0.0,0.0,0.0,0.0,0.0,0.0,0.0,0.0,0.0,0.0,0.0,0.0,0.0,0.0,0.0,0.0,0.0,0.0,0.0,0.0,0.0,0.0,0.0,0.0,0.0,0.0,0.0,0.0,0.0,0.0,0.0,0.0,0.0,0.0,0.0,0.0,0.0,0.0,0.0,0.0,0.0,0.0,0.0,0.0,0.0,0.0,0.0,0.0,0.0,0.0,0.0,0.0,0.0,0.0,0.0,0.0,0.0,0.0,0.0,0.0,0.0,0.0,0.0,0.0,0.0,0.0,0.0,0.0,0.0,0.0,0.0,0.0,0.0,0.0,0.0,0.0,0.0,0.0,0.0,0.0,0.0,0.0,-4.2362,-4.3467,-4.4451,-4.5222,-4.3407,-4.2906,-4.3935,0.0,0.0,0.0,0.0,0.0,0.0,0.0,0.0,0.0,0.0,0.0,0.0,0.0,0.0,0.0,0.0,0.0,0.0,0.0,0.0,0.0,0.0,0.0,0.0,0.0,0.0,0.0,0.0,0.0,0.0,0.0,0.0,0.0,0.0,0.0,0.0,0.0,0.0,0.0,0.0,0.0,0.0,0.0,0.0,0.0,0.0,0.0,0.0,0.0,0.0,0.0,0.0,0.0,0.0,0.0,0.0,0.0,0.0,0.0,0.0,0.0,0.0,0.0,0.0,0.0,0.0,0.0,0.0,0.0,0.0,0.0,0.0,0.0,0.0,0.0,0.0,0.0,0.0,0.0,0.0,0.0,0.0,0.0,0.0,0.0,0.0,0.0,0.0,0.0,0.0,0.0,0.0,0.0,0.0,0.0,0.0,0.0,0.0,0.0,0.0,0.0,0.0,0.0,0.0,0.0,0.0,0.0,0.0,-4.2302,-4.3952,-4.4434,-4.3648,-4.2937,-4.2519,0.0,0.0,0.0,0.0,0.0,0.0,0.0,0.0,0.0,0.0,0.0,0.0,0.0,0.0,0.0,0.0,0.0,0.0,0.0,0.0,0.0,0.0,0.0,0.0,0.0,0.0,0.0,0.0,0.0,0.0,0.0,0.0,0.0,0.0,0.0,0.0,0.0,0.0,0.0,0.0,0.0,0.0,0.0,0.0,0.0,0.0,0.0,0.0,0.0,0.0,0.0,0.0,0.0,0.0,0.0,0.0,0.0,0.0,0.0,0.0,0.0,0.0,0.0,0.0,0.0,0.0,0.0,0.0,0.0,0.0,0.0,0.0,0.0,0.0,0.0,0.0,0.0,0.0,0.0,0.0,0.0,0.0,0.0,0.0,0.0,0.0,0.0,0.0,0.0,0.0,0.0,0.0,0.0,0.0,0.0,0.0,0.0,0.0,0.0,0.0,0.0,0.0,0.0,0.0,0.0,0.0,0.0,0.0,0.0,-4.2344,-4.3413,-4.389,-4.3624,-4.4018,-4.3968,0.0,0.0,0.0,0.0,0.0,0.0,0.0,0.0,0.0,0.0,0.0,0.0,0.0,0.0,0.0,0.0,0.0,0.0,0.0,0.0,0.0,0.0,0.0,0.0,0.0,0.0,0.0,0.0,0.0,0.0,0.0,0.0,0.0,0.0,0.0,0.0,0.0,0.0,0.0,0.0,0.0,0.0,0.0,0.0,0.0,0.0,0.0,0.0,0.0,0.0,0.0,0.0,0.0,0.0,0.0,0.0,0.0,0.0,0.0,0.0,0.0,0.0,0.0,0.0,0.0,0.0,0.0,0.0,0.0,0.0,0.0,0.0,0.0,0.0,0.0,0.0,0.0,0.0,0.0,0.0,0.0,0.0,0.0,0.0,0.0,0.0,0.0,0.0,0.0,0.0,0.0,0.0,0.0,0.0,0.0,0.0,0.0,0.0,0.0,0.0,0.0,0.0,0.0,0.0,0.0,0.0,0.0,0.0,-4.1933,-4.2288,-4.2865,-4.3144,-4.3102,-4.3939,-4.3997,0.0,0.0,0.0,0.0,0.0,0.0,0.0,0.0,0.0,0.0,0.0,0.0,0.0,0.0,0.0,0.0,0.0,0.0,0.0,0.0,0.0,0.0,0.0,0.0,0.0,0.0,0.0,0.0,0.0,0.0,0.0,0.0,0.0,0.0,0.0,0.0,0.0,0.0,0.0,0.0,0.0,0.0,0.0,0.0,0.0,0.0,0.0,0.0,0.0,0.0,0.0,0.0,0.0,0.0,0.0,0.0,0.0,0.0,0.0,0.0,0.0,0.0,0.0,0.0,0.0,0.0,0.0,0.0,0.0,0.0,0.0,0.0,0.0,0.0,0.0,0.0,0.0,0.0,0.0,0.0,0.0,0.0,0.0,0.0,0.0,0.0,0.0,0.0,0.0,0.0,0.0,0.0,0.0,0.0,0.0,0.0,0.0,0.0,0.0,0.0,0.0,0.0,0.0,0.0,0.0,0.0,0.0,0.0,-4.1432,-4.2292,-4.2361,-4.2399,-4.242,-4.332,-4.3378,0.0,0.0,0.0,0.0,0.0,0.0,0.0,0.0,0.0,0.0,0.0,0.0,0.0,0.0,0.0,0.0,0.0,0.0,0.0,0.0,0.0,0.0,0.0,0.0,0.0,0.0,0.0,0.0,0.0,0.0,0.0,0.0,0.0,0.0,0.0,0.0,0.0,0.0,0.0,0.0,0.0,0.0,0.0,0.0,0.0,0.0,0.0,0.0,0.0,0.0,0.0,0.0,0.0,0.0,0.0,0.0,0.0,0.0,0.0,0.0,0.0,0.0,0.0,0.0,0.0,0.0,0.0,0.0,0.0,0.0,0.0,0.0,0.0,0.0,0.0,0.0,0.0,0.0,0.0,0.0,0.0,0.0,0.0,0.0,0.0,0.0,0.0,0.0,0.0,0.0,0.0,0.0,0.0,0.0,0.0,0.0,0.0,0.0,0.0,0.0,0.0,0.0,0.0,0.0,0.0,0.0,0.0,0.0,-4.1434,-4.2344,-4.2397,-4.2383,-4.2402,-4.3906,-4.4003,0.0,0.0,0.0,0.0,0.0,0.0,0.0,0.0,0.0,0.0,0.0,0.0,0.0,0.0,0.0,0.0,0.0,0.0,0.0,0.0,0.0,0.0,0.0,0.0,0.0,0.0,0.0,0.0,0.0,0.0,0.0,0.0,0.0,0.0,0.0,0.0,0.0,0.0,0.0,0.0,0.0,0.0,0.0,0.0,0.0,0.0,0.0,0.0,-3.7234,0.0,0.0,0.0,0.0,0.0,0.0,0.0,0.0,0.0,0.0,0.0,0.0,0.0,0.0,0.0,0.0,0.0,0.0,0.0,0.0,0.0,0.0,0.0,0.0,0.0,0.0,0.0,0.0,0.0,0.0,0.0,0.0,0.0,0.0,0.0,0.0,0.0,0.0,0.0,0.0,0.0,0.0,0.0,0.0,0.0,0.0,0.0,0.0,0.0,0.0,0.0,0.0,0.0,0.0,0.0,0.0,0.0,0.0,0.0,-4.1655,-4.1749,-4.2174,-4.2575,-4.3006,-4.3904,-4.3767,0.0,0.0,0.0,0.0,0.0,0.0,0.0,0.0,0.0,0.0,0.0,0.0,0.0,0.0,0.0,0.0,0.0,0.0,0.0,0.0,0.0,0.0,0.0,0.0,0.0,0.0,0.0,0.0,0.0,0.0,0.0,0.0,0.0,0.0,0.0,0.0,0.0,0.0,0.0,0.0,0.0,0.0,0.0,0.0,0.0,0.0,0.0,0.0,0.0,0.0,0.0,0.0,0.0,0.0,0.0,0.0,0.0,0.0,0.0,0.0,0.0,0.0,0.0,0.0,0.0,0.0,0.0,0.0,0.0,0.0,0.0,0.0,0.0,0.0,0.0,0.0,0.0,0.0,0.0,0.0,0.0,0.0,0.0,0.0,0.0,0.0,0.0,0.0,0.0,0.0,0.0,0.0,0.0,0.0,0.0,0.0,0.0,0.0,0.0,0.0,0.0,0.0,0.0,0.0,0.0,0.0,0.0,-4.2319,-4.1877,-4.1108,-4.1931,-4.2804,-4.3666,-4.3703,-4.3411,-4.2829,0.0,0.0,0.0,0.0,0.0,0.0,0.0,0.0,0.0,0.0,0.0,0.0,0.0,0.0,0.0,0.0,0.0,0.0,0.0,0.0,0.0,0.0,0.0,0.0,0.0,0.0,0.0,0.0,0.0,0.0,0.0,0.0,0.0,0.0,0.0,0.0,0.0,0.0,-4.0766,-4.1092,0.0,0.0,0.0,0.0,0.0,0.0,0.0,0.0,-3.8759,0.0,0.0,0.0,0.0,0.0,0.0,0.0,0.0,0.0,0.0,0.0,0.0,0.0,0.0,0.0,0.0,0.0,0.0,0.0,0.0,0.0,0.0,0.0,0.0,0.0,0.0,0.0,0.0,0.0,0.0,0.0,0.0,0.0,0.0,0.0,0.0,0.0,0.0,0.0,0.0,0.0,0.0,0.0,0.0,0.0,0.0,0.0,0.0,0.0,0.0,0.0,0.0,0.0,0.0,0.0,0.0,-4.3284,-4.2584,-4.1831,-4.1109,-4.195,-4.2816,-4.3666,-4.3699,-4.3973,-4.4506,0.0,0.0,0.0,0.0,0.0,0.0,0.0,0.0,0.0,0.0,0.0,0.0,0.0,0.0,0.0,0.0,0.0,0.0,0.0,0.0,0.0,0.0,0.0,0.0,0.0,0.0,0.0,0.0,0.0,0.0,0.0,0.0,0.0,0.0,0.0,0.0,0.0,0.0,0.0,-4.153,-4.2022,0.0,0.0,0.0,0.0,0.0,0.0,0.0,0.0,-3.9314,0.0,0.0,0.0,0.0,0.0,0.0,0.0,0.0,0.0,0.0,0.0,0.0,0.0,0.0,0.0,0.0,0.0,0.0,0.0,0.0,0.0,0.0,0.0,0.0,0.0,0.0,0.0,0.0,0.0,0.0,0.0,0.0,0.0,0.0,0.0,0.0,0.0,0.0,0.0,0.0,0.0,0.0,0.0,0.0,0.0,0.0,0.0,0.0,0.0,0.0,0.0,0.0,0.0,0.0,0.0,-4.286,-4.2427,-4.1872,-4.1171,-4.1949,-4.2812,-4.3643,-4.3697,-4.4322,0.0,0.0,0.0,0.0,0.0,0.0,0.0,0.0,0.0,0.0,0.0,0.0,0.0,0.0,0.0,0.0,0.0,0.0,0.0,0.0,0.0,0.0,0.0,0.0,0.0,0.0,0.0,0.0,0.0,0.0,0.0,0.0,0.0,0.0,0.0,0.0,0.0,0.0,0.0,0.0,-4.0731,-4.0996,-3.8878,0.0,0.0,0.0,0.0,0.0,0.0,-3.854,-3.8675,0.0,0.0,0.0,0.0,0.0,0.0,0.0,0.0,0.0,0.0,0.0,0.0,0.0,0.0,0.0,0.0,0.0,0.0,0.0,0.0,0.0,0.0,0.0,0.0,0.0,0.0,0.0,0.0,0.0,0.0,0.0,0.0,0.0,0.0,0.0,0.0,0.0,0.0,0.0,0.0,0.0,0.0,0.0,0.0,0.0,0.0,0.0,0.0,0.0,0.0,0.0,0.0,0.0,0.0,0.0,-4.2475,-4.233,-4.1897,-4.1138,-4.1944,-4.2811,-4.3658,-4.3887,-4.4688,0.0,0.0,0.0,0.0,0.0,0.0,0.0,0.0,0.0,0.0,0.0,0.0,0.0,0.0,0.0,0.0,0.0,0.0,0.0,0.0,0.0,0.0,0.0,0.0,0.0,0.0,0.0,0.0,0.0,0.0,0.0,0.0,0.0,0.0,0.0,0.0,0.0,0.0,0.0,0.0,0.0,-4.0101,-3.8062,-3.9431,0.0,0.0,0.0,0.0,-3.849,-3.8322,0.0,0.0,0.0,0.0,0.0,0.0,0.0,0.0,0.0,0.0,0.0,0.0,0.0,0.0,0.0,0.0,0.0,0.0,0.0,0.0,0.0,0.0,0.0,0.0,0.0,0.0,0.0,0.0,0.0,0.0,0.0,0.0,0.0,0.0,0.0,0.0,0.0,0.0,0.0,0.0,0.0,0.0,0.0,0.0,0.0,0.0,0.0,0.0,0.0,0.0,0.0,0.0,0.0,0.0,0.0,0.0,-4.3125,-4.2528,-4.1827,-4.11,-4.1913,-4.2811,-4.3678,-4.4442,-4.532,0.0,0.0,0.0,0.0,0.0,0.0,0.0,0.0,0.0,0.0,0.0,0.0,0.0,0.0,0.0,0.0,0.0,0.0,0.0,0.0,0.0,0.0,0.0,0.0,0.0,0.0,0.0,0.0,0.0,0.0,0.0,0.0,0.0,0.0,0.0,0.0,0.0,0.0,0.0,0.0,0.0,-4.1187,-3.7984,-3.9733,-4.0828,0.0,0.0,-3.8988,-3.9069,-3.8829,0.0,0.0,0.0,0.0,0.0,0.0,0.0,0.0,0.0,0.0,0.0,0.0,0.0,0.0,0.0,0.0,0.0,0.0,0.0,0.0,0.0,0.0,0.0,0.0,0.0,0.0,0.0,0.0,0.0,0.0,0.0,0.0,0.0,0.0,0.0,0.0,0.0,0.0,0.0,0.0,0.0,0.0,0.0,0.0,0.0,0.0,0.0,0.0,0.0,0.0,0.0,0.0,0.0,0.0,0.0,-4.2722,-4.2604,-4.1859,-4.1295,-4.0974,-4.1347,-4.1975,-4.2876,-4.3752,-4.4618,0.0,0.0,0.0,0.0,0.0,0.0,0.0,0.0,0.0,0.0,0.0,0.0,0.0,0.0,0.0,0.0,0.0,0.0,0.0,0.0,0.0,0.0,0.0,0.0,0.0,0.0,0.0,0.0,0.0,0.0,0.0,0.0,0.0,0.0,0.0,0.0,0.0,0.0,0.0,0.0,0.0,0.0,-3.8319,-3.9524,0.0,0.0,0.0,-3.9118,-4.029,0.0,0.0,0.0,0.0,0.0,0.0,0.0,0.0,0.0,0.0,0.0,0.0,0.0,0.0,0.0,0.0,0.0,0.0,0.0,0.0,0.0,0.0,0.0,0.0,0.0,0.0,0.0,0.0,0.0,0.0,0.0,0.0,0.0,0.0,0.0,0.0,0.0,0.0,0.0,0.0,0.0,0.0,0.0,0.0,0.0,0.0,0.0,0.0,0.0,0.0,0.0,0.0,0.0,0.0,0.0,0.0,0.0,-4.2039,-4.1281,-4.087,-4.0874,-4.089,-4.1342,-4.225,-4.291,0.0,0.0,0.0,0.0,0.0,0.0,0.0,0.0,0.0,0.0,0.0,0.0,0.0,0.0,0.0,0.0,0.0,0.0,0.0,0.0,0.0,0.0,0.0,0.0,0.0,0.0,0.0,-3.59,0.0,0.0,0.0,0.0,0.0,0.0,0.0,0.0,0.0,0.0,0.0,0.0,0.0,0.0,-3.9387,-3.8588,-3.9244,-3.9754,0.0,0.0,-3.9307,-4.0446,-3.9039,-3.7937,0.0,0.0,0.0,0.0,0.0,0.0,0.0,0.0,0.0,0.0,0.0,0.0,0.0,0.0,0.0,0.0,0.0,0.0,0.0,0.0,0.0,0.0,0.0,0.0,0.0,0.0,0.0,0.0,0.0,0.0,0.0,0.0,0.0,0.0,0.0,0.0,0.0,0.0,0.0,0.0,0.0,0.0,0.0,0.0,0.0,0.0,0.0,0.0,0.0,0.0,0.0,0.0,0.0,0.0,0.0,-4.1856,-4.1166,-4.081,-4.0796,-4.0861,-4.1307,-4.2175,-4.2265,-4.2745,0.0,0.0,0.0,0.0,0.0,0.0,0.0,0.0,0.0,0.0,0.0,0.0,0.0,0.0,0.0,0.0,0.0,0.0,0.0,0.0,0.0,0.0,0.0,0.0,0.0,0.0,0.0,0.0,0.0,0.0,0.0,0.0,0.0,0.0,0.0,0.0,0.0,0.0,0.0,0.0,0.0,-3.931,-3.8519,-3.9161,-3.9418,0.0,0.0,-3.9479,-3.8727,-3.897,-3.8845,-3.7709,0.0,0.0,0.0,0.0,0.0,0.0,0.0,0.0,0.0,0.0,0.0,0.0,0.0,0.0,0.0,0.0,0.0,0.0,0.0,0.0,0.0,0.0,0.0,0.0,0.0,0.0,0.0,0.0,0.0,0.0,0.0,0.0,0.0,0.0,0.0,0.0,0.0,0.0,0.0,0.0,0.0,0.0,0.0,0.0,0.0,0.0,0.0,0.0,0.0,0.0,0.0,0.0,0.0,-4.1262,-4.1043,-4.0849,-4.0738,-4.0738,-4.0754,-4.0948,-4.1315,-4.1823,-4.2272,0.0,0.0,0.0,0.0,0.0,0.0,0.0,0.0,0.0,0.0,0.0,0.0,0.0,0.0,0.0,0.0,0.0,0.0,0.0,0.0,0.0,0.0,0.0,0.0,0.0,0.0,0.0,0.0,-3.4352,-3.4395,-3.4124,0.0,0.0,0.0,0.0,0.0,0.0,0.0,0.0,0.0,0.0,-3.9206,-3.8659,-3.9048,0.0,0.0,-3.9405,-3.9546,-3.9833,-3.9127,-3.8421,-3.8188,-3.7986,0.0,0.0,0.0,0.0,0.0,0.0,0.0,0.0,0.0,0.0,0.0,0.0,0.0,0.0,0.0,0.0,0.0,0.0,0.0,0.0,0.0,0.0,0.0,0.0,0.0,0.0,0.0,0.0,0.0,0.0,0.0,0.0,0.0,0.0,0.0,0.0,0.0,0.0,0.0,0.0,0.0,0.0,0.0,0.0,0.0,0.0,0.0,0.0,0.0,0.0,0.0,0.0,-4.1508,-4.09,-4.0747,-4.0687,-4.0687,-4.068,-4.0707,-4.0752,-4.1286,-4.1487,0.0,0.0,0.0,0.0,0.0,0.0,0.0,0.0,0.0,0.0,0.0,0.0,0.0,0.0,0.0,0.0,0.0,0.0,0.0,0.0,0.0,0.0,0.0,0.0,0.0,0.0,0.0,0.0,-3.4634,-3.4706,-3.4724,0.0,0.0,0.0,0.0,0.0,0.0,0.0,0.0,0.0,0.0,-3.8561,-3.86,-3.8832,-3.9133,-3.9601,-3.9407,-3.9456,-4.0181,-3.9178,-3.8413,-3.8642,0.0,0.0,0.0,0.0,0.0,0.0,0.0,0.0,0.0,0.0,0.0,0.0,0.0,0.0,0.0,0.0,0.0,0.0,0.0,0.0,0.0,0.0,0.0,0.0,0.0,0.0,0.0,0.0,0.0,0.0,-4.6268,0.0,0.0,0.0,0.0,0.0,0.0,0.0,0.0,0.0,0.0,0.0,0.0,0.0,0.0,0.0,0.0,0.0,0.0,0.0,0.0,0.0,0.0,-4.1788,-4.1769,-4.0988,-4.0614,-4.0633,-4.0614,-4.0595,-4.0595,-4.0629,-4.0277,-3.9541,0.0,0.0,0.0,0.0,0.0,0.0,0.0,0.0,0.0,0.0,0.0,0.0,0.0,0.0,0.0,0.0,0.0,0.0,0.0,0.0,0.0,0.0,0.0,0.0,0.0,0.0,-3.7217,-3.6284,-3.5601,0.0,0.0,0.0,0.0,0.0,0.0,0.0,0.0,0.0,0.0,-3.7647,-3.7249,-3.8259,-3.8459,-3.8618,-3.8848,-3.9064,-3.917,-3.9133,-3.9082,-3.905,0.0,0.0,0.0,0.0,0.0,0.0,0.0,0.0,0.0,0.0,0.0,0.0,0.0,0.0,0.0,0.0,0.0,0.0,0.0,0.0,0.0,0.0,0.0,0.0,0.0,0.0,0.0,-4.5976,-4.5505,0.0,0.0,0.0,0.0,0.0,0.0,0.0,0.0,0.0,0.0,0.0,-4.3874,-4.3851,0.0,0.0,0.0,0.0,0.0,0.0,0.0,0.0,0.0,0.0,0.0,0.0,-4.1958,-4.2424,-4.12,-4.0838,-4.1419,-4.0899,-4.0591,-4.0591,-4.0554,-4.0434,-4.0203,0.0,0.0,0.0,0.0,0.0,0.0,0.0,0.0,0.0,0.0,0.0,0.0,0.0,0.0,0.0,0.0,0.0,0.0,0.0,0.0,0.0,0.0,0.0,0.0,0.0,-3.801,0.0,0.0,0.0,0.0,0.0,0.0,0.0,0.0,0.0,0.0,0.0,-3.7296,-3.746,-3.7786,-3.8034,-3.8148,-3.8296,-3.8148,0.0,0.0,0.0,0.0,0.0,0.0,0.0,0.0,0.0,0.0,0.0,0.0,0.0,0.0,-3.686,-3.613,-3.5156,-3.4482,-3.4464,0.0,0.0,0.0,0.0,0.0,0.0,0.0,0.0,0.0,0.0,0.0,0.0,0.0,0.0,-4.5692,0.0,-4.534,0.0,0.0,0.0,0.0,0.0,0.0,0.0,0.0,-4.3132,-4.2743,-4.2959,-4.2959,-4.2633,0.0,-4.2285,-4.2512,0.0,0.0,0.0,0.0,0.0,0.0,0.0,0.0,-4.2431,-4.3168,-4.1705,-4.1215,-4.1758,-4.0989,-4.0519,-4.0519,-4.018,-3.9988,-4.0042,-3.978,-3.9649,0.0,0.0,0.0,0.0,0.0,0.0,0.0,0.0,0.0,0.0,0.0,0.0,0.0,0.0,0.0,0.0,0.0,0.0,0.0,0.0,0.0,0.0,0.0,-3.7452,0.0,0.0,0.0,0.0,0.0,0.0,0.0,0.0,0.0,-3.6048,-3.6186,-3.6433,-3.691,-3.7231,-3.7536,-3.7774,0.0,0.0,0.0,0.0,0.0,0.0,0.0,-3.8074,-3.8083,-3.7751,-3.7377,-3.7104,-3.6853,-3.67,-3.67,0.0,0.0,-3.5695,-3.4761,-3.3935,-3.3935,-3.3967,-3.3981,-3.3981,-3.4009,-3.4055,0.0,0.0,0.0,0.0,0.0,0.0,0.0,0.0,-4.5347,-4.5395,0.0,-4.4358,0.0,0.0,0.0,0.0,0.0,-4.3466,0.0,0.0,-4.1733,-4.1354,-4.21,-4.2083,-4.2034,-4.2009,-4.2723,-4.2647,-4.1848,-4.1012,0.0,0.0,0.0,0.0,0.0,0.0,-4.3187,-4.3921,-4.2469,-4.17,-4.1747,-4.0867,-4.0407,-4.0388,-3.9559,-3.9093,-3.9035,-3.8374,-3.7929,-3.7978,-3.9493,0.0,0.0,0.0,0.0,0.0,0.0,0.0,0.0,0.0,0.0,0.0,0.0,0.0,0.0,0.0,0.0,0.0,0.0,0.0,0.0,-3.7433,0.0,0.0,0.0,0.0,0.0,0.0,0.0,0.0,0.0,0.0,-3.6359,-3.551,-3.5326,-3.6863,0.0,0.0,0.0,0.0,-3.7451,-3.8066,-3.835,-3.846,-3.8507,-3.7606,-3.677,-3.6468,0.0,0.0,-3.451,-3.4765,-3.4976,-3.4958,-3.4129,-3.3987,-3.5827,-3.5058,-3.4251,-3.423,-3.4243,-3.4377,-3.4395,-3.422,-3.4289,-4.5375,0.0,0.0,0.0,0.0,-4.5489,-4.5546,-4.6001,-4.5218,-4.4651,-4.4245,-4.3739,0.0,0.0,0.0,0.0,0.0,0.0,-4.2457,-4.2449,-4.1278,-4.0899,-4.1143,-4.11,-4.1087,-4.1081,-4.1259,-4.1212,-4.0959,-4.0677,-4.1064,-4.2096,0.0,0.0,0.0,0.0,-4.3176,-4.3914,-4.2451,-4.1932,-4.2533,-4.1135,-4.037,-4.0344,-4.0041,-3.9861,-3.9861,-3.9632,-3.9248,-3.8738,-3.9076,0.0,0.0,0.0,0.0,0.0,0.0,0.0,0.0,0.0,0.0,0.0,0.0,0.0,0.0,0.0,0.0,0.0,0.0,0.0,-3.674,-3.5882,-3.5884,0.0,0.0,0.0,0.0,0.0,0.0,0.0,0.0,0.0,-3.6158,-3.5976,-3.5862,0.0,0.0,-3.7309,-3.7703,-3.7522,-3.7107,-3.6483,-3.693,0.0,0.0,-3.6163,-3.6095,-3.5984,-3.4961,-3.417,-3.4131,-3.3975,-3.3854,-3.3856,-3.3267,-3.296,-3.3429,-3.3085,-3.2686,-3.2737,-3.2772,-3.2772,-3.2806,-3.2908,-3.2992,-4.4787,-4.4993,-4.4837,-4.5296,-4.5986,-4.5488,-4.5561,-4.591,-4.4783,-4.4156,-4.3878,-4.2893,-4.2539,-4.2703,-4.3241,0.0,0.0,0.0,-4.1848,-4.1537,-4.0958,-4.0713,-4.0713,-4.0674,-4.0661,-4.0661,-4.0621,-4.06,-4.0564,-4.0827,-4.1391,-4.224,0.0,0.0,-4.337,-4.2619,-4.3003,-4.4371,-4.2585,-4.1963,-4.2766,-4.117,-4.0253,-4.0168,-4.0139,-4.0138,-4.0119,-3.9785,-3.9356,-3.8832,-3.8735,-3.8543,0.0,0.0,0.0,0.0,0.0,0.0,0.0,0.0,0.0,0.0,0.0,-3.9012,0.0,0.0,0.0,0.0,-3.6011,-3.5886,-3.5412,-3.5209,0.0,0.0,0.0,0.0,0.0,0.0,0.0,-3.6252,-3.5408,-3.5029,-3.5707,-3.6008,-3.6103,-3.6003,-3.6599,-3.711,-3.7207,0.0,-3.6589,-3.5996,-3.6389,-3.6527,-3.5833,-3.5541,-3.5179,-3.4454,-3.3751,-3.3146,-3.2911,-3.2675,-3.2506,-3.2435,-3.2151,-3.1924,-3.1984,-3.1771,-3.1709,-3.1874,-3.1947,-3.1965,-3.1983,-3.209,-3.2214,-4.4033,-4.3357,-4.421,-4.5035,-4.5775,-4.5692,-4.5701,-4.5656,-4.4058,-4.379,-4.4292,-4.1964,-4.1734,-4.3191,-4.3194,0.0,-4.0833,-4.157,-4.1435,-4.0681,-4.0688,-4.0687,-4.068,-4.0556,-4.0504,-4.0484,-4.0484,-4.046,-4.0423,-4.1123,-4.1446,-4.138,-4.0711,-4.1141,-4.2559,-4.1932,-4.2676,-4.4903,-4.2695,-4.1856,-4.2396,-4.0886,-4.0007,-3.9954,-3.9935,-3.9935,-3.9924,-3.9188,-3.865,-3.8455,-3.8316,-3.7817,-3.6986,0.0,0.0,0.0,0.0,0.0,0.0,0.0,0.0,0.0,0.0,0.0,0.0,0.0,0.0,0.0,-3.497,0.0,-3.3788,-3.4925,0.0,0.0,0.0,-3.4914,-3.3811,-3.4206,-3.4609,-3.4681,0.0,0.0,-3.5008,-3.562,-3.5998,-3.5722,-3.5715,-3.5839,-3.6082,-3.5882,-3.5869,-3.6008,-3.6143,-3.6201,-3.5983,-3.5223,-3.3977,-3.2386,-3.1997,-3.1843,-3.1407,-3.1255,-3.1165,-3.1039,-3.0935,-3.0972,-3.1092,-3.1089,-3.1171,-3.1391,-3.1634,-3.1781,-3.1781,-3.1838,-3.1858,-4.3498,-4.3266,-4.284,-4.3162,-4.3872,-4.3214,-4.3324,-4.384,-4.2814,-4.2479,-4.255,-4.1369,-4.1046,-4.1432,-4.1363,-4.1112,-4.0719,-4.0866,-4.0824,-4.0624,-4.0576,-4.0534,-4.0515,-3.9892,-3.9588,-3.9546,-3.9531,-3.95,-3.9462,-4.0165,-4.0482,-4.0366,-4.068,-4.1374,-4.2409,-4.2134,-4.2257,-4.291,-4.2335,-4.1479,-4.0363,-3.9889,-3.9611,-3.9539,-3.9489,-3.9477,-3.9458,-3.922,-3.8758,-3.8072,-3.7355,-3.6862,-3.6708,-3.7054,0.0,0.0,0.0,0.0,0.0,0.0,0.0,0.0,0.0,-3.8249,-3.8257,0.0,-3.696,0.0,-3.3254,-3.1882,-3.2052,-3.2284,0.0,0.0,-3.3948,-3.3939,-3.3649,-3.2983,-3.2841,-3.3634,-3.3697,-3.3794,-3.4202,-3.4835,-3.5121,-3.473,-3.5059,-3.538,-3.5425,-3.4771,-3.432,-3.4382,-3.4083,-3.3877,-3.4345,-3.3627,-3.2508,-3.0974,-3.0999,-3.1116,-3.1006,-3.0972,-3.0875,-3.0555,-3.0477,-3.0393,-3.0182,-3.0135,-3.0204,-3.0377,-3.1001,-3.1557,-3.1557,-3.1615,-3.1581,-4.2446,-4.2059,-4.1576,-4.1654,-4.2124,-4.2441,-4.286,-4.3227,-4.2376,-4.199,-4.1951,-4.1139,-4.0777,-4.0752,-4.072,-4.0675,-4.0661,-4.0617,-4.06,-4.0539,-4.0441,-4.0408,-4.0381,-3.9862,-3.9597,-3.9552,-3.9562,-3.9535,-3.9518,-3.988,-4.0008,-3.9908,-4.0151,-4.0715,-4.1588,-4.1933,-4.2492,-4.3297,-4.253,-4.1293,-3.9638,-3.9464,-3.9583,-3.9913,-3.9906,-3.9906,-3.995,-3.9864,-3.9559,-3.8989,-3.8044,-3.7507,-3.7497,-3.7515,-3.7571,0.0,0.0,0.0,0.0,0.0,0.0,0.0,0.0,0.0,0.0,0.0,-3.6282,-3.5151,-3.2877,-3.174,-3.2406,-3.2408,-3.263,-3.3352,-3.3,-3.2622,-3.2426,-3.2095,-3.1973,-3.2254,-3.2712,-3.3004,-3.3126,-3.3554,-3.3722,-3.345,-3.3539,-3.3865,-3.4374,-3.395,-3.3437,-3.3127,-3.3014,-3.3109,-3.3499,-3.286,-3.1972,-3.0982,-3.068,-3.0581,-3.0354,-3.0309,-3.0246,-3.0054,-2.9989,-2.9946,-2.975,-2.9705,-2.975,-2.9946,-3.0368,-3.0797,-3.1092,-3.1213,-3.1162,-4.1405,-4.0588,-4.0588,-4.0588,-4.0737,-4.2279,-4.2963,-4.2905,-4.2177,-4.1848,-4.1796,-4.11,-4.0746,-4.072,-4.0687,-4.0653,-4.0588,-4.06,-4.0565,-4.0489,-4.0358,-4.0307,-4.0279,-3.9853,-3.9679,-3.9679,-3.9669,-3.9668,-3.9663,-3.9808,-3.9818,-3.9758,-3.9614,-3.9887,-4.0584,-4.1542,-4.278,-4.4242,-4.265,-4.1065,-3.9633,-3.9573,-3.9944,-4.0624,-4.0582,-4.0571,-4.0675,-4.056,-4.0435,-4.0218,-3.929,-3.8649,-3.8421,-3.8355,-3.7964,0.0,-3.7937,0.0,0.0,0.0,0.0,0.0,0.0,0.0,0.0,-3.6185,-3.5576,-3.4248,-3.3017,-3.2567,-3.3278,-3.3192,-3.2938,-3.2508,-3.1808,-3.1183,-3.0836,-3.1318,-3.1424,-3.0794,-3.1885,-3.2466,-3.1861,-3.1972,-3.2121,-3.2003,-3.1742,-3.1909,-3.2855,-3.294,-3.2604,-3.2021,-3.2405,-3.2395,-3.2233,-3.199,-3.1514,-3.0916,-3.0371,-2.9956,-2.9554,-2.954,-2.9518,-2.9483,-2.9483,-2.9483,-2.9477,-2.9432,-2.9477,-2.9589,-2.9603,-2.98,-3.0418,-3.0658,-3.0653,-4.1386,-4.0588,-4.0588,-4.0588,-4.0633,-4.0956,-4.1117,-4.1098,-4.099,-4.0978,-4.1023,-4.0823,-4.0707,-4.0694,-4.0658,-4.0622,-4.0588,-4.0539,-4.0504,-4.0489,-4.0377,-4.0307,-4.0221,-3.8699,-3.7956,-3.7984,-3.7984,-3.7954,-3.7923,-3.9086,-3.9623,-3.9563,-4.0066,-4.0328,-4.0472,0.0,0.0,0.0,-4.1161,-4.0463,-4.004,-4.07,-4.1082,-4.1068,-4.0458,0.0,-4.0084,-3.9994,-3.9916,-3.9866,-3.9001,0.0,0.0,0.0,0.0,0.0,0.0,0.0,0.0,0.0,0.0,0.0,-3.8409,-3.7747,-3.6073,-3.5461,-3.4636,-3.3363,-3.2345,-3.1656,-3.1462,-3.0838,-3.0652,-3.1144,-3.0557,-3.003,-2.9951,-2.9984,-2.9922,-2.9804,-3.0282,-3.056,-3.0449,-3.0626,-3.0753,-3.0665,-3.0337,-3.0213,-3.0396,-3.1056,-3.1194,-3.0626,-3.0608,-3.0064,-2.8971,-2.951,-2.9697,-2.8931,-2.8926,-2.8959,-2.8904,-2.9035,-2.9051,-2.8795,-2.8904,-2.8912,-2.8661,-2.8636,-2.8622,-2.8779,-2.8609,-2.8766,-2.9897,-3.014,-2.9933,-4.0961,0.0,-4.0557,-4.0557,0.0,-4.0557,-4.0557,-4.0564,-4.0633,-4.0687,-4.0707,-4.0661,-4.0647,-4.0639,-4.0622,-4.06,-4.0546,-4.0523,-4.0496,-4.0489,-4.0349,-4.0307,-4.0241,-3.8765,-3.8047,-3.8035,-3.7951,-3.7867,-3.7857,-3.8963,-3.9464,-3.9369,-3.9652,-3.9793,-3.977,-4.0135,-4.0481,-4.0844,-4.0422,-3.9956,-3.9493,-3.9884,-4.0259,-4.0549,0.0,0.0,0.0,0.0,0.0,0.0,0.0,0.0,0.0,0.0,0.0,-3.5522,-3.6192,-3.6664,-3.6791,-3.6717,-3.6632,-3.6528,-3.6121,-3.5779,-3.5514,-3.4686,-3.3517,-3.2022,-3.1667,-3.1388,-3.0836,-3.0298,-3.0355,-3.1144,-3.0241,-2.9659,-3.0071,-3.0007,-2.9702,-2.9386,-2.9532,-2.9688,-2.9623,-2.9419,-2.9516,-2.9724,-2.9493,-2.9248,-2.9239,-2.9978,-3.0426,-3.0111,-2.9427,-2.8886,-2.8532,-2.8535,-2.8634,-2.8252,-2.8032,-2.7984,-2.8057,-2.8222,-2.831,-2.8149,-2.8016,-2.7794,-2.7651,-2.7413,-2.724,-2.7303,-2.7287,-2.7431,-2.816,-2.8463,-2.8517,-4.0523,-4.0496,-4.0496,-4.0496,-4.0496,-4.0496,-4.0496,-4.0496,0.0,0.0,0.0,-4.0588,-4.0579,-4.0588,-4.058,-4.0565,-4.0496,-4.0496,-4.0419,-4.0296,-4.0119,-3.9964,-3.9765,-3.8676,-3.814,-3.8126,-3.8089,-3.8046,-3.8034,-3.8913,-3.9315,-3.9197,-3.9129,-3.9101,-3.9101,-3.9021,-3.9312,-3.9926,-3.9988,-3.9706,-3.9028,-3.9099,-3.9439,-4.0084,-3.9955,-3.9866,-3.985,-3.9045,-3.8599,-3.8567,-3.7691,-3.7143,-3.7044,-3.6632,-3.6313,-3.6143,-3.604,-3.5954,-3.6019,-3.5431,-3.4823,-3.4226,-3.358,-3.3627,-3.458,-3.3663,-3.2398,-3.0785,-3.0934,-3.1039,-3.0828,-3.0433,-3.0648,-3.1606,-3.0449,-2.9877,-3.0446,-3.0244,-2.9792,-2.9273,-2.906,-2.9006,-2.885,-2.8404,-2.8246,-2.8719,-2.8534,-2.8505,-2.8751,-2.9399,-2.9891,-2.9786,-2.8958,-2.837,-2.8496,-2.8299,-2.7963,-2.7653,-2.7255,-2.6949,-2.6948,-2.7095,-2.7245,-2.7249,-2.6907,-2.6669,-2.6579,-2.6341,-2.5986,-2.5971,-2.6077,-2.6202,-2.6267,-2.6469,-2.6757,-4.0565,-4.0496,-4.0496,-4.0496,-4.0496,-4.0496,-4.0496,-4.0496,-4.058,-4.0598,-4.0588,-4.0598,-4.0595,-4.0588,-4.0539,-4.0496,-4.0496,-4.0496,-4.0131,-3.9469,-3.9276,-3.8725,-3.7852,-3.6917,-3.6392,-3.6336,-3.6883,-3.7173,-3.7317,-3.8568,-3.9229,-3.9197,-3.9142,-3.9101,-3.9087,-3.8979,-3.898,-3.9091,-3.9741,-3.9991,-3.9838,-4.0501,-4.0859,-4.0889,-4.0166,-3.9754,-3.9619,-3.9408,-3.9357,-3.934,-3.8407,-3.7786,-3.7523,-3.5504,-3.4212,-3.397,-3.3881,-3.3474,-3.2713,-3.336,-3.3482,-3.2628,-3.2241,-3.2189,-3.2488,-3.1999,-3.1334,-3.0505,-2.9848,-2.988,-3.1006,-3.0496,-3.04,-3.1261,-3.1033,-3.0586,-3.006,-2.969,-2.9422,-2.9243,-2.8334,-2.7703,-2.7682,-2.7347,-2.7129,-2.7202,-2.7338,-2.7488,-2.8404,-2.8879,-2.9121,-2.9144,-2.8626,-2.7954,-2.7554,-2.7264,-2.6989,-2.6243,-2.617,-2.5952,-2.5554,-2.5658,-2.5814,-2.572,-2.5798,-2.5811,-2.582,-2.5853,-2.5689,-2.5651,-2.5499,-2.5372,-2.54,-2.5157,-2.5072,-4.0571,-4.0564,-4.0557,-4.0564,-4.0564,-4.0557,-4.0306,-3.9959,-4.0405,-4.0321,-3.9914,-3.9911,-3.9634,-3.9249,-3.9657,-3.9592,-3.9169,-3.9642,-3.9669,-3.9315,-3.9215,-3.9116,-3.8888,-3.7585,-3.6821,-3.671,-3.6934,-3.7016,-3.7094,-3.8544,-3.9242,-3.9156,-3.9133,-3.9092,-3.905,-3.895,-3.8896,-3.8851,-3.9175,-3.928,-3.9184,-3.952,-3.9607,-3.9458,-3.9048,-3.8784,-3.8682,-3.7748,-3.7444,-3.7911,-3.6519,-3.5666,-3.5544,-3.4358,-3.3565,-3.3351,-3.3276,-3.3204,-3.3121,-3.3501,-3.3362,-3.245,-3.2256,-3.1846,-3.1117,-3.1214,-3.0964,-3.0275,-3.0012,-3.0105,-3.0598,-3.0416,-3.0382,-3.0582,-3.0394,-2.9915,-2.918,-2.8722,-2.8464,-2.8228,-2.7575,-2.7067,-2.7093,-2.691,-2.6794,-2.6794,-2.6794,-2.7183,-2.8028,-2.8242,-2.84,-2.8716,-2.8307,-2.764,-2.703,-2.6899,-2.6727,-2.6384,-2.605,-2.573,-2.5357,-2.5321,-2.5178,-2.5173,-2.5041,-2.4851,-2.4822,-2.4587,-2.45,-2.4552,-2.4608,-2.4554,-2.4579,-2.4434,-2.4534,-4.0614,-4.0588,-4.0588,-4.0588,-4.0588,-4.0588,-4.024,-3.9758,-4.0144,-3.9846,-3.9121,-3.923,-3.903,-3.8657,-3.9119,-3.9042,-3.8719,-3.9265,-3.9477,-3.9304,-3.9304,-3.9353,-3.9257,-3.7927,-3.71,-3.6785,-3.693,-3.7009,-3.7106,-3.8557,-3.9275,-3.9115,-3.9101,-3.9059,-3.8993,-3.8736,-3.8696,-3.877,-3.8551,-3.8475,-3.8491,-3.8433,-3.8303,-3.8101,-3.8018,-3.7968,-3.7809,-3.6378,-3.5862,-3.6397,-3.4746,-3.3811,-3.3952,-3.3406,-3.3137,-3.323,-3.2854,-3.2801,-3.3267,-3.3249,-3.2825,-3.2081,-3.1992,-3.1402,-3.0204,-3.0385,-3.0439,-2.9901,-2.9998,-3.0129,-3.0,-3.013,-3.0219,-2.9922,-2.9875,-2.9487,-2.8581,-2.8122,-2.7824,-2.7498,-2.7047,-2.6738,-2.6779,-2.6794,-2.6794,-2.6794,-2.6794,-2.7041,-2.755,-2.7668,-2.79,-2.8187,-2.8042,-2.7505,-2.691,-2.662,-2.646,-2.6387,-2.5734,-2.5212,-2.4989,-2.4728,-2.461,-2.4449,-2.4171,-2.3894,-2.3806,-2.359,-2.3452,-2.3599,-2.3853,-2.4049,-2.4248,-2.4301,-2.438,-4.0661,-4.0614,-4.0595,-4.0588,-4.0595,-4.0595,-4.0537,-4.0363,-3.9816,-3.9018,-3.842,-3.9031,-3.9723,-4.0215,-3.956,-3.9584,-4.0092,-4.0342,-3.9977,-3.9342,-3.9304,-3.8372,-3.6993,-3.6547,-3.5875,-3.5249,-3.6339,-3.6906,-3.6907,-3.843,-3.917,-3.9115,-3.9101,-3.9059,-3.8919,-3.8219,-3.8128,-3.8752,-3.8015,-3.7906,-3.8455,-3.8387,-3.8221,-3.8101,-3.7967,-3.7899,-3.7881,-3.688,-3.631,-3.6256,-3.4571,-3.3863,-3.4319,-3.285,-3.2357,-3.3436,-3.2022,-3.105,-3.115,-3.1045,-3.095,-3.0466,-3.0497,-3.0141,-2.9319,-2.9163,-2.9085,-2.8982,-2.8879,-2.9102,-2.9527,-2.9574,-2.9579,-2.9589,-2.9969,-2.993,-2.8869,-2.8498,-2.8236,-2.7956,-2.7041,-2.6592,-2.6753,-2.6794,-2.6794,-2.6794,-2.6794,-2.6968,-2.7449,-2.7512,-2.75,-2.7712,-2.7695,-2.7447,-2.6866,-2.6253,-2.585,-2.5255,-2.4544,-2.4123,-2.376,-2.3432,-2.3151,-2.3516,-2.3223,-2.3136,-2.313,-2.3052,-2.3186,-2.3334,-2.3603,-2.3903,-2.4177,-2.4297,-2.438,-4.0746,-4.0713,-4.0713,-4.0713,-4.0713,-4.0713,-4.0424,-3.994,-4.0153,-3.9747,-3.9039,-3.9322,-3.9058,-3.8426,-3.9043,-3.928,-3.9109,-3.9564,-3.9626,-3.9238,-3.8716,-3.8404,-3.8366,-3.6844,-3.6106,-3.6051,-3.6306,-3.6293,-3.6459,-3.7707,-3.8664,-3.9045,-3.9101,-3.9045,-3.8898,-3.8112,-3.7819,-3.7978,-3.7151,-3.6994,-3.7637,-3.8,-3.8121,-3.7967,-3.781,-3.7721,-3.7578,-3.6346,-3.583,-3.615,-3.4373,-3.3626,-3.4396,-3.2913,-3.2213,-3.2666,-3.2036,-3.1729,-3.2077,-3.1895,-3.1477,-3.0852,-3.0401,-2.988,-2.9177,-2.9052,-2.8982,-2.8865,-2.8677,-2.8713,-2.8894,-2.919,-2.9258,-2.9061,-2.9452,-2.9281,-2.7961,-2.7732,-2.7471,-2.7033,-2.6644,-2.65,-2.6727,-2.6794,-2.6794,-2.6794,-2.6794,-2.6924,-2.713,-2.7118,-2.7118,-2.7144,-2.7171,-2.7084,-2.675,-2.6239,-2.5705,-2.5299,-2.4544,-2.3746,-2.3528,-2.3099,-2.2917,-2.2888,-2.2888,-2.2888,-2.2939,-2.2933,-2.3023,-2.3223,-2.3538,-2.3903,-2.4219,-2.4281,-2.438,-4.0797,-4.0797,-4.0797,-4.0797,-4.0797,-4.0797,-4.0448,-3.9907,-4.0294,-4.0081,-3.952,-3.9481,-3.878,-3.7848,-3.8878,-3.9141,-3.8901,-3.9381,-3.9634,-3.9523,-3.8824,-3.8888,-3.9401,-3.7761,-3.6874,-3.6983,-3.6517,-3.6279,-3.6478,-3.7588,-3.8544,-3.9027,-3.9101,-3.9031,-3.8795,-3.7913,-3.7417,-3.7397,-3.6377,-3.6109,-3.6791,-3.7428,-3.7767,-3.781,-3.7471,-3.7255,-3.7202,-3.5599,-3.4942,-3.551,-3.3943,-3.3296,-3.3819,-3.277,-3.1993,-3.1769,-3.1735,-3.1882,-3.2273,-3.2054,-3.1545,-3.0733,-3.0306,-2.988,-2.9288,-2.9114,-2.9052,-2.892,-2.8756,-2.8621,-2.853,-2.8891,-2.8938,-2.8504,-2.8849,-2.855,-2.7339,-2.7097,-2.6919,-2.6406,-2.6354,-2.6447,-2.6727,-2.6794,-2.6794,-2.6794,-2.6794,-2.6794,-2.6779,-2.6767,-2.6741,-2.6765,-2.6663,-2.6492,-2.6474,-2.5908,-2.5575,-2.5067,-2.4239,-2.3586,-2.363,-2.3157,-2.2902,-2.2888,-2.2888,-2.2888,-2.2888,-2.291,-2.3023,-2.3246,-2.3538,-2.3903,-2.424,-2.4281,-2.4323,-4.0797,-4.0797,-4.0797,-4.0797,-4.0797,-4.0797,-4.0777,-4.0603,-3.9965,-3.9559,-3.9559,-3.9539,-3.9462,-3.9314,-3.9438,-3.9811,-4.0395,-4.0429,-4.0389,-4.0263,-4.0102,-3.9633,-3.8776,-3.8542,-3.7969,-3.7234,-3.7016,-3.7265,-3.7903,-3.8611,-3.9064,-3.9064,-3.9027,-3.9013,-3.8629,-3.7299,-3.6878,-3.7195,-3.5791,-3.5316,-3.5982,-3.6546,-3.7069,-3.7452,-3.6899,-3.6471,-3.6221,-3.4764,-3.3881,-3.3847,-3.3254,-3.2934,-3.2928,-3.2197,-3.1495,-3.0933,-3.0829,-3.0755,-3.0703,-3.0656,-3.0275,-2.9556,-2.9848,-2.9864,-2.9209,-2.9114,-2.9052,-2.892,-2.8897,-2.8803,-2.8621,-2.8682,-2.8649,-2.8451,-2.8442,-2.806,-2.7214,-2.7137,-2.6837,-2.6459,-2.634,-2.6474,-2.6753,-2.6794,-2.6794,-2.6794,-2.6794,-2.6794,-2.6779,-2.6645,-2.663,-2.6553,-2.6223,-2.5712,-2.5723,-2.5284,-2.4675,-2.4268,-2.3818,-2.3041,-2.2983,-2.2925,-2.2888,-2.2888,-2.2888,-2.2888,-2.2888,-2.2978,-2.3142,-2.3341,-2.3581,-2.3909,-2.4219,-2.4281,-2.4302,-4.0797,-4.0797,-4.0797,-4.0797,-4.0797,-4.0797,-4.0797,-4.0777,-4.0487,-4.0313,-4.0332,-4.0332,-4.0332,-4.0332,-4.0301,-4.0398,-4.0575,-4.0593,-4.0504,-4.0264,-3.9642,-3.9364,-3.9318,-3.8241,-3.78,-3.7805,-3.7354,-3.7434,-3.8053,-3.8316,-3.8361,-3.8321,-3.8339,-3.8271,-3.7886,-3.6542,-3.6067,-3.6464,-3.4979,-3.4426,-3.5084,-3.523,-3.5576,-3.6181,-3.6362,-3.6114,-3.5545,-3.441,-3.3775,-3.3688,-3.3019,-3.284,-3.3256,-3.2994,-3.2164,-3.105,-3.1279,-3.1467,-3.1277,-3.0829,-3.0416,-2.999,-2.9712,-2.953,-2.9185,-2.9114,-2.9075,-2.9052,-2.9013,-2.8959,-2.8818,-2.8692,-2.8573,-2.8541,-2.8444,-2.8128,-2.7499,-2.7295,-2.7063,-2.6604,-2.6513,-2.6674,-2.6727,-2.6794,-2.6794,-2.6794,-2.6794,-2.6794,-2.6779,-2.6712,-2.6596,-2.6228,-2.5912,-2.5452,-2.4563,-2.4428,-2.4094,-2.3847,-2.3455,-2.3099,-2.2902,-2.2888,-2.2888,-2.2888,-2.2888,-2.2888,-2.2888,-2.291,-2.312,-2.3451,-2.3674,-2.3861,-2.4234,-2.4255,-2.4276,-4.0797,-4.0797,-4.0797,-4.0797,-4.0797,-4.0797,-4.0797,-4.0797,-4.0797,-4.0797,-4.0797,-4.0797,-4.0797,-4.0797,-4.0797,-4.0746,-4.0647,-4.0614,-4.05,-4.0266,-3.9547,-3.9399,-3.9561,-3.85,-3.8181,-3.8582,-3.8176,-3.8009,-3.8109,-3.8287,-3.8351,-3.8302,-3.8284,-3.8215,-3.7849,-3.6505,-3.5938,-3.5932,-3.4511,-3.3887,-3.4306,-3.4413,-3.4474,-3.4776,-3.5359,-3.54,-3.471,-3.3861,-3.3368,-3.3248,-3.2899,-3.2781,-3.2987,-3.2885,-3.2256,-3.1213,-3.1183,-3.1406,-3.1339,-3.0776,-3.0298,-3.0106,-2.963,-2.9259,-2.9183,-2.9121,-2.9114,-2.9114,-2.9114,-2.9052,-2.8967,-2.8803,-2.8692,-2.866,-2.858,-2.8226,-2.7549,-2.7433,-2.7152,-2.6669,-2.6671,-2.6779,-2.6794,-2.6794,-2.6794,-2.6794,-2.6794,-2.6794,-2.6794,-2.6765,-2.6573,-2.5934,-2.5604,-2.4998,-2.4268,-2.3862,-2.3621,-2.336,-2.3331,-2.3041,-2.2888,-2.2888,-2.2888,-2.2888,-2.2888,-2.2888,-2.2888,-2.2888,-2.312,-2.348,-2.361,-2.3711,-2.3988,-2.4234,-2.4234,-4.0797,-4.0797,-4.0797,-4.0797,-4.0797,-4.0797,-4.0797,-4.0797,-4.0797,-4.0797,-4.0797,-4.0797,-4.0797,-4.0797,-4.0797,-4.0752,-4.0674,-4.0633,-4.0527,-4.0326,-4.0043,-3.9884,-3.984,-3.951,-3.9345,-3.9458,-3.9439,-3.8964,-3.8295,-3.879,-3.9053,-3.9003,-3.8859,-3.8734,-3.8799,-3.71,-3.6325,-3.595,-3.453,-3.3656,-3.3668,-3.4099,-3.405,-3.3586,-3.4004,-3.4183,-3.3892,-3.3099,-3.2713,-3.2649,-3.2857,-3.264,-3.2135,-3.1873,-3.1435,-3.1016,-3.0467,-3.0356,-3.0596,-3.0139,-2.9788,-2.9614,-2.9405,-2.9328,-2.9282,-2.919,-2.9137,-2.9137,-2.9114,-2.9091,-2.9075,-2.8967,-2.885,-2.8818,-2.8771,-2.8405,-2.7795,-2.7504,-2.7236,-2.6695,-2.6698,-2.6779,-2.6794,-2.6794,-2.6794,-2.6794,-2.6794,-2.6794,-2.6791,-2.6692,-2.6416,-2.5821,-2.5197,-2.45,-2.392,-2.3397,-2.3142,-2.2917,-2.2975,-2.2888,-2.2888,-2.2888,-2.2888,-2.2888,-2.2888,-2.2888,-2.2888,-2.291,-2.309,-2.34,-2.3451,-2.3625,-2.3919,-2.413,-2.4166,-4.0797,-4.0797,-4.0797,-4.0797,-4.0797,-4.0797,-4.0797,-4.0797,-4.0797,-4.0797,-4.0797,-4.0797,-4.0797,-4.0797,-4.0797,-4.0752,-4.0694,-4.0598,-4.043,-4.0258,-4.0062,-3.9908,-3.9773,-3.9669,-3.9608,-3.9589,-3.9564,-3.9377,-3.9087,-3.9197,-3.9014,-3.8422,-3.8302,-3.8201,-3.8075,-3.6528,-3.5846,-3.606,-3.4568,-3.3661,-3.3605,-3.3713,-3.3614,-3.3364,-3.3484,-3.3514,-3.3353,-3.2927,-3.274,-3.2709,-3.302,-3.2831,-3.2167,-3.2061,-3.1577,-3.0653,-3.0585,-3.0421,-3.0194,-3.0004,-2.9786,-2.9675,-2.9592,-2.9525,-2.9434,-2.9305,-2.9236,-2.9236,-2.9183,-2.9114,-2.9114,-2.9075,-2.8982,-2.8889,-2.8826,-2.8652,-2.8097,-2.7685,-2.7244,-2.6843,-2.6753,-2.6794,-2.6794,-2.6794,-2.6794,-2.6794,-2.6794,-2.6794,-2.6762,-2.6442,-2.5865,-2.528,-2.4617,-2.4041,-2.3476,-2.3157,-2.3041,-2.2888,-2.2888,-2.2888,-2.2888,-2.2888,-2.2888,-2.2888,-2.2888,-2.2888,-2.2888,-2.2955,-2.3112,-2.3312,-2.3451,-2.3668,-2.394,-2.4024,-2.4061,-4.0797,-4.0797,-4.0797,-4.0797,-4.0797,-4.0797,-4.0797,-4.0797,-4.0797,-4.0797,-4.0797,-4.0797,-4.0797,-4.0797,-4.0797,-4.0765,-4.0707,-4.0576,-4.0406,-4.0223,-4.0041,-3.9884,-3.975,-3.965,-3.9608,-3.9608,-3.9608,-3.9527,-3.9386,-3.9386,-3.9027,-3.8459,-3.8339,-3.8322,-3.8048,-3.6616,-3.5975,-3.6052,-3.4614,-3.3671,-3.3605,-3.3534,-3.3452,-3.3334,-3.3307,-3.3277,-3.3196,-3.3028,-3.2868,-3.2826,-3.2844,-3.246,-3.189,-3.1804,-3.1379,-3.0614,-3.0484,-3.0495,-3.006,-2.9984,-2.988,-2.977,-2.9726,-2.9675,-2.9563,-2.9441,-2.9389,-2.9366,-2.9259,-2.919,-2.9167,-2.9137,-2.9052,-2.9006,-2.8951,-2.8692,-2.8293,-2.774,-2.7233,-2.691,-2.6794,-2.6794,-2.6794,-2.6794,-2.6794,-2.6794,-2.6794,-2.6794,-2.6649,-2.6213,-2.5589,-2.495,-2.4384,-2.3766,-2.3076,-2.2902,-2.2902,-2.2888,-2.2888,-2.2888,-2.2888,-2.2888,-2.2888,-2.2888,-2.2888,-2.2888,-2.2888,-2.2888,-2.3015,-2.3223,-2.3451,-2.356,-2.3732,-2.3897,-2.394,-4.0797,-4.0797,-4.0797,-4.0797,-4.0797,-4.0797,-4.0797,-4.0797,-4.0797,-4.0797,-4.0797,-4.0797,-4.0797,-4.0797,-4.0797,-4.079,-4.0765,-4.0569,-4.0414,-4.0239,-4.0022,-3.987,-3.9811,-3.9656,-3.962,-3.9608,-3.9608,-3.9527,-3.9418,-3.9405,-3.9288,-3.9022,-3.8971,-3.8952,-3.8423,-3.7234,-3.6334,-3.5933,-3.4536,-3.3703,-3.3619,-3.3549,-3.3481,-3.3408,-3.3334,-3.3319,-3.3334,-3.318,-3.3008,-3.2868,-3.2388,-3.1926,-3.1538,-3.119,-3.0812,-3.0401,-3.0396,-3.0297,-3.0076,-2.9995,-2.9968,-2.988,-2.9786,-2.9704,-2.9697,-2.9608,-2.9518,-2.9496,-2.9389,-2.9305,-2.9282,-2.9213,-2.9144,-2.9098,-2.9091,-2.8716,-2.8036,-2.7635,-2.7251,-2.6834,-2.6721,-2.6707,-2.6634,-2.6634,-2.6678,-2.6794,-2.6794,-2.6794,-2.662,-2.617,-2.5546,-2.4892,-2.4225,-2.3577,-2.2917,-2.2888,-2.2888,-2.2888,-2.2888,-2.2888,-2.2888,-2.2888,-2.2888,-2.2888,-2.2888,-2.2888,-2.2888,-2.2888,-2.3,-2.3246,-2.3363,-2.3414,-2.3545,-2.3732,-2.3797,-4.0797,-4.0797,-4.0797,-4.0797,-4.0797,-4.0797,-4.0797,-4.0797,-4.0797,-4.0797,-4.0797,-4.0797,-4.0797,-4.0797,-4.0797,-4.0797,-4.0733,-4.0492,-4.0353,-4.0257,-3.997,-3.9777,-3.9691,-3.9638,-3.9608,-3.9608,-3.9608,-3.9527,-3.9418,-3.9405,-3.9288,-3.9101,-3.9082,-3.8748,-3.7974,-3.7054,-3.6104,-3.5354,-3.438,-3.3758,-3.3707,-3.3605,-3.3534,-3.3481,-3.3408,-3.3364,-3.3378,-3.3211,-3.3073,-3.2914,-3.2196,-3.175,-3.1601,-3.1018,-3.0609,-3.0506,-3.0338,-3.0231,-3.0146,-3.006,-2.9989,-2.9918,-2.9874,-2.9836,-2.9852,-2.9742,-2.9653,-2.963,-2.9518,-2.9412,-2.9344,-2.9344,-2.9344,-2.9259,-2.9167,-2.8803,-2.811,-2.7799,-2.734,-2.6334,-2.6137,-2.6155,-2.6152,-2.621,-2.6326,-2.662,-2.6765,-2.6721,-2.6489,-2.5821,-2.5081,-2.4607,-2.3998,-2.3389,-2.2931,-2.2902,-2.2888,-2.2888,-2.2888,-2.2888,-2.2888,-2.2888,-2.2888,-2.2888,-2.2888,-2.2888,-2.2888,-2.2888,-2.309,-2.3268,-2.3319,-2.3348,-2.3501,-2.3653,-2.3674,-4.0797,-4.0797,-4.0797,-4.0797,-4.0797,-4.0797,-4.0797,-4.0797,-4.0797,-4.0797,-4.0797,-4.0797,-4.0797,-4.0797,-4.0797,-4.0797,-4.0752,-4.0515,-4.0367,-4.0248,-3.9929,-3.9731,-3.965,-3.9633,-3.9608,-3.9608,-3.9608,-3.9527,-3.9457,-3.9418,-3.932,-3.9156,-3.9115,-3.8632,-3.7845,-3.7295,-3.6556,-3.5667,-3.477,-3.4261,-3.4192,-3.3793,-3.3563,-3.3509,-3.3437,-3.3393,-3.3378,-3.3259,-3.3104,-3.2852,-3.2369,-3.2003,-3.1749,-3.1218,-3.0818,-3.0733,-3.0485,-3.0316,-3.0274,-3.0227,-3.0141,-3.0033,-2.9989,-2.9946,-2.9924,-2.9852,-2.9786,-2.9748,-2.9675,-2.9563,-2.9518,-2.9496,-2.9473,-2.9389,-2.9275,-2.885,-2.7997,-2.7889,-2.7375,-2.6568,-2.6199,-2.6079,-2.5865,-2.6036,-2.6224,-2.6413,-2.666,-2.6544,-2.6286,-2.5415,-2.465,-2.4259,-2.3795,-2.3178,-2.2917,-2.2902,-2.2888,-2.2888,-2.2888,-2.2888,-2.2888,-2.2888,-2.2888,-2.2888,-2.2888,-2.2888,-2.2888,-2.2933,-2.3045,-2.3179,-2.3253,-2.3348,-2.3501,-2.3595,-2.3595,-4.0797,-4.0797,-4.0797,-4.0797,-4.0797,-4.0797,-4.0797,-4.0803,-4.0797,-4.0797,-4.0797,-4.0797,-4.0797,-4.0797,-4.0797,-4.0797,-4.079,-4.0586,-4.0419,-4.0212,-3.9929,-3.972,-3.9686,-3.9633,-3.962,-3.9608,-3.9608,-3.9571,-3.9495,-3.9431,-3.9346,-3.9215,-3.9129,-3.8655,-3.7988,-3.7706,-3.7267,-3.6399,-3.5584,-3.5151,-3.4916,-3.4337,-3.3887,-3.3793,-3.3473,-3.3393,-3.3378,-3.3307,-3.3137,-3.2855,-3.2673,-3.2283,-3.1877,-3.1581,-3.1254,-3.0898,-3.0609,-3.0443,-3.0401,-3.0375,-3.0333,-3.0189,-3.006,-2.9995,-2.9973,-2.9924,-2.9874,-2.9874,-2.9786,-2.972,-2.9697,-2.9608,-2.9534,-2.9496,-2.9412,-2.8904,-2.8216,-2.7877,-2.7525,-2.6831,-2.6631,-2.6257,-2.6097,-2.6184,-2.646,-2.6112,-2.637,-2.6486,-2.6108,-2.5342,-2.4631,-2.4051,-2.3534,-2.2975,-2.2888,-2.2888,-2.2888,-2.2888,-2.2888,-2.2888,-2.2888,-2.2888,-2.2888,-2.2888,-2.2888,-2.2888,-2.2888,-2.2955,-2.3045,-2.3179,-2.3275,-2.3414,-2.3545,-2.3573,-2.3595,-4.0797,-4.0797,-4.0797,-4.0809,-4.0802,-4.0803,-4.0809,-4.0808,-4.0803,-4.0797,-4.0797,-4.0797,-4.0797,-4.0797,-4.0797,-4.0797,-4.0784,-4.06,-4.0375,-4.0139,-3.9969,-3.9792,-3.9727,-3.9638,-3.962,-3.9608,-3.9608,-3.9571,-3.9495,-3.9444,-3.9328,-3.921,-3.9105,-3.8679,-3.7937,-3.784,-3.7332,-3.6551,-3.6182,-3.607,-3.5801,-3.506,-3.4517,-3.4397,-3.3775,-3.3411,-3.3378,-3.3337,-3.3186,-3.2916,-3.2606,-3.2249,-3.1768,-3.1351,-3.0998,-3.0736,-3.0572,-3.0464,-3.0438,-3.0417,-3.0338,-3.021,-3.0103,-2.9995,-2.9995,-2.993,-2.9918,-2.9896,-2.9858,-2.9836,-2.9814,-2.963,-2.9586,-2.9608,-2.9541,-2.9213,-2.8552,-2.7769,-2.7079,-2.6346,-2.5766,-2.5201,-2.5114,-2.5749,-2.5952,-2.5879,-2.6094,-2.637,-2.5876,-2.5154,-2.4471,-2.3775,-2.3374,-2.2902,-2.2888,-2.2888,-2.2888,-2.2888,-2.2888,-2.2888,-2.2888,-2.2888,-2.2888,-2.2888,-2.2888,-2.2888,-2.2888,-2.291,-2.2978,-2.3142,-2.3304,-2.3414,-2.3523,-2.3551,-2.3595,-4.0809,-4.0797,-4.0809,-4.0802,-4.0794,-4.0802,-4.0802,-4.0808,-4.0809,-4.0797,-4.0797,-4.0797,-4.0797,-4.0797,-4.0797,-4.0797,-4.0752,-4.06,-4.0391,-4.0204,-4.003,-3.9848,-3.972,-3.9631,-3.9608,-3.9608,-3.9608,-3.9583,-3.9533,-3.9457,-3.936,-3.9269,-3.9175,-3.8655,-3.8062,-3.8164,-3.7877,-3.7206,-3.6965,-3.6926,-3.6725,-3.5926,-3.5097,-3.4674,-3.392,-3.3393,-3.3393,-3.3364,-3.3244,-3.3042,-3.2787,-3.2369,-3.1822,-3.1353,-3.0978,-3.0777,-3.0551,-3.0506,-3.0459,-3.0459,-3.0422,-3.0338,-3.0189,-3.0184,-3.0119,-3.0033,-2.9924,-2.9924,-2.9924,-2.9896,-2.9896,-2.9792,-2.9742,-2.9742,-2.9659,-2.9412,-2.8934,-2.8147,-2.7197,-2.6476,-2.6092,-2.5519,-2.5411,-2.5701,-2.5836,-2.5937,-2.5861,-2.6036,-2.5371,-2.4689,-2.4056,-2.3476,-2.3171,-2.2902,-2.2888,-2.2888,-2.2888,-2.2888,-2.2888,-2.2888,-2.2888,-2.2888,-2.2888,-2.2888,-2.2888,-2.2888,-2.2888,-2.291,-2.2978,-2.3164,-2.3326,-2.3414,-2.3486,-2.3551,-2.3595,-4.0802,-4.0803,-4.0808,-4.08,-4.08,-4.08,-4.08,-4.08,-4.0809,-4.0797,-4.0797,-4.0797,-4.0797,-4.0797,-4.0797,-4.0797,-4.0752,-4.0621,-4.0458,-4.0274,-4.01,-3.9884,-3.9724,-3.9631,-3.9608,-3.9608,-3.9608,-3.9608,-3.9571,-3.9482,-3.9418,-3.936,-3.9215,-3.8817,-3.84,-3.8605,-3.8608,-3.7936,-3.7837,-3.7765,-3.7566,-3.678,-3.5908,-3.5041,-3.4461,-3.4054,-3.4039,-3.3973,-3.3807,-3.3528,-3.3353,-3.2888,-3.2231,-3.1598,-3.1114,-3.0975,-3.0651,-3.0489,-3.0485,-3.0489,-3.0468,-3.0489,-3.0338,-3.029,-3.029,-3.0141,-3.0011,-2.9968,-2.9962,-2.9896,-2.9896,-2.9874,-2.9874,-2.9874,-2.9786,-2.9614,-2.9312,-2.8795,-2.7948,-2.695,-2.6298,-2.5658,-2.5617,-2.5803,-2.5919,-2.5977,-2.5861,-2.5571,-2.4921,-2.4326,-2.3737,-2.3316,-2.3004,-2.2902,-2.2888,-2.2888,-2.2888,-2.2888,-2.2888,-2.2888,-2.2888,-2.2888,-2.2888,-2.2888,-2.2888,-2.2888,-2.2888,-2.2888,-2.3008,-2.3209,-2.3326,-2.3392,-2.348,-2.3573,-2.3616,-4.0794,-4.0808,-4.0794,-4.0792,-4.0796,-4.0812,-4.0792,-4.0809,-4.0796,-4.0797,-4.0797,-4.0797,-4.0797,-4.0797,-4.0797,-4.0797,-4.0778,-4.0694,-4.0523,-4.0317,-4.0139,-3.995,-3.9724,-3.9619,-3.962,-3.9608,-3.9608,-3.9608,-3.9596,-3.9533,-3.9444,-3.9391,-3.9261,-3.8989,-3.891,-3.9031,-3.8947,-3.8607,-3.8545,-3.8494,-3.8224,-3.7509,-3.6683,-3.5833,-3.5393,-3.5275,-3.5333,-3.5362,-3.5356,-3.5227,-3.4761,-3.3988,-3.3103,-3.2162,-3.1468,-3.0875,-3.0713,-3.0642,-3.0506,-3.0489,-3.0489,-3.0468,-3.0401,-3.0375,-3.0338,-3.0231,-3.0081,-2.9995,-2.9946,-2.9918,-2.9896,-2.9896,-2.9896,-2.9896,-2.9874,-2.9786,-2.9592,-2.925,-2.8717,-2.7747,-2.6759,-2.5908,-2.6046,-2.6103,-2.6144,-2.6046,-2.5723,-2.5348,-2.4742,-2.4167,-2.3606,-2.3244,-2.2917,-2.2888,-2.2888,-2.2888,-2.2888,-2.2888,-2.2888,-2.2888,-2.2888,-2.2888,-2.2888,-2.2888,-2.2888,-2.2888,-2.2888,-2.2888,-2.3031,-2.3231,-2.3319,-2.3385,-2.348,-2.3595,-2.3638,-4.0804,-4.0804,-4.0804,-4.0821,-4.0842,-4.0796,-4.0809,-4.0796,-4.0802,-4.0797,-4.0797,-4.0797,-4.0797,-4.0797,-4.0797,-4.0797,-4.079,-4.0778,-4.0598,-4.0345,-4.0176,-3.9981,-3.9724,-3.9631,-3.9602,-3.9608,-3.9608,-3.9608,-3.9608,-3.9533,-3.9469,-3.9405,-3.9288,-3.917,-3.9115,-3.9082,-3.9031,-3.8964,-3.8906,-3.8851,-3.8695,-3.7888,-3.7138,-3.6766,-3.62,-3.5905,-3.589,-3.5815,-3.5752,-3.567,-3.5424,-3.4782,-3.402,-3.3248,-3.2278,-3.113,-3.0962,-3.0916,-3.0609,-3.0489,-3.0489,-3.0489,-3.0443,-3.0422,-3.0401,-3.0279,-3.0146,-3.0038,-2.9973,-2.9946,-2.9918,-2.9896,-2.9896,-2.9896,-2.9896,-2.9874,-2.977,-2.9614,-2.9136,-2.8528,-2.7854,-2.7113,-2.6572,-2.6565,-2.6469,-2.6153,-2.5666,-2.5136,-2.4597,-2.3943,-2.3345,-2.3171,-2.2888,-2.2888,-2.2888,-2.2888,-2.2888,-2.2888,-2.2888,-2.2888,-2.2888,-2.2888,-2.2888,-2.2888,-2.2888,-2.2888,-2.2888,-2.2888,-2.3075,-2.3231,-2.3297,-2.3348,-2.3501,-2.3595,-2.3638,-4.0818,-4.0818,-4.0812,-4.0848,-4.0877,-4.0818,-4.0807,-4.0796,-4.0802,-4.0797,-4.0797,-4.0797,-4.0797,-4.0797,-4.0797,-4.0797,-4.0797,-4.0797,-4.0612,-4.0353,-4.0232,-4.0021,-3.9758,-3.9644,-3.9602,-3.9608,-3.9608,-3.9608,-3.9596,-3.9558,-3.9482,-3.9405,-3.9269,-3.9183,-3.9115,-3.9101,-3.9045,-3.8993,-3.8939,-3.8866,-3.8611,-3.8083,-3.7659,-3.7625,-3.6848,-3.6497,-3.6609,-3.6551,-3.6488,-3.6389,-3.6116,-3.5667,-3.4991,-3.4566,-3.3353,-3.158,-3.155,-3.1311,-3.0999,-3.0506,-3.0489,-3.0489,-3.0443,-3.0443,-3.0443,-3.0342,-3.0189,-3.0103,-3.0017,-2.9973,-2.9924,-2.9902,-2.9896,-2.9896,-2.9896,-2.9896,-2.9874,-2.9764,-2.957,-2.909,-2.8748,-2.8059,-2.7218,-2.6501,-2.6309,-2.6089,-2.5627,-2.5061,-2.447,-2.3551,-2.3055,-2.3012,-2.2888,-2.2888,-2.2888,-2.2888,-2.2888,-2.2888,-2.2888,-2.2888,-2.2888,-2.2888,-2.2888,-2.2888,-2.2888,-2.2888,-2.2888,-2.291,-2.3053,-2.3164,-2.3253,-2.337,-2.3523,-2.3595,-2.3616,-4.0897,-4.0897,-4.0897,-4.0902,-4.0883,-4.0842,-4.0807,-4.0801,-4.0802,-4.0797,-4.0797,-4.0797,-4.0797,-4.0797,-4.0797,-4.0797,-4.079,-4.0752,-4.0612,-4.0326,-4.0241,-4.005,-3.9754,-3.9698,-3.9645,-3.962,-3.9608,-3.9608,-3.9608,-3.9596,-3.9533,-3.9431,-3.9373,-3.9288,-3.9129,-3.9101,-3.9059,-3.8993,-3.8939,-3.8855,-3.8716,-3.8542,-3.8472,-3.8386,-3.8196,-3.7938,-3.7801,-3.7705,-3.7731,-3.767,-3.7238,-3.6627,-3.5888,-3.5183,-3.3932,-3.2624,-3.1951,-3.1753,-3.1432,-3.0883,-3.0489,-3.0489,-3.0468,-3.0489,-3.0468,-3.0443,-3.0338,-3.0338,-3.0146,-3.0017,-2.9989,-2.9924,-2.9918,-2.9896,-2.9896,-2.9896,-2.9896,-2.9874,-2.9681,-2.9406,-2.8979,-2.8225,-2.7395,-2.6664,-2.6053,-2.5838,-2.5563,-2.5012,-2.4315,-2.3441,-2.2925,-2.2888,-2.2888,-2.2888,-2.2888,-2.2888,-2.2888,-2.2888,-2.2888,-2.2888,-2.2888,-2.2888,-2.2888,-2.2888,-2.2888,-2.2888,-2.2888,-2.2933,-2.3045,-2.3142,-2.3253,-2.3392,-2.3566,-2.3588,-2.3595,-4.0888,-4.0888,-4.0888,-4.0893,-4.0883,-4.0828,-4.0807,-4.0796,-4.0802,-4.0797,-4.0797,-4.0797,-4.0797,-4.0797,-4.0797,-4.0797,-4.0784,-4.07,-4.0523,-4.0309,-4.0186,-3.997,-3.9758,-3.9698,-3.9669,-3.962,-3.9608,-3.9608,-3.9608,-3.9608,-3.9558,-3.9469,-3.9418,-3.9315,-3.9156,-3.9115,-3.9106,-3.905,-3.895,-3.8851,-3.8762,-3.8719,-3.8707,-3.8692,-3.8559,-3.8496,-3.8417,-3.8338,-3.8274,-3.8083,-3.7504,-3.6756,-3.5968,-3.5219,-3.433,-3.3816,-3.2613,-3.185,-3.1212,-3.0755,-3.0559,-3.0489,-3.0489,-3.0489,-3.0489,-3.0468,-3.0422,-3.038,-3.0248,-3.0103,-3.0017,-2.9946,-2.9918,-2.9896,-2.9896,-2.9896,-2.9896,-2.9896,-2.9776,-2.9492,-2.917,-2.8462,-2.7953,-2.7728,-2.6949,-2.6152,-2.5781,-2.5161,-2.432,-2.3325,-2.3,-2.2888,-2.2888,-2.2888,-2.2888,-2.2888,-2.2888,-2.2888,-2.2888,-2.2888,-2.2888,-2.2888,-2.2888,-2.2888,-2.2888,-2.2888,-2.2888,-2.2933,-2.3,-2.3142,-2.3282,-2.3414,-2.3545,-2.3588,-2.3616,-4.0888,-4.0888,-4.0903,-4.0888,-4.0883,-4.0833,-4.0807,-4.0801,-4.0802,-4.0797,-4.0797,-4.0797,-4.0797,-4.0797,-4.0797,-4.0797,-4.0771,-4.06,-4.0423,-4.0264,-4.0091,-3.9889,-3.9758,-3.9698,-3.9669,-3.9608,-3.9608,-3.9608,-3.9608,-3.9608,-3.9571,-3.9495,-3.9431,-3.9315,-3.9229,-3.9142,-3.9087,-3.9064,-3.895,-3.8881,-3.8792,-3.8735,-3.8707,-3.8658,-3.8578,-3.8478,-3.8399,-3.8338,-3.8274,-3.8082,-3.7483,-3.6827,-3.6303,-3.5434,-3.4683,-3.4042,-3.3002,-3.1925,-3.121,-3.0708,-3.0568,-3.0489,-3.0489,-3.0489,-3.0489,-3.0489,-3.0468,-3.0443,-3.0333,-3.0189,-3.0081,-2.9989,-2.9924,-2.9918,-2.9896,-2.9896,-2.9896,-2.9896,-2.9808,-2.9544,-2.9227,-2.893,-2.8602,-2.8754,-2.8065,-2.6795,-2.5988,-2.5314,-2.4372,-2.3319,-2.3075,-2.2963,-2.2888,-2.2888,-2.2888,-2.2888,-2.2888,-2.2888,-2.2888,-2.2888,-2.2888,-2.2888,-2.2888,-2.2888,-2.2888,-2.2888,-2.2888,-2.2933,-2.2978,-2.3142,-2.3304,-2.3414,-2.3486,-2.3551,-2.3595,-4.0888,-4.0888,-4.0883,-4.0903,-4.0903,-4.0833,-4.0807,-4.0796,-4.0802,-4.0797,-4.0797,-4.0797,-4.0797,-4.0797,-4.0797,-4.0797,-4.079,-4.06,-4.0423,-4.0255,-4.0082,-3.9867,-3.9747,-3.9698,-3.9669,-3.962,-3.9608,-3.9608,-3.9608,-3.9608,-3.9571,-3.9514,-3.9444,-3.9328,-3.9229,-3.9142,-3.9073,-3.9036,-3.895,-3.8896,-3.8807,-3.8732,-3.8689,-3.8673,-3.8575,-3.8478,-3.8399,-3.8354,-3.8274,-3.8191,-3.7504,-3.688,-3.6374,-3.5397,-3.4592,-3.3794,-3.2963,-3.1967,-3.1395,-3.0901,-3.063,-3.0531,-3.0489,-3.0489,-3.0489,-3.0489,-3.0489,-3.0485,-3.0417,-3.0312,-3.0167,-3.006,-2.9968,-2.9918,-2.9896,-2.9896,-2.9896,-2.9896,-2.9786,-2.957,-2.9323,-2.908,-2.9025,-2.9102,-2.8275,-2.6981,-2.5924,-2.5241,-2.4366,-2.3443,-2.3216,-2.3053,-2.2933,-2.2925,-2.2888,-2.2888,-2.2888,-2.2888,-2.2888,-2.2888,-2.2888,-2.2888,-2.2888,-2.2888,-2.2888,-2.2888,-2.2888,-2.291,-2.3,-2.3187,-2.3326,-2.3414,-2.3486,-2.3573,-2.3595,-4.0888,-4.0888,-4.0888,-4.0898,-4.0898,-4.0823,-4.0796,-4.0812,-4.0796,-4.0797,-4.0797,-4.0797,-4.0797,-4.0797,-4.0797,-4.0797,-4.0771,-4.05,-4.0386,-4.023,-4.0041,-3.9829,-3.972,-3.9698,-3.9669,-3.962,-3.9608,-3.9608,-3.9608,-3.9608,-3.9608,-3.9527,-3.9438,-3.9405,-3.9288,-3.917,-3.9087,-3.9064,-3.8993,-3.8921,-3.8866,-3.8792,-3.8735,-3.8692,-3.8673,-3.8559,-3.8478,-3.8401,-3.8338,-3.808,-3.7483,-3.6809,-3.6076,-3.5001,-3.4137,-3.3377,-3.2518,-3.2039,-3.1755,-3.1207,-3.0749,-3.0531,-3.0489,-3.0489,-3.0489,-3.0489,-3.0489,-3.0485,-3.0443,-3.0359,-3.021,-3.0098,-2.9968,-2.994,-2.9896,-2.9896,-2.9896,-2.9896,-2.983,-2.9614,-2.9541,-2.9371,-2.9371,-2.9396,-2.8293,-2.7127,-2.6094,-2.5129,-2.4322,-2.3702,-2.3458,-2.3194,-2.3075,-2.2933,-2.291,-2.2888,-2.2888,-2.2888,-2.2888,-2.2888,-2.2888,-2.2888,-2.2888,-2.2888,-2.2888,-2.2888,-2.2888,-2.2888,-2.2957,-2.3069,-2.3231,-2.337,-2.3465,-2.3573,-2.3595,-4.0888,-4.0888,-4.0898,-4.0903,-4.0883,-4.0837,-4.0809,-4.0794,-4.0809,-4.0797,-4.0797,-4.0797,-4.0797,-4.0797,-4.0797,-4.0797,-4.072,-4.0492,-4.0362,-4.0185,-4.0001,-3.9792,-3.972,-3.9698,-3.9669,-3.962,-3.9608,-3.9608,-3.9608,-3.9608,-3.9608,-3.9571,-3.9482,-3.9418,-3.9346,-3.9215,-3.9101,-3.9087,-3.9036,-3.8964,-3.8892,-3.8837,-3.8762,-3.8689,-3.864,-3.8575,-3.8478,-3.8417,-3.8338,-3.8061,-3.748,-3.654,-3.5563,-3.4604,-3.3784,-3.2962,-3.2372,-3.207,-3.1834,-3.1382,-3.077,-3.0547,-3.0489,-3.0489,-3.0489,-3.0489,-3.0489,-3.0489,-3.0464,-3.0396,-3.0269,-3.0146,-3.0038,-2.9989,-2.9918,-2.9896,-2.9896,-2.9896,-2.9808,-2.9697,-2.9608,-2.948,-2.9358,-2.9278,-2.8441,-2.7354,-2.6439,-2.5472,-2.457,-2.4015,-2.3724,-2.3465,-2.3216,-2.3053,-2.291,-2.2933,-2.2896,-2.2888,-2.2888,-2.2888,-2.2888,-2.2888,-2.2888,-2.2888,-2.2888,-2.2888,-2.291,-2.2918,-2.2899,-2.2915,-2.3053,-2.3162,-2.3458,-2.3566,-2.3573,-4.0888,-4.0903,-4.0898,-4.0888,-4.0883,-4.0837,-4.0809,-4.0814,-4.0809,-4.0797,-4.0797,-4.0797,-4.0797,-4.0797,-4.0797,-4.0797,-4.0726,-4.0469,-4.0328,-4.0221,-3.996,-3.9773,-3.972,-3.9698,-3.9669,-3.9633,-3.9608,-3.9608,-3.9608,-3.9608,-3.9608,-3.9571,-3.9482,-3.9373,-3.936,-3.9202,-3.9115,-3.9087,-3.9036,-3.8979,-3.8892,-3.8833,-3.8777,-3.8689,-3.8624,-3.8575,-3.8528,-3.8401,-3.8338,-3.82,-3.772,-3.6827,-3.5793,-3.5259,-3.4306,-3.2992,-3.285,-3.2427,-3.172,-3.1096,-3.0862,-3.0618,-3.0526,-3.0489,-3.0489,-3.0489,-3.0489,-3.0489,-3.0468,-3.0443,-3.0359,-3.0253,-3.0124,-2.9995,-2.9946,-2.9896,-2.9896,-2.9896,-2.983,-2.9748,-2.963,-2.9486,-2.9301,-2.904,-2.8421,-2.7592,-2.6721,-2.5839,-2.4942,-2.4338,-2.403,-2.3824,-2.3545,-2.3282,-2.3142,-2.2986,-2.2941,-2.291,-2.2888,-2.2888,-2.2888,-2.2888,-2.2888,-2.2888,-2.2888,-2.2888,-2.2918,-2.2963,-2.2907,-2.2863,-2.2807,-2.2923,-2.3278,-2.3545,-2.3588,-4.0888,-4.0888,-4.0898,-4.0903,-4.0897,-4.0834,-4.08,-4.0809,-4.0797,-4.0797,-4.0797,-4.0797,-4.0797,-4.0797,-4.0797,-4.079,-4.0739,-4.0469,-4.0328,-4.0257,-3.996,-3.9804,-3.972,-3.971,-3.9669,-3.9633,-3.9608,-3.9608,-3.9608,-3.9608,-3.9608,-3.9583,-3.9451,-3.9315,-3.9215,-3.9115,-3.9101,-3.9101,-3.9078,-3.9036,-3.8925,-3.8881,-3.8807,-3.8707,-3.864,-3.8624,-3.8609,-3.8451,-3.8352,-3.832,-3.7879,-3.7059,-3.5865,-3.5159,-3.4447,-3.3279,-3.2938,-3.2975,-3.2753,-3.2508,-3.1771,-3.1141,-3.063,-3.0588,-3.0506,-3.0489,-3.0489,-3.0489,-3.0489,-3.0464,-3.038,-3.0274,-3.0124,-3.0017,-2.9946,-2.9918,-2.9896,-2.9896,-2.9874,-2.9814,-2.9704,-2.9653,-2.9508,-2.9424,-2.8882,-2.8046,-2.7203,-2.6416,-2.5575,-2.4802,-2.4317,-2.4213,-2.3988,-2.3653,-2.3392,-2.3216,-2.3038,-2.2986,-2.2941,-2.2888,-2.2888,-2.2888,-2.2888,-2.2888,-2.2888,-2.2888,-2.2926,-2.2935,-2.2878,-2.2818,-2.2924,-2.304,-2.3359,-2.3566,-2.3573,-4.0888,-4.0888,-4.0898,-4.0903,-4.0897,-4.0846,-4.0825,-4.0815,-4.0803,-4.0797,-4.0797,-4.0797,-4.0797,-4.0797,-4.0797,-4.0797,-4.0771,-4.0469,-4.0328,-4.0257,-3.9981,-3.9815,-3.9731,-3.9703,-3.9662,-3.9614,-3.9608,-3.9608,-3.9608,-3.9608,-3.9596,-3.9546,-3.9451,-3.9315,-3.9202,-3.9129,-3.9101,-3.9101,-3.9087,-3.9036,-3.8954,-3.8881,-3.8822,-3.8735,-3.8692,-3.8692,-3.8643,-3.8546,-3.8399,-3.8334,-3.7938,-3.7217,-3.5901,-3.5135,-3.458,-3.3715,-3.3294,-3.3436,-3.3495,-3.333,-3.2543,-3.1872,-3.1212,-3.0907,-3.0787,-3.0671,-3.0539,-3.0489,-3.0506,-3.0485,-3.0422,-3.0295,-3.0167,-3.0055,-2.9968,-2.994,-2.9896,-2.9896,-2.9896,-2.9852,-2.9792,-2.9726,-2.9704,-2.9705,-2.9507,-2.8592,-2.7698,-2.6908,-2.6091,-2.5282,-2.4595,-2.4457,-2.4317,-2.4009,-2.3681,-2.3443,-2.3268,-2.3105,-2.2986,-2.2888,-2.2888,-2.2888,-2.2888,-2.2888,-2.2888,-2.2896,-2.2905,-2.2907,-2.3003,-2.3149,-2.3346,-2.3455,-2.3566,-2.3588,-2.3595,-4.0888,-4.0903,-4.0898,-4.0902,-4.0902,-4.0897,-4.0865,-4.0814,-4.0803,-4.0797,-4.0797,-4.0797,-4.0797,-4.0797,-4.0797,-4.0797,-4.0733,-4.0442,-4.0334,-4.0241,-4.001,-3.9859,-3.9743,-3.9708,-3.9656,-3.9626,-3.9608,-3.9608,-3.9608,-3.9608,-3.9571,-3.9508,-3.9438,-3.9328,-3.9229,-3.9161,-3.9115,-3.9101,-3.9101,-3.9036,-3.8921,-3.891,-3.8822,-3.8735,-3.8707,-3.8707,-3.8643,-3.8528,-3.8449,-3.8285,-3.7982,-3.7113,-3.6378,-3.5833,-3.5072,-3.4434,-3.4048,-3.416,-3.4165,-3.3985,-3.3592,-3.3013,-3.2179,-3.1812,-3.1383,-3.0986,-3.0754,-3.0638,-3.0638,-3.0555,-3.0485,-3.0338,-3.0205,-3.0098,-2.9989,-2.9946,-2.9918,-2.9896,-2.9896,-2.9874,-2.9792,-2.9748,-2.9748,-2.9782,-2.9745,-2.914,-2.8212,-2.7267,-2.642,-2.5453,-2.4869,-2.4641,-2.4503,-2.4338,-2.4036,-2.3717,-2.3348,-2.3142,-2.2986,-2.2888,-2.2888,-2.2888,-2.2888,-2.2888,-2.2888,-2.2918,-2.2979,-2.3113,-2.3246,-2.3429,-2.3516,-2.3545,-2.3566,-2.3588,-2.3595,-4.0893,-4.0898,-4.0888,-4.0903,-4.0883,-4.0842,-4.0804,-4.0809,-4.0797,-4.0797,-4.0797,-4.0797,-4.0797,-4.0797,-4.0797,-4.0797,-4.068,-4.05,-4.0362,-4.0213,-4.004,-3.9859,-3.9735,-3.9708,-3.9649,-3.9626,-3.9608,-3.9608,-3.9608,-3.9608,-3.9608,-3.9552,-3.9438,-3.9373,-3.9288,-3.9188,-3.9129,-3.9101,-3.9101,-3.9003,-3.8935,-3.891,-3.8825,-3.8753,-3.8707,-3.8707,-3.8658,-3.8544,-3.8462,-3.8352,-3.8221,-3.7519,-3.6218,-3.6001,-3.5602,-3.5088,-3.5242,-3.5618,-3.5496,-3.5245,-3.4817,-3.4061,-3.312,-3.2225,-3.1774,-3.1333,-3.0969,-3.0787,-3.0886,-3.0936,-3.0596,-3.0359,-3.0248,-3.0162,-3.0033,-2.9946,-2.9918,-2.9896,-2.9896,-2.9896,-2.983,-2.983,-2.983,-2.9836,-2.9745,-2.9356,-2.8689,-2.7682,-2.6673,-2.5707,-2.508,-2.4822,-2.4746,-2.4589,-2.4255,-2.3903,-2.3516,-2.3164,-2.3008,-2.291,-2.2888,-2.2888,-2.2888,-2.2888,-2.2888,-2.2955,-2.3082,-2.3194,-2.3246,-2.34,-2.3494,-2.3538,-2.3566,-2.3588,-2.3595,-4.0898,-4.0903,-4.0903,-4.0888,-4.0877,-4.0826,-4.0806,-4.0796,-4.0803,-4.0797,-4.0797,-4.0797,-4.0797,-4.0797,-4.0797,-4.079,-4.0759,-4.0534,-4.037,-4.0239,-4.008,-3.9881,-3.9777,-3.9708,-3.9649,-3.9626,-3.9608,-3.9608,-3.9608,-3.9608,-3.9608,-3.9577,-3.9451,-3.9418,-3.9346,-3.9215,-3.9115,-3.9101,-3.9087,-3.9021,-3.895,-3.891,-3.8825,-3.8738,-3.8707,-3.8707,-3.8673,-3.8559,-3.8478,-3.8417,-3.8338,-3.7769,-3.6645,-3.6346,-3.6132,-3.5718,-3.5904,-3.6125,-3.6057,-3.5916,-3.5428,-3.4703,-3.37,-3.2708,-3.2031,-3.1546,-3.1073,-3.0754,-3.1151,-3.1328,-3.0823,-3.038,-3.0295,-3.0205,-3.0076,-2.9962,-2.9918,-2.9896,-2.9896,-2.9896,-2.9896,-2.9896,-2.9896,-2.9896,-2.9799,-2.9426,-2.8742,-2.7714,-2.6757,-2.5818,-2.5247,-2.4942,-2.491,-2.4871,-2.4487,-2.413,-2.3775,-2.337,-2.3075,-2.2978,-2.2933,-2.2888,-2.2888,-2.2888,-2.2888,-2.2955,-2.3015,-2.3082,-2.3157,-2.329,-2.3407,-2.3451,-2.3501,-2.3588,-2.3588,-4.0883,-4.0903,-4.0903,-4.0883,-4.0872,-4.0823,-4.0794,-4.0814,-4.0803,-4.0797,-4.0797,-4.0797,-4.0797,-4.0797,-4.0797,-4.0797,-4.0733,-4.0576,-4.0406,-4.0281,-4.0129,-3.9922,-3.9766,-3.9708,-3.9656,-3.9626,-3.9608,-3.9608,-3.9608,-3.9608,-3.9608,-3.9577,-3.9451,-3.9391,-3.9333,-3.9188,-3.9082,-3.9101,-3.9087,-3.905,-3.8954,-3.8896,-3.8837,-3.8719,-3.8707,-3.8707,-3.8673,-3.8593,-3.8478,-3.8399,-3.8252,-3.7895,-3.7212,-3.6654,-3.6405,-3.6236,-3.6249,-3.6266,-3.6237,-3.6105,-3.5493,-3.4733,-3.3859,-3.2824,-3.2068,-3.1736,-3.1286,-3.0837,-3.1101,-3.1135,-3.0728,-3.045,-3.0333,-3.0227,-3.0076,-2.9968,-2.9918,-2.9918,-2.9896,-2.9896,-2.9896,-2.9896,-2.9896,-2.9896,-2.9896,-2.9545,-2.8662,-2.7597,-2.6853,-2.5934,-2.5362,-2.5005,-2.5009,-2.495,-2.465,-2.4317,-2.4036,-2.3674,-2.3253,-2.3,-2.291,-2.2888,-2.2888,-2.2888,-2.2888,-2.2888,-2.2933,-2.3,-2.3045,-2.3135,-2.3246,-2.3319,-2.3429,-2.3501,-2.3588,-4.0893,-4.0893,-4.0839,-4.0823,-4.0832,-4.0792,-4.0808,-4.0803,-4.0797,-4.0797,-4.0797,-4.0797,-4.0797,-4.0797,-4.0797,-4.0797,-4.0746,-4.0586,-4.0438,-4.0285,-4.0129,-3.9933,-3.9724,-3.9703,-3.9681,-3.9614,-3.9608,-3.9683,-3.9608,-3.9608,-3.9552,-3.952,-3.9431,-3.9373,-3.9275,-3.9124,-3.9082,-3.9101,-3.9087,-3.9036,-3.8939,-3.8896,-3.8818,-3.8735,-3.8707,-3.8707,-3.8692,-3.8673,-3.8575,-3.8512,-3.8415,-3.7948,-3.7227,-3.6876,-3.6571,-3.6346,-3.6305,-3.6284,-3.6241,-3.6092,-3.5513,-3.4614,-3.3683,-3.2703,-3.2043,-3.1834,-3.1527,-3.1099,-3.0891,-3.0874,-3.0716,-3.0521,-3.0354,-3.0227,-3.0119,-3.0011,-2.9924,-2.9918,-2.9896,-2.9896,-2.9896,-2.9896,-2.9896,-2.9896,-2.9896,-2.9281,-2.8228,-2.7315,-2.6853,-2.6097,-2.5346,-2.5005,-2.5084,-2.497,-2.4726,-2.4467,-2.4204,-2.376,-2.326,-2.3053,-2.291,-2.2888,-2.2888,-2.2888,-2.2888,-2.2888,-2.2888,-2.291,-2.2955,-2.3023,-2.3105,-2.3201,-2.3297,-2.3407,-2.3516,-4.0898,-4.0898,-4.0823,-4.0807,-4.0801,-4.08,-4.0796,-4.0796,-4.0803,-4.0797,-4.0797,-4.0797,-4.0797,-4.0797,-4.0797,-4.0797,-4.0778,-4.0607,-4.045,-4.0302,-4.011,-3.9916,-3.98,-3.9717,-4.0014,-4.0015,-4.0078,-4.0078,-3.9739,-3.9608,-3.9552,-3.9514,-3.9431,-3.9328,-3.9197,-3.9142,-3.9101,-3.9101,-3.9101,-3.9017,-3.8925,-3.8896,-3.8822,-3.8735,-3.8707,-3.8707,-3.8707,-3.8692,-3.8624,-3.843,-3.8251,-3.7983,-3.7413,-3.7015,-3.6736,-3.655,-3.6426,-3.6284,-3.628,-3.6031,-3.5511,-3.4507,-3.3805,-3.2937,-3.1695,-3.1449,-3.1262,-3.0933,-3.1328,-3.1373,-3.0775,-3.0443,-3.0401,-3.0295,-3.0231,-3.0184,-3.0033,-2.9924,-2.9918,-2.9896,-2.9896,-2.9896,-2.9896,-2.9896,-2.9848,-2.9583,-2.8431,-2.7432,-2.689,-2.6149,-2.5429,-2.5025,-2.5103,-2.5084,-2.4886,-2.463,-2.4333,-2.3852,-2.3326,-2.312,-2.2963,-2.2933,-2.2888,-2.2888,-2.2888,-2.2888,-2.2888,-2.2888,-2.2888,-2.297,-2.3015,-2.306,-2.3179,-2.329,-2.3385,-4.0883,-4.0893,-4.0809,-4.0807,-4.0796,-4.0802,-4.0809,-4.0802,-4.0809,-4.0797,-4.0797,-4.0797,-4.0797,-4.0797,-4.0797,-4.0797,-4.0752,-4.0628,-4.0481,-4.0326,-4.0148,-3.995,-3.9804,-3.9748,-3.9995,-4.0221,-4.0322,-4.0171,-3.9927,-3.9746,-3.959,-3.957,-3.9455,-3.9333,-3.9215,-3.9142,-3.9101,-3.9101,-3.9087,-3.9017,-3.895,-3.891,-3.8825,-3.875,-3.8707,-3.8707,-3.8707,-3.8673,-3.8624,-3.8465,-3.8201,-3.7914,-3.765,-3.7262,-3.6974,-3.6756,-3.6553,-3.6426,-3.6287,-3.6031,-3.5242,-3.443,-3.3908,-3.2983,-3.1725,-3.1232,-3.1052,-3.1089,-3.1487,-3.1399,-3.08,-3.0489,-3.0443,-3.0359,-3.0316,-3.0269,-3.0098,-2.9946,-2.9918,-2.9896,-2.9896,-2.9896,-2.9896,-2.9896,-2.9718,-2.9448,-2.8796,-2.7917,-2.7006,-2.607,-2.5219,-2.5084,-2.5162,-2.5103,-2.4985,-2.4771,-2.4456,-2.3979,-2.3523,-2.3238,-2.3031,-2.2941,-2.2888,-2.2888,-2.2888,-2.2888,-2.2888,-2.2888,-2.2888,-2.2925,-2.2947,-2.2992,-2.3037,-2.3149,-2.3246,-4.0893,-4.0888,-4.0818,-4.0809,-4.0806,-4.0809,-4.0797,-4.0803,-4.0797,-4.0797,-4.0797,-4.0797,-4.0797,-4.0797,-4.0797,-4.079,-4.0771,-4.0661,-4.0571,-4.0438,-4.0157,-3.9981,-3.9894,-3.9849,-3.9776,-3.989,-4.0096,-4.0134,-3.9984,-3.9777,-3.9864,-4.0179,-3.9548,-3.932,-3.9142,-3.9101,-3.9101,-3.9101,-3.9087,-3.9031,-3.8935,-3.8881,-3.8807,-3.875,-3.8707,-3.8707,-3.8707,-3.8707,-3.8692,-3.8578,-3.8382,-3.8086,-3.781,-3.7523,-3.7243,-3.6915,-3.6716,-3.6512,-3.6319,-3.5818,-3.499,-3.4249,-3.3613,-3.2711,-3.181,-3.1423,-3.123,-3.0975,-3.1173,-3.1066,-3.0651,-3.0568,-3.0485,-3.0359,-3.029,-3.0141,-2.9989,-2.994,-2.9918,-2.9896,-2.9896,-2.9896,-2.9896,-2.9799,-2.9572,-2.9119,-2.8302,-2.7437,-2.6862,-2.5958,-2.5057,-2.5167,-2.5281,-2.5123,-2.5041,-2.4871,-2.4574,-2.412,-2.3653,-2.3238,-2.2986,-2.2918,-2.2888,-2.2888,-2.2888,-2.2888,-2.2888,-2.2888,-2.2888,-2.2888,-2.2888,-2.291,-2.297,-2.3037,-2.3127]},{"header":{"parameterUnit":"m.s-1","parameterCategory":1,"la1":31.0,"la2":29.5877,"lo1":-88.7671,"lo2":-86.6584,"dy":0.0162,"dx":0.0185,"nx":115,"ny":88,"refTime":"2023-03-04T06:00:00:Z","depth":0,"parameterNumber":3,"parameterNumberName":"V-component_of_WINDS"},"data":[0.0,0.0,0.0,0.0,0.0,0.0,0.0,0.0,0.0,0.0,0.0,0.0,0.0,0.0,0.0,0.0,0.0,0.0,0.0,0.0,0.0,0.0,0.0,0.0,0.0,0.0,0.0,0.0,0.0,0.0,0.0,0.0,0.0,0.0,0.0,0.0,0.0,0.0,0.0,0.0,0.0,0.0,0.0,0.0,0.0,0.0,0.0,0.0,0.0,0.0,0.0,0.0,0.0,0.0,0.0,0.0,0.0,0.0,0.0,0.0,0.0,0.0,0.0,0.0,0.0,0.0,0.0,0.0,0.0,0.0,0.0,0.0,0.0,0.0,0.0,0.0,0.0,0.0,0.0,0.0,0.0,0.0,0.0,0.0,0.0,0.0,0.0,0.0,0.0,0.0,0.0,0.0,0.0,0.0,0.0,0.0,0.0,0.0,0.0,0.0,0.0,0.0,0.0,0.0,0.0,0.0,0.0,0.0,0.0,0.0,0.0,0.0,0.0,0.0,0.0,0.0,0.0,0.0,0.0,0.0,0.0,0.0,0.0,0.0,0.0,0.0,0.0,0.0,0.0,0.0,0.0,0.0,0.0,0.0,0.0,0.0,0.0,0.0,0.0,0.0,0.0,0.0,0.0,0.0,0.0,0.0,0.0,0.0,0.0,0.0,0.0,0.0,0.0,0.0,0.0,0.0,0.0,0.0,0.0,0.0,0.0,0.0,0.0,0.0,0.0,0.0,0.0,0.0,0.0,0.0,0.0,0.0,0.0,0.0,0.0,0.0,0.0,0.0,0.0,0.0,0.0,0.0,0.0,0.0,0.0,0.0,0.0,0.0,0.0,0.0,0.0,0.0,0.0,0.0,0.0,0.0,0.0,0.0,0.0,0.0,0.0,0.0,0.0,0.0,0.0,0.0,0.0,0.0,0.0,0.0,0.0,0.0,0.0,0.0,0.0,0.0,0.0,0.0,0.0,0.0,0.0,0.0,0.0,0.0,0.0,0.0,0.0,0.0,0.0,0.0,0.0,0.0,0.0,0.0,0.0,0.0,0.0,0.0,0.0,0.0,0.0,0.0,0.0,0.0,0.0,0.0,0.0,0.0,0.0,0.0,0.0,0.0,0.0,0.0,0.0,0.0,0.0,0.0,0.0,0.0,0.0,0.0,0.0,0.0,0.0,0.0,0.0,0.0,0.0,0.0,0.0,0.0,0.0,0.0,0.0,0.0,0.0,0.0,0.0,0.0,0.0,0.0,0.0,0.0,0.0,0.0,0.0,0.0,0.0,0.0,0.0,0.0,0.0,0.0,0.0,0.0,0.0,0.0,0.0,0.0,0.0,0.0,0.0,0.0,0.0,0.0,0.0,0.0,0.0,0.0,0.0,0.0,0.0,0.0,0.0,0.0,0.0,0.0,0.0,0.0,0.0,0.0,0.0,0.0,0.0,0.0,0.0,0.0,0.0,0.0,0.0,0.0,0.0,0.0,0.0,0.0,0.0,0.0,0.0,0.0,0.0,0.0,0.0,0.0,0.0,0.0,0.0,0.0,0.0,0.0,0.0,0.0,0.0,0.0,0.0,0.0,0.0,0.0,0.0,0.0,0.0,0.0,0.0,0.0,0.0,0.0,0.0,0.0,0.0,0.0,0.0,0.0,0.0,0.0,0.0,0.0,0.0,0.0,0.0,0.0,0.0,0.0,0.0,0.0,0.0,0.0,0.0,0.0,0.0,0.0,0.0,0.0,0.0,0.0,0.0,0.0,0.0,0.0,0.0,0.0,0.0,0.0,0.0,0.0,0.0,0.0,0.0,0.0,0.0,0.0,0.0,0.0,0.0,0.0,0.0,0.0,0.0,0.0,0.0,0.0,0.0,0.0,0.0,0.0,0.0,0.0,0.0,0.0,0.0,0.0,0.0,0.0,0.0,0.0,0.0,0.0,0.0,0.0,0.0,0.0,0.0,0.0,0.0,0.0,0.0,0.0,0.0,0.0,0.0,0.0,0.0,0.0,0.0,0.0,0.0,0.0,0.0,0.0,0.0,0.0,0.0,0.0,0.0,0.0,0.0,0.0,0.0,0.0,0.0,0.0,0.0,0.0,0.0,0.0,0.0,0.0,0.0,0.0,0.0,0.0,0.0,0.0,0.0,0.0,0.0,0.0,0.0,0.0,0.0,0.0,0.0,0.0,0.0,0.0,0.0,0.0,0.0,0.0,0.0,0.0,0.0,0.0,0.0,0.0,0.0,0.0,0.0,0.0,0.0,0.0,0.0,0.0,0.0,0.0,0.0,0.0,0.0,0.0,0.0,0.0,0.0,0.0,0.0,0.0,0.0,0.0,0.0,0.0,0.0,0.0,0.0,0.0,0.0,0.0,0.0,0.0,0.0,0.0,0.0,0.0,0.0,0.0,0.0,0.0,0.0,0.0,0.0,0.0,0.0,0.0,0.0,0.0,0.0,0.0,0.0,0.0,0.0,0.0,0.0,0.0,0.0,0.0,0.0,0.0,0.0,0.0,0.0,0.0,0.0,0.0,0.0,0.0,0.0,0.0,0.0,0.0,0.0,0.0,0.0,0.0,0.0,0.0,0.0,0.0,0.0,0.0,0.0,0.0,0.0,0.0,0.0,0.0,0.0,0.0,0.0,0.0,0.0,0.0,0.0,0.0,0.0,0.0,0.0,0.0,0.0,0.0,0.0,0.0,0.0,0.0,0.0,0.0,0.0,0.0,0.0,0.0,0.0,0.0,0.0,0.0,0.0,0.0,0.0,0.0,0.0,0.0,0.0,0.0,0.0,0.0,0.0,0.0,0.0,0.0,0.0,0.0,0.0,0.0,0.0,0.0,0.0,0.0,0.0,0.0,0.0,0.0,0.0,0.0,0.0,0.0,0.0,0.0,0.0,0.0,0.0,0.0,0.0,0.0,0.0,0.0,0.0,0.0,0.0,0.0,0.0,0.0,0.0,0.0,0.0,0.0,0.0,0.0,0.0,0.0,0.0,0.0,0.0,0.0,0.0,0.0,0.0,0.0,0.0,0.0,0.0,0.0,0.0,0.0,0.0,0.0,0.0,0.0,0.0,0.0,0.0,0.0,0.0,0.0,0.0,0.0,0.0,0.0,0.0,0.0,0.0,0.0,0.0,0.0,0.0,0.0,0.0,0.0,0.0,0.0,0.0,0.0,0.0,0.0,0.0,0.0,0.0,0.0,0.0,0.0,0.0,0.0,0.0,0.0,0.0,0.0,0.0,0.0,0.0,0.0,0.0,0.0,0.0,0.0,0.0,0.0,0.0,0.0,0.0,0.0,0.0,0.0,0.0,0.0,0.0,0.0,0.0,0.0,0.0,0.0,0.0,0.0,0.0,0.0,0.0,0.0,0.0,0.0,0.0,0.0,0.0,0.0,0.0,0.0,0.0,0.0,0.0,0.0,0.0,0.0,0.0,0.0,0.0,0.0,0.0,0.0,0.0,0.0,0.0,0.0,0.0,0.0,0.0,0.0,0.0,0.0,0.0,0.0,0.0,0.0,0.0,0.0,0.0,0.0,0.0,0.0,0.0,0.0,0.0,0.0,0.0,0.0,0.0,0.0,0.0,0.0,0.0,0.0,0.0,0.0,0.0,0.0,0.0,0.0,0.0,0.0,0.0,0.0,0.0,0.0,0.0,0.0,0.0,0.0,0.0,0.0,0.0,0.0,0.0,0.0,0.0,0.0,0.0,0.0,0.0,0.0,0.0,0.0,0.0,0.0,0.0,0.0,0.0,0.0,0.0,0.0,0.0,0.0,0.0,0.0,0.0,0.0,0.0,0.0,0.0,0.0,0.0,0.0,0.0,0.0,0.0,0.0,0.0,0.0,0.0,0.0,0.0,0.0,0.0,0.0,0.0,0.0,0.0,0.0,0.0,0.0,0.0,0.0,0.0,0.0,0.0,0.0,0.0,0.0,0.0,0.0,0.0,0.0,0.0,0.0,0.0,0.0,0.0,0.0,0.0,0.0,0.0,0.0,0.0,0.0,0.0,0.0,0.0,0.0,0.0,0.0,0.0,0.0,0.0,0.0,0.0,0.0,0.0,0.0,0.0,0.0,0.0,0.0,0.0,0.0,0.0,0.0,0.0,0.0,0.0,0.0,0.0,0.0,0.0,0.0,0.0,0.0,0.0,0.0,0.0,0.0,0.0,0.0,0.0,0.0,0.0,0.0,0.0,0.0,0.0,0.0,0.0,0.0,0.0,0.0,0.0,0.0,0.0,0.0,0.0,0.0,0.0,0.0,0.0,0.0,0.0,0.0,0.0269,0.0,0.0,0.0,0.0,0.0,0.0,0.0,0.0,0.0,0.0,0.0,0.0,0.0,0.0,0.0,0.0,0.0,0.0,0.0,0.0,0.0,0.0,0.0,0.0,0.0,0.0,0.0,0.0,0.0,0.0,0.0,0.0,0.0,0.0,0.0,0.0,0.0,0.0,0.0,0.0,0.0,0.0,0.0,0.0,0.0,0.0,0.0,0.0,0.0,0.0,0.0,0.0,0.0,0.0,0.0,0.0,0.0,0.0,0.0,0.0,0.0,0.0,0.0,0.0,0.0,0.0,0.0,0.0,0.0,0.0,0.0,0.0,0.0,0.0,0.0,0.0,0.0,0.0,0.0,0.0,0.0,0.0,0.0,0.0,0.0,0.0,0.0,0.0,0.0,0.0,0.0,0.0,0.0,0.0,0.0,0.0,0.0,0.0,0.0,0.0,0.0,0.0,0.0,0.0,0.0,0.0,0.0,0.0,0.0,0.0,0.1089,0.1077,0.0635,0.0408,0.0404,0.0,0.0,0.0,0.0,0.0,0.0,0.0,0.0,0.0,0.0,0.0,0.0,0.0,0.0,0.0,0.0,0.0,0.0,0.0,0.0,0.0,0.0,0.0,0.0,0.0,0.0,0.0,0.0,0.0,0.0,0.0,0.0,0.0,0.0,0.0,0.0,0.0,0.0,0.0,0.0,0.0,0.0,0.0,0.0,0.0,0.0,0.0,0.0,0.0,0.0,0.0,0.0,0.0,0.0,0.0,0.0,0.0,0.0,0.0,0.0,0.0,0.0,0.0,0.0,0.0,0.0,0.0,0.0,0.0,0.0,0.0,0.0,0.0,0.0,0.0,0.0,0.0,0.0,0.0,0.0,0.0,0.0,0.0,0.0,0.0,0.0,0.0,0.0,0.0,0.0,0.0,0.0,0.0,0.0,0.0,0.0,0.0,0.0,0.0,0.0,0.0,0.0,0.0,0.0,0.0,0.0,0.0,0.0,0.0,0.0,0.0,0.0,0.078,0.0459,0.0316,0.0,0.0,0.0,0.0,0.0,0.0,0.0,0.0,0.0,0.0,0.0,0.0,0.0,0.0,0.0,0.0,0.0,0.0,0.0,0.0,0.0,0.0,0.0,0.0,0.0,0.0,0.0,0.0,0.0,0.0,0.0,0.0,0.0,0.0,0.0,0.0,0.0,0.0,0.0,0.0,0.0,0.0,0.0,0.0,0.0,0.0,0.0,0.0,0.0,0.0,0.0,0.0,0.0,0.0,0.0,0.0,0.0,0.0,0.0,0.0,0.0,0.0,0.0,0.0,0.0,0.0,0.0,0.0,0.0,0.0,0.0,0.0,0.0,0.0,0.0,0.0,0.0,0.0,0.0,0.0,0.0,0.0,0.0,0.0,0.0,0.0,0.0,0.0,0.0,0.0,0.0,0.0,0.0,0.0,0.0,0.0,0.0,0.0,0.0,0.0,0.0,0.0,0.0,0.0,0.0,0.0,0.0,0.0,0.0,0.0,0.2041,0.1845,0.1294,0.0,0.0046,0.0,0.0,0.0,0.0,0.0,0.0,0.0,0.0,0.0,0.0,0.0,0.0,0.0,0.0,0.0,0.0,0.0,0.0,0.0,0.0,0.0,0.0,0.0,0.0,0.0,0.0,0.0,0.0,0.0,0.0,0.0,0.0,0.0,0.0,0.0,0.0,0.0,0.0,0.0,0.0,0.0,0.0,0.0,0.0,0.0,0.0,0.0,0.0,0.0,0.0,0.0,0.0,0.0,0.0,0.0,0.0,0.0,0.0,0.0,0.0,0.0,0.0,0.0,0.0,0.0,0.0,0.0,0.0,0.0,0.0,0.0,0.0,0.0,0.0,0.0,0.0,0.0,0.0,0.0,0.0,0.0,0.0,0.0,0.0,0.0,0.0,0.0,0.0,0.0,0.0,0.0,0.0,0.0,0.0,0.0,0.0,0.0,0.0,0.0,0.0,0.0,0.0,0.0,0.0,0.0,0.0,0.0,0.0,0.0,0.0,0.2085,0.185,0.1249,0.069,0.0,0.0,0.0,0.0,0.0,0.0,0.0,0.0,0.0,0.0,0.0,0.0,0.0,0.0,0.0,0.0,0.0,0.0,0.0,0.0,0.0,0.0,0.0,0.0,0.0,0.0,0.0,0.0,0.0,0.0,0.0,0.0,0.0,0.0,0.0,0.0,0.0,0.0,0.0,0.0,0.0,0.0,0.0,0.0,0.0,0.0,0.0,0.0,0.0,0.0,0.0,0.0,0.0,0.0,0.0,0.0,0.0,0.0,0.0,0.0,0.0,0.0,0.0,0.0,0.0,0.0,0.0,0.0,0.0,0.0,0.0,0.0,0.0,0.0,0.0,0.0,0.0,0.0,0.0,0.0,0.0,0.0,0.0,0.0,0.0,0.0,0.0,0.0,0.0,0.0,0.0,0.0,0.0,0.0,0.0,0.0,0.0,0.0,0.0,0.0,0.0,0.0,0.0,0.0,0.0,0.0,0.0,0.0,0.0,0.0,0.2405,0.2239,0.1817,0.1246,0.0776,0.0407,0.0,0.0,0.0,0.0,0.0,0.0,0.0,0.0,0.0,0.0,0.0,0.0,0.0,0.0,0.0,0.0,0.0,0.0,0.0,0.0,0.0,0.0,0.0,0.0,0.0,0.0,0.0,0.0,0.0,0.0,0.0,0.0,0.0,0.0,0.0,0.0,0.0,0.0,0.0,0.0,0.0,0.0,0.0,0.0,0.0,0.0,0.0,0.0,0.0,0.0,0.0,0.0,0.0,0.0,0.0,0.0,0.0,0.0,0.0,0.0,0.0,0.0,0.0,0.0,0.0,0.0,0.0,0.0,0.0,0.0,0.0,0.0,0.0,0.0,0.0,0.0,0.0,0.0,0.0,0.0,0.0,0.0,0.0,0.0,0.0,0.0,0.0,0.0,0.0,0.0,0.0,0.0,0.0,0.0,0.0,0.0,0.0,0.0,0.0,0.0,0.0,0.0,0.0,0.0,0.0,0.0,0.0,0.0,0.2653,0.2841,0.2611,0.1949,0.1559,0.1087,0.0,0.0,0.0,0.0,0.0,0.0,0.0,0.0,0.0,0.0,0.0,0.0,0.0,0.0,0.0,0.0,0.0,0.0,0.0,0.0,0.0,0.0,0.0,0.0,0.0,0.0,0.0,0.0,0.0,0.0,0.0,0.0,0.0,0.0,0.0,0.0,0.0,0.0,0.0,0.0,0.0,0.0,0.0,0.0,0.0,0.0,0.0,0.0,0.0,0.0,0.0,0.0,0.0,0.0,0.0,0.0,0.0,0.0,0.0,0.0,0.0,0.0,0.0,0.0,0.0,0.0,0.0,0.0,0.0,0.0,0.0,0.0,0.0,0.0,0.0,0.0,0.0,0.0,0.0,0.0,0.0,0.0,0.0,0.0,0.0,0.0,0.0,0.0,0.0,0.0,0.0,0.0,0.0,0.0,0.0,0.0,0.0,0.0,0.0,0.0,0.0,0.0,0.0,0.0,0.0,0.0,0.0,0.0,0.0,0.28,0.2768,0.2615,0.2425,0.1811,0.1285,0.0,0.0,0.0,0.0,0.0,0.0,0.0,0.0,0.0,0.0,0.0,0.0,0.0,0.0,0.0,0.0,0.0,0.0,0.0,0.0,0.0,0.0,0.0,0.0,0.0,0.0,0.0,0.0,0.0,0.0,0.0,0.0,0.0,0.0,0.0,0.0,0.0,0.0,0.0,0.0,0.0,0.0,0.0,0.0,0.0,0.0,0.0,0.0,0.0,0.0,0.0,0.0,0.0,0.0,0.0,0.0,0.0,0.0,0.0,0.0,0.0,0.0,0.0,0.0,0.0,0.0,0.0,0.0,0.0,0.0,0.0,0.0,0.0,0.0,0.0,0.0,0.0,0.0,0.0,0.0,0.0,0.0,0.0,0.0,0.0,0.0,0.0,0.0,0.0,0.0,0.0,0.0,0.0,0.0,0.0,0.0,0.0,0.0,0.0,0.0,0.0,0.0,0.0,0.0,0.0,0.0,0.0,0.0,0.0,0.3164,0.0,0.2888,0.2807,0.2104,0.1568,0.0,0.0,0.0,0.0,0.0,0.0,0.0,0.0,0.0,0.0,0.0,0.0,0.0,0.0,0.0,0.0,0.0,0.0,0.0,0.0,0.0,0.0,0.0,0.0,0.0,0.0,0.0,0.0,0.0,0.0,0.0,0.0,0.0,0.0,0.0,0.0,0.0,0.0,0.0,0.0,0.0,0.0,0.0,0.0,0.0,0.0,0.0,0.0,0.0,0.0,0.0,0.0,0.0,0.0,0.0,0.0,0.0,0.0,0.0,0.0,0.0,0.0,0.0,0.0,0.0,0.0,0.0,0.0,0.0,0.0,0.0,0.0,0.0,0.0,0.0,0.0,0.0,0.0,0.0,0.0,0.0,0.0,0.0,0.0,0.0,0.0,0.0,0.0,0.0,0.0,0.0,0.0,0.0,0.0,0.0,0.0,0.0,0.0,0.0,0.0,0.0,0.0,0.0,0.0,0.0,0.0,0.0,0.0,0.3236,0.3764,0.3589,0.3349,0.3101,0.2527,0.1835,0.0,0.0,0.0,0.0,0.0,0.0,0.0,0.0,0.0,0.0,0.0,0.0,0.0,0.0,0.0,0.0,0.0,0.0,0.0,0.0,0.0,0.0,0.0,0.0,0.0,0.0,0.0,0.0,0.0,0.0,0.0,0.0,0.0,0.0,0.0,0.0,0.0,0.0,0.0,0.0,0.0,0.0,0.0,0.0,0.0,0.0,0.0,0.0,0.0,0.0,0.0,0.0,0.0,0.0,0.0,0.0,0.0,0.0,0.0,0.0,0.0,0.0,0.0,0.0,0.0,0.0,0.0,0.0,0.0,0.0,0.0,0.0,0.0,0.0,0.0,0.0,0.0,0.0,0.0,0.0,0.0,0.0,0.0,0.0,0.0,0.0,0.0,0.0,0.0,0.0,0.0,0.0,0.0,0.0,0.0,0.0,0.0,0.0,0.0,0.0,0.0,0.0,0.0,0.0,0.0,0.0,0.0,0.0,0.0,0.374,0.3572,0.3498,0.3415,0.28,0.2151,0.0,0.0,0.0,0.0,0.0,0.0,0.0,0.0,0.0,0.0,0.0,0.0,0.0,0.0,0.0,0.0,0.0,0.0,0.0,0.0,0.0,0.0,0.0,0.0,0.0,0.0,0.0,0.0,0.0,0.0,0.0,0.0,0.0,0.0,0.0,0.0,0.0,0.0,0.0,0.0,0.0,0.0,0.0,0.0,0.0,0.0,0.0,0.0,0.0,0.0,0.0,0.0,0.0,0.0,0.0,0.0,0.0,0.0,0.0,0.0,0.0,0.0,0.0,0.0,0.0,0.0,0.0,0.0,0.0,0.0,0.0,0.0,0.0,0.0,0.0,0.0,0.0,0.0,0.0,0.0,0.0,0.0,0.0,0.0,0.0,0.0,0.0,0.0,0.0,0.0,0.0,0.0,0.0,0.0,0.0,0.0,0.0,0.0,0.0,0.0,0.0,0.0,0.0,0.0,0.0,0.0,0.0,0.0,0.0,0.3427,0.3325,0.3255,0.3162,0.2465,0.192,0.163,0.0,0.0,0.0,0.0,0.0,0.0,0.0,0.0,0.0,0.0,0.0,0.0,0.0,0.0,0.0,0.0,0.0,0.0,0.0,0.0,0.0,0.0,0.0,0.0,0.0,0.0,0.0,0.0,0.0,0.0,0.0,0.0,0.0,0.0,0.0,0.0,0.0,0.0,0.0,0.0,0.0,0.0,0.0,0.0,0.0,0.0,0.0,0.0,0.0,0.0,0.0,0.0,0.0,0.0,0.0,0.0,0.0,0.0,0.0,0.0,0.0,0.0,0.0,0.0,0.0,0.0,0.0,0.0,0.0,0.0,0.0,0.0,0.0,0.0,0.0,0.0,0.0,0.0,0.0,0.0,0.0,0.0,0.0,0.0,0.0,0.0,0.0,0.0,0.0,0.0,0.0,0.0,0.0,0.0,0.0,0.0,0.0,0.0,0.0,0.0,0.0,0.0,0.0,0.0,0.0,0.0,0.0,0.0,0.2912,0.2833,0.262,0.2335,0.164,0.1299,0.0,0.0,0.0,0.0,0.0,0.0,0.0,0.0,0.0,0.0,0.0,0.0,0.0,0.0,0.0,0.0,0.0,0.0,0.0,0.0,0.0,0.0,0.0,0.0,0.0,0.0,0.0,0.0,0.0,0.0,0.0,0.0,0.0,0.0,0.0,0.0,0.0,0.0,0.0,0.0,0.0,0.0,0.0,0.0,0.0,0.0,0.0,0.0,0.0,0.0,0.0,0.0,0.0,0.0,0.0,0.0,0.0,0.0,0.0,0.0,0.0,0.0,0.0,0.0,0.0,0.0,0.0,0.0,0.0,0.0,0.0,0.0,0.0,0.0,0.0,0.0,0.0,0.0,0.0,0.0,0.0,0.0,0.0,0.0,0.0,0.0,0.0,0.0,0.0,0.0,0.0,0.0,0.0,0.0,0.0,0.0,0.0,0.0,0.0,0.0,0.0,0.0,0.0,0.0,0.0,0.0,0.0,0.0,0.0,0.2219,0.1469,0.1197,0.1571,0.1489,0.1199,0.0,0.0,0.0,0.0,0.0,0.0,0.0,0.0,0.0,0.0,0.0,0.0,0.0,0.0,0.0,0.0,0.0,0.0,0.0,0.0,0.0,0.0,0.0,0.0,0.0,0.0,0.0,0.0,0.0,0.0,0.0,0.0,0.0,0.0,0.0,0.0,0.0,0.0,0.0,0.0,0.0,0.0,0.0,0.0,0.0,0.0,0.0,0.0,0.0,0.0,0.0,0.0,0.0,0.0,0.0,0.0,0.0,0.0,0.0,0.0,0.0,0.0,0.0,0.0,0.0,0.0,0.0,0.0,0.0,0.0,0.0,0.0,0.0,0.0,0.0,0.0,0.0,0.0,0.0,0.0,0.0,0.0,0.0,0.0,0.0,0.0,0.0,0.0,0.0,0.0,0.0,0.0,0.0,0.0,0.0,0.0,0.0,0.0,0.0,0.0,0.0,0.0,0.0,0.0,0.0,0.0,0.0,0.0,0.2565,0.217,0.0701,0.0094,0.0564,0.0767,0.0768,0.0,0.0,0.0,0.0,0.0,0.0,0.0,0.0,0.0,0.0,0.0,0.0,0.0,0.0,0.0,0.0,0.0,0.0,0.0,0.0,0.0,0.0,0.0,0.0,0.0,0.0,0.0,0.0,0.0,0.0,0.0,0.0,0.0,0.0,0.0,0.0,0.0,0.0,0.0,0.0,0.0,0.0,0.0,0.0,0.0,0.0,0.0,0.0,0.0,0.0,0.0,0.0,0.0,0.0,0.0,0.0,0.0,0.0,0.0,0.0,0.0,0.0,0.0,0.0,0.0,0.0,0.0,0.0,0.0,0.0,0.0,0.0,0.0,0.0,0.0,0.0,0.0,0.0,0.0,0.0,0.0,0.0,0.0,0.0,0.0,0.0,0.0,0.0,0.0,0.0,0.0,0.0,0.0,0.0,0.0,0.0,0.0,0.0,0.0,0.0,0.0,0.0,0.0,0.0,0.0,0.0,0.0,0.0,0.2081,0.2448,0.0416,-0.0555,-0.037,-0.0095,0.0237,0.0,0.0,0.0,0.0,0.0,0.0,0.0,0.0,0.0,0.0,0.0,0.0,0.0,0.0,0.0,0.0,0.0,0.0,0.0,0.0,0.0,0.0,0.0,0.0,0.0,0.0,0.0,0.0,0.0,0.0,0.0,0.0,0.0,0.0,0.0,0.0,0.0,0.0,0.0,0.0,0.0,0.0,0.0,0.0,0.0,0.0,0.0,0.0,0.0,0.0,0.0,0.0,0.0,0.0,0.0,0.0,0.0,0.0,0.0,0.0,0.0,0.0,0.0,0.0,0.0,0.0,0.0,0.0,0.0,0.0,0.0,0.0,0.0,0.0,0.0,0.0,0.0,0.0,0.0,0.0,0.0,0.0,0.0,0.0,0.0,0.0,0.0,0.0,0.0,0.0,0.0,0.0,0.0,0.0,0.0,0.0,0.0,0.0,0.0,0.0,0.0,0.0,0.0,0.0,0.0,0.0,0.0,0.0,0.2398,0.1803,0.0648,0.0,-0.0093,0.0192,0.0288,0.0,0.0,0.0,0.0,0.0,0.0,0.0,0.0,0.0,0.0,0.0,0.0,0.0,0.0,0.0,0.0,0.0,0.0,0.0,0.0,0.0,0.0,0.0,0.0,0.0,0.0,0.0,0.0,0.0,0.0,0.0,0.0,0.0,0.0,0.0,0.0,0.0,0.0,0.0,0.0,0.0,0.0,0.0,0.0,0.0,0.0,0.0,0.0,0.0934,0.0,0.0,0.0,0.0,0.0,0.0,0.0,0.0,0.0,0.0,0.0,0.0,0.0,0.0,0.0,0.0,0.0,0.0,0.0,0.0,0.0,0.0,0.0,0.0,0.0,0.0,0.0,0.0,0.0,0.0,0.0,0.0,0.0,0.0,0.0,0.0,0.0,0.0,0.0,0.0,0.0,0.0,0.0,0.0,0.0,0.0,0.0,0.0,0.0,0.0,0.0,0.0,0.0,0.0,0.0,0.0,0.0,0.0,0.0,0.2639,0.2005,0.1058,0.0464,0.0328,0.0479,0.0477,0.0,0.0,0.0,0.0,0.0,0.0,0.0,0.0,0.0,0.0,0.0,0.0,0.0,0.0,0.0,0.0,0.0,0.0,0.0,0.0,0.0,0.0,0.0,0.0,0.0,0.0,0.0,0.0,0.0,0.0,0.0,0.0,0.0,0.0,0.0,0.0,0.0,0.0,0.0,0.0,0.0,0.0,0.0,0.0,0.0,0.0,0.0,0.0,0.0,0.0,0.0,0.0,0.0,0.0,0.0,0.0,0.0,0.0,0.0,0.0,0.0,0.0,0.0,0.0,0.0,0.0,0.0,0.0,0.0,0.0,0.0,0.0,0.0,0.0,0.0,0.0,0.0,0.0,0.0,0.0,0.0,0.0,0.0,0.0,0.0,0.0,0.0,0.0,0.0,0.0,0.0,0.0,0.0,0.0,0.0,0.0,0.0,0.0,0.0,0.0,0.0,0.0,0.0,0.0,0.0,0.0,0.0,0.347,0.2837,0.2289,0.1373,0.0841,0.0715,0.0811,0.0758,0.0467,0.0,0.0,0.0,0.0,0.0,0.0,0.0,0.0,0.0,0.0,0.0,0.0,0.0,0.0,0.0,0.0,0.0,0.0,0.0,0.0,0.0,0.0,0.0,0.0,0.0,0.0,0.0,0.0,0.0,0.0,0.0,0.0,0.0,0.0,0.0,0.0,0.0,0.0,0.3522,0.3369,0.0,0.0,0.0,0.0,0.0,0.0,0.0,0.0,0.1523,0.0,0.0,0.0,0.0,0.0,0.0,0.0,0.0,0.0,0.0,0.0,0.0,0.0,0.0,0.0,0.0,0.0,0.0,0.0,0.0,0.0,0.0,0.0,0.0,0.0,0.0,0.0,0.0,0.0,0.0,0.0,0.0,0.0,0.0,0.0,0.0,0.0,0.0,0.0,0.0,0.0,0.0,0.0,0.0,0.0,0.0,0.0,0.0,0.0,0.0,0.0,0.0,0.0,0.0,0.0,0.0,0.3407,0.3585,0.2925,0.1391,0.1373,0.1168,0.0715,0.1001,0.1007,0.0728,0.0,0.0,0.0,0.0,0.0,0.0,0.0,0.0,0.0,0.0,0.0,0.0,0.0,0.0,0.0,0.0,0.0,0.0,0.0,0.0,0.0,0.0,0.0,0.0,0.0,0.0,0.0,0.0,0.0,0.0,0.0,0.0,0.0,0.0,0.0,0.0,0.0,0.0,0.0,0.5053,0.4881,0.0,0.0,0.0,0.0,0.0,0.0,0.0,0.0,0.331,0.0,0.0,0.0,0.0,0.0,0.0,0.0,0.0,0.0,0.0,0.0,0.0,0.0,0.0,0.0,0.0,0.0,0.0,0.0,0.0,0.0,0.0,0.0,0.0,0.0,0.0,0.0,0.0,0.0,0.0,0.0,0.0,0.0,0.0,0.0,0.0,0.0,0.0,0.0,0.0,0.0,0.0,0.0,0.0,0.0,0.0,0.0,0.0,0.0,0.0,0.0,0.0,0.0,0.0,0.0,0.3561,0.3339,0.2607,0.1303,0.1419,0.1308,0.0905,0.1097,0.1112,0.0,0.0,0.0,0.0,0.0,0.0,0.0,0.0,0.0,0.0,0.0,0.0,0.0,0.0,0.0,0.0,0.0,0.0,0.0,0.0,0.0,0.0,0.0,0.0,0.0,0.0,0.0,0.0,0.0,0.0,0.0,0.0,0.0,0.0,0.0,0.0,0.0,0.0,0.0,0.0,0.6269,0.6218,0.5854,0.0,0.0,0.0,0.0,0.0,0.0,0.4391,0.4236,0.0,0.0,0.0,0.0,0.0,0.0,0.0,0.0,0.0,0.0,0.0,0.0,0.0,0.0,0.0,0.0,0.0,0.0,0.0,0.0,0.0,0.0,0.0,0.0,0.0,0.0,0.0,0.0,0.0,0.0,0.0,0.0,0.0,0.0,0.0,0.0,0.0,0.0,0.0,0.0,0.0,0.0,0.0,0.0,0.0,0.0,0.0,0.0,0.0,0.0,0.0,0.0,0.0,0.0,0.0,0.4137,0.3331,0.2517,0.1661,0.1556,0.1355,0.1096,0.1293,0.1317,0.0,0.0,0.0,0.0,0.0,0.0,0.0,0.0,0.0,0.0,0.0,0.0,0.0,0.0,0.0,0.0,0.0,0.0,0.0,0.0,0.0,0.0,0.0,0.0,0.0,0.0,0.0,0.0,0.0,0.0,0.0,0.0,0.0,0.0,0.0,0.0,0.0,0.0,0.0,0.0,0.0,0.7523,0.7269,0.6953,0.0,0.0,0.0,0.0,0.5538,0.5471,0.0,0.0,0.0,0.0,0.0,0.0,0.0,0.0,0.0,0.0,0.0,0.0,0.0,0.0,0.0,0.0,0.0,0.0,0.0,0.0,0.0,0.0,0.0,0.0,0.0,0.0,0.0,0.0,0.0,0.0,0.0,0.0,0.0,0.0,0.0,0.0,0.0,0.0,0.0,0.0,0.0,0.0,0.0,0.0,0.0,0.0,0.0,0.0,0.0,0.0,0.0,0.0,0.0,0.0,0.0,0.0,0.52,0.4189,0.3246,0.2424,0.183,0.1355,0.1096,0.1649,0.1682,0.0,0.0,0.0,0.0,0.0,0.0,0.0,0.0,0.0,0.0,0.0,0.0,0.0,0.0,0.0,0.0,0.0,0.0,0.0,0.0,0.0,0.0,0.0,0.0,0.0,0.0,0.0,0.0,0.0,0.0,0.0,0.0,0.0,0.0,0.0,0.0,0.0,0.0,0.0,0.0,0.0,0.9131,0.8421,0.8084,0.7567,0.0,0.0,0.7623,0.6977,0.7724,0.0,0.0,0.0,0.0,0.0,0.0,0.0,0.0,0.0,0.0,0.0,0.0,0.0,0.0,0.0,0.0,0.0,0.0,0.0,0.0,0.0,0.0,0.0,0.0,0.0,0.0,0.0,0.0,0.0,0.0,0.0,0.0,0.0,0.0,0.0,0.0,0.0,0.0,0.0,0.0,0.0,0.0,0.0,0.0,0.0,0.0,0.0,0.0,0.0,0.0,0.0,0.0,0.0,0.0,0.0,0.5435,0.5278,0.4215,0.3522,0.3135,0.2846,0.2521,0.2153,0.258,0.2485,0.0,0.0,0.0,0.0,0.0,0.0,0.0,0.0,0.0,0.0,0.0,0.0,0.0,0.0,0.0,0.0,0.0,0.0,0.0,0.0,0.0,0.0,0.0,0.0,0.0,0.0,0.0,0.0,0.0,0.0,0.0,0.0,0.0,0.0,0.0,0.0,0.0,0.0,0.0,0.0,0.0,0.0,0.9554,0.9307,0.0,0.0,0.0,0.8807,0.838,0.0,0.0,0.0,0.0,0.0,0.0,0.0,0.0,0.0,0.0,0.0,0.0,0.0,0.0,0.0,0.0,0.0,0.0,0.0,0.0,0.0,0.0,0.0,0.0,0.0,0.0,0.0,0.0,0.0,0.0,0.0,0.0,0.0,0.0,0.0,0.0,0.0,0.0,0.0,0.0,0.0,0.0,0.0,0.0,0.0,0.0,0.0,0.0,0.0,0.0,0.0,0.0,0.0,0.0,0.0,0.0,0.0,0.5535,0.4475,0.389,0.3846,0.3667,0.3435,0.3093,0.3424,0.0,0.0,0.0,0.0,0.0,0.0,0.0,0.0,0.0,0.0,0.0,0.0,0.0,0.0,0.0,0.0,0.0,0.0,0.0,0.0,0.0,0.0,0.0,0.0,0.0,0.0,0.0,0.6048,0.0,0.0,0.0,0.0,0.0,0.0,0.0,0.0,0.0,0.0,0.0,0.0,0.0,0.0,1.0646,1.0385,1.0195,1.0096,0.0,0.0,0.9709,0.957,1.0051,0.9944,0.0,0.0,0.0,0.0,0.0,0.0,0.0,0.0,0.0,0.0,0.0,0.0,0.0,0.0,0.0,0.0,0.0,0.0,0.0,0.0,0.0,0.0,0.0,0.0,0.0,0.0,0.0,0.0,0.0,0.0,0.0,0.0,0.0,0.0,0.0,0.0,0.0,0.0,0.0,0.0,0.0,0.0,0.0,0.0,0.0,0.0,0.0,0.0,0.0,0.0,0.0,0.0,0.0,0.0,0.0,0.6536,0.5283,0.465,0.4603,0.3979,0.3614,0.3551,0.407,0.3975,0.0,0.0,0.0,0.0,0.0,0.0,0.0,0.0,0.0,0.0,0.0,0.0,0.0,0.0,0.0,0.0,0.0,0.0,0.0,0.0,0.0,0.0,0.0,0.0,0.0,0.0,0.0,0.0,0.0,0.0,0.0,0.0,0.0,0.0,0.0,0.0,0.0,0.0,0.0,0.0,0.0,1.0855,1.0637,1.0585,1.0608,0.0,0.0,1.0302,1.0468,1.1267,1.1276,0.9577,0.0,0.0,0.0,0.0,0.0,0.0,0.0,0.0,0.0,0.0,0.0,0.0,0.0,0.0,0.0,0.0,0.0,0.0,0.0,0.0,0.0,0.0,0.0,0.0,0.0,0.0,0.0,0.0,0.0,0.0,0.0,0.0,0.0,0.0,0.0,0.0,0.0,0.0,0.0,0.0,0.0,0.0,0.0,0.0,0.0,0.0,0.0,0.0,0.0,0.0,0.0,0.0,0.0,0.6905,0.6914,0.6014,0.5544,0.5544,0.5275,0.4982,0.4707,0.5228,0.5097,0.0,0.0,0.0,0.0,0.0,0.0,0.0,0.0,0.0,0.0,0.0,0.0,0.0,0.0,0.0,0.0,0.0,0.0,0.0,0.0,0.0,0.0,0.0,0.0,0.0,0.0,0.0,0.0,0.9365,0.9863,0.9745,0.0,0.0,0.0,0.0,0.0,0.0,0.0,0.0,0.0,0.0,1.1846,1.2421,1.2031,0.0,0.0,1.2,1.1527,1.1234,1.1636,1.1472,0.9832,0.9515,0.0,0.0,0.0,0.0,0.0,0.0,0.0,0.0,0.0,0.0,0.0,0.0,0.0,0.0,0.0,0.0,0.0,0.0,0.0,0.0,0.0,0.0,0.0,0.0,0.0,0.0,0.0,0.0,0.0,0.0,0.0,0.0,0.0,0.0,0.0,0.0,0.0,0.0,0.0,0.0,0.0,0.0,0.0,0.0,0.0,0.0,0.0,0.0,0.0,0.0,0.0,0.0,0.7319,0.7166,0.6545,0.6171,0.6171,0.6216,0.6038,0.5727,0.6124,0.5969,0.0,0.0,0.0,0.0,0.0,0.0,0.0,0.0,0.0,0.0,0.0,0.0,0.0,0.0,0.0,0.0,0.0,0.0,0.0,0.0,0.0,0.0,0.0,0.0,0.0,0.0,0.0,0.0,1.03,1.0735,1.0741,0.0,0.0,0.0,0.0,0.0,0.0,0.0,0.0,0.0,0.0,1.309,1.3811,1.3324,1.3046,1.3491,1.2899,1.2299,1.1997,1.2072,1.1836,1.0853,0.0,0.0,0.0,0.0,0.0,0.0,0.0,0.0,0.0,0.0,0.0,0.0,0.0,0.0,0.0,0.0,0.0,0.0,0.0,0.0,0.0,0.0,0.0,0.0,0.0,0.0,0.0,0.0,0.0,0.0,0.0353,0.0,0.0,0.0,0.0,0.0,0.0,0.0,0.0,0.0,0.0,0.0,0.0,0.0,0.0,0.0,0.0,0.0,0.0,0.0,0.0,0.0,0.0,0.7415,0.7412,0.6767,0.6387,0.639,0.6387,0.6384,0.6384,0.6662,0.6514,0.5909,0.0,0.0,0.0,0.0,0.0,0.0,0.0,0.0,0.0,0.0,0.0,0.0,0.0,0.0,0.0,0.0,0.0,0.0,0.0,0.0,0.0,0.0,0.0,0.0,0.0,0.0,0.9842,1.0361,1.1012,0.0,0.0,0.0,0.0,0.0,0.0,0.0,0.0,0.0,0.0,1.4029,1.4579,1.44,1.4141,1.3818,1.3519,1.2881,1.2491,1.2668,1.2699,1.2735,0.0,0.0,0.0,0.0,0.0,0.0,0.0,0.0,0.0,0.0,0.0,0.0,0.0,0.0,0.0,0.0,0.0,0.0,0.0,0.0,0.0,0.0,0.0,0.0,0.0,0.0,0.0,0.0201,0.0496,0.0,0.0,0.0,0.0,0.0,0.0,0.0,0.0,0.0,0.0,0.0,0.466,0.5045,0.0,0.0,0.0,0.0,0.0,0.0,0.0,0.0,0.0,0.0,0.0,0.0,0.8108,0.7959,0.7265,0.6834,0.6792,0.6707,0.6656,0.6656,0.6877,0.6766,0.6233,0.0,0.0,0.0,0.0,0.0,0.0,0.0,0.0,0.0,0.0,0.0,0.0,0.0,0.0,0.0,0.0,0.0,0.0,0.0,0.0,0.0,0.0,0.0,0.0,0.0,1.1485,0.0,0.0,0.0,0.0,0.0,0.0,0.0,0.0,0.0,0.0,0.0,1.3852,1.4192,1.4269,1.4552,1.5171,1.4796,1.4691,0.0,0.0,0.0,0.0,0.0,0.0,0.0,0.0,0.0,0.0,0.0,0.0,0.0,0.0,1.328,1.1219,1.1127,1.1371,1.1364,0.0,0.0,0.0,0.0,0.0,0.0,0.0,0.0,0.0,0.0,0.0,0.0,0.0,0.0,0.0997,0.0,0.1682,0.0,0.0,0.0,0.0,0.0,0.0,0.0,0.0,0.4438,0.4587,0.4942,0.5275,0.5518,0.0,0.6178,0.6638,0.0,0.0,0.0,0.0,0.0,0.0,0.0,0.0,0.8633,0.8636,0.7871,0.7406,0.7363,0.7227,0.719,0.719,0.7311,0.7276,0.697,0.688,0.6724,0.0,0.0,0.0,0.0,0.0,0.0,0.0,0.0,0.0,0.0,0.0,0.0,0.0,0.0,0.0,0.0,0.0,0.0,0.0,0.0,0.0,0.0,0.0,1.2713,0.0,0.0,0.0,0.0,0.0,0.0,0.0,0.0,0.0,1.4427,1.4712,1.5138,1.5667,1.566,1.574,1.6131,0.0,0.0,0.0,0.0,0.0,0.0,0.0,1.3999,1.3861,1.3974,1.4301,1.4944,1.5501,1.591,1.591,0.0,0.0,1.3169,1.2824,1.2857,1.2857,1.2827,1.279,1.279,1.2716,1.2648,0.0,0.0,0.0,0.0,0.0,0.0,0.0,0.0,0.1484,0.1784,0.0,0.2228,0.0,0.0,0.0,0.0,0.0,0.4233,0.0,0.0,0.4478,0.4529,0.489,0.5354,0.5721,0.5904,0.629,0.6659,0.6956,0.6863,0.0,0.0,0.0,0.0,0.0,0.0,0.8934,0.9336,0.8544,0.8106,0.8068,0.799,0.79,0.7896,0.7959,0.7998,0.7986,0.7807,0.7544,0.7082,0.7587,0.0,0.0,0.0,0.0,0.0,0.0,0.0,0.0,0.0,0.0,0.0,0.0,0.0,0.0,0.0,0.0,0.0,0.0,0.0,0.0,1.3302,0.0,0.0,0.0,0.0,0.0,0.0,0.0,0.0,0.0,0.0,1.5762,1.6276,1.6944,1.7533,0.0,0.0,0.0,0.0,1.6772,1.5428,1.4817,1.4475,1.4349,1.4577,1.509,1.5904,0.0,0.0,1.6971,1.635,1.5893,1.5839,1.6324,1.6393,1.5858,1.4881,1.4231,1.4179,1.4097,1.3976,1.3984,1.4,1.3984,0.2924,0.0,0.0,0.0,0.0,0.2284,0.2686,0.3217,0.3212,0.3465,0.3871,0.3827,0.0,0.0,0.0,0.0,0.0,0.0,0.5354,0.5259,0.548,0.5521,0.5462,0.5776,0.6003,0.6048,0.6304,0.6481,0.6579,0.6853,0.7472,0.8421,0.0,0.0,0.0,0.0,0.9177,0.9084,0.8637,0.8341,0.8219,0.8042,0.7984,0.8116,0.8329,0.8427,0.8427,0.8379,0.8208,0.7881,0.8172,0.0,0.0,0.0,0.0,0.0,0.0,0.0,0.0,0.0,0.0,0.0,0.0,0.0,0.0,0.0,0.0,0.0,0.0,0.0,1.274,1.3505,1.4045,0.0,0.0,0.0,0.0,0.0,0.0,0.0,0.0,0.0,1.8175,1.7305,1.677,0.0,0.0,1.666,1.6443,1.6804,1.7057,1.6964,1.6976,0.0,0.0,1.6911,1.6688,1.6971,1.7336,1.7646,1.772,1.8017,1.8286,1.8239,1.8016,1.7803,1.7588,1.6676,1.5854,1.5703,1.5631,1.5631,1.5604,1.5433,1.5253,0.4757,0.3837,0.3332,0.3217,0.3417,0.353,0.3836,0.432,0.4213,0.4398,0.4805,0.465,0.4659,0.4771,0.4879,0.0,0.0,0.0,0.5788,0.5607,0.5939,0.5994,0.5858,0.6124,0.6213,0.6213,0.6343,0.6476,0.6697,0.7245,0.7952,0.8786,0.0,0.0,0.9664,0.9351,0.9239,0.9381,0.8858,0.8681,0.875,0.8563,0.8556,0.8767,0.8899,0.899,0.8986,0.9048,0.8996,0.8921,0.9165,0.9298,0.0,0.0,0.0,0.0,0.0,0.0,0.0,0.0,0.0,0.0,0.0,1.1049,0.0,0.0,0.0,0.0,1.2929,1.3551,1.386,1.4674,0.0,0.0,0.0,0.0,0.0,0.0,0.0,1.8074,1.8481,1.8822,1.9086,1.8298,1.7804,1.8048,1.79,1.7651,1.7399,0.0,1.8143,1.8193,1.8193,1.8311,1.8554,1.8354,1.8118,1.8031,1.823,1.8278,1.8056,1.844,1.8815,1.8821,1.8609,1.8339,1.8234,1.7656,1.7038,1.6726,1.6586,1.6551,1.6517,1.6307,1.6105,0.6237,0.5997,0.4647,0.4237,0.4508,0.4551,0.4652,0.4899,0.4777,0.4892,0.5144,0.4874,0.4986,0.5303,0.5591,0.0,0.5421,0.5796,0.5916,0.5808,0.6035,0.6171,0.6216,0.6378,0.646,0.6457,0.6457,0.6725,0.7173,0.79,0.8479,0.889,0.8561,0.8792,0.9532,0.92,0.9363,1.0058,0.9368,0.9183,0.9545,0.9486,0.9559,0.9777,0.9772,0.9772,0.9816,0.9862,0.9996,1.0124,1.0491,1.0755,1.0956,0.0,0.0,0.0,0.0,0.0,0.0,0.0,0.0,0.0,0.0,0.0,0.0,0.0,0.0,0.0,1.4485,0.0,1.5532,1.6332,0.0,0.0,0.0,1.8078,1.8406,1.8863,1.9184,1.9175,0.0,0.0,1.9107,1.929,1.9698,2.0313,2.0207,1.9866,1.9337,1.9584,1.973,1.9146,1.9016,1.8946,1.9233,1.9324,1.9272,1.8982,1.8989,1.871,1.8179,1.8091,1.8129,1.8421,1.8405,1.8381,1.8178,1.8221,1.8042,1.7535,1.7176,1.6943,1.6943,1.6795,1.6673,0.6113,0.6081,0.5592,0.5539,0.5679,0.5593,0.5656,0.5772,0.5637,0.564,0.5696,0.5538,0.5449,0.5363,0.5583,0.5687,0.5677,0.629,0.6557,0.6571,0.6745,0.6874,0.6871,0.681,0.6847,0.6973,0.7059,0.7232,0.7537,0.8309,0.8882,0.9134,0.9766,1.022,1.0426,1.0799,1.1027,1.0997,1.0801,1.0679,1.0627,1.0735,1.0939,1.1198,1.137,1.1413,1.1408,1.1664,1.1711,1.1549,1.1688,1.1755,1.1662,1.1861,0.0,0.0,0.0,0.0,0.0,0.0,0.0,0.0,0.0,1.3217,1.3313,0.0,1.4188,0.0,1.5198,1.607,1.6596,1.7121,0.0,0.0,1.8193,1.8619,1.87,1.9043,1.9249,1.9126,1.9603,2.0055,2.0247,2.0673,2.126,2.1966,2.0292,1.8911,1.8786,1.9773,2.0469,2.0404,2.0937,2.1634,2.188,2.1115,2.0215,1.9354,1.8904,1.8558,1.8401,1.8381,1.8506,1.8954,1.9044,1.9177,1.9507,1.9616,1.9474,1.9166,1.8216,1.7358,1.7358,1.721,1.7192,0.6296,0.6239,0.6167,0.6179,0.6202,0.6059,0.6024,0.6075,0.5956,0.5901,0.5896,0.5782,0.5686,0.5727,0.5813,0.5988,0.6213,0.6615,0.684,0.6966,0.7404,0.758,0.7621,0.7839,0.7966,0.8092,0.8139,0.8268,0.8535,0.907,0.9467,0.9719,1.0665,1.1196,1.1338,1.1481,1.1585,1.1601,1.1595,1.1452,1.1132,1.1456,1.1678,1.187,1.1963,1.1963,1.1881,1.2235,1.2426,1.248,1.2729,1.2915,1.3003,1.3009,1.3028,0.0,0.0,0.0,0.0,0.0,0.0,0.0,0.0,0.0,0.0,0.0,1.5447,1.5742,1.6482,1.7144,1.7595,1.7918,1.8321,1.887,1.9053,1.9312,1.9677,2.0104,2.0223,1.9959,2.059,2.1077,2.1104,2.1738,2.2373,2.2882,2.1833,2.0956,2.091,2.1628,2.2131,2.1927,2.2584,2.3237,2.3565,2.2637,2.1616,2.0849,2.021,1.9718,1.9384,1.9309,1.9408,1.9704,1.9802,1.9868,2.0161,2.0226,2.0161,1.9868,1.9253,1.8596,1.8178,1.793,1.7901,0.6512,0.6428,0.6428,0.6428,0.6361,0.6224,0.6134,0.6125,0.5974,0.5928,0.5874,0.5776,0.5908,0.6086,0.6171,0.6393,0.6792,0.684,0.6925,0.7139,0.7845,0.8201,0.8241,0.8835,0.9161,0.9161,0.9204,0.9295,0.9568,0.9879,1.0159,1.0467,1.1359,1.1957,1.2215,1.1863,1.1864,1.2218,1.2179,1.1969,1.1646,1.2051,1.2307,1.242,1.2359,1.2259,1.2048,1.2497,1.2895,1.331,1.3673,1.4019,1.4413,1.4197,1.3959,0.0,1.409,0.0,0.0,0.0,0.0,0.0,0.0,0.0,0.0,1.649,1.6874,1.745,1.8067,1.8473,1.8684,1.8875,1.9354,2.0215,1.9972,2.0009,2.075,2.1224,2.1346,2.0918,2.171,2.2105,2.1744,2.2544,2.3177,2.3305,2.3595,2.3665,2.3761,2.3877,2.3906,2.3479,2.3815,2.4026,2.3851,2.3456,2.2949,2.241,2.1763,2.1269,2.055,2.0398,2.043,2.0549,2.0549,2.0549,2.0592,2.0656,2.0592,2.0431,2.0203,1.9771,1.91,1.8787,1.8646,0.6509,0.6428,0.6428,0.6428,0.639,0.6349,0.6329,0.6326,0.6126,0.5941,0.5765,0.5919,0.6038,0.6127,0.6485,0.6707,0.6792,0.6966,0.7051,0.7139,0.7848,0.8201,0.8229,0.8624,0.8894,0.9032,0.9032,0.9156,0.9367,1.0336,1.0895,1.1111,1.2106,1.2715,1.2907,0.0,0.0,0.0,1.3126,1.3001,1.3349,1.347,1.3746,1.4091,1.3882,0.0,1.3949,1.4261,1.4479,1.4559,1.4533,0.0,0.0,0.0,0.0,0.0,0.0,0.0,0.0,0.0,0.0,0.0,1.7403,1.7302,1.6965,1.7777,1.8562,1.9165,1.9243,1.9589,2.0334,2.0218,2.0288,2.0712,2.0466,2.0303,2.0489,2.0752,2.0806,2.0772,2.155,2.2102,2.2122,2.287,2.3544,2.369,2.4077,2.4357,2.4504,2.4648,2.4536,2.4089,2.4238,2.4075,2.3252,2.3107,2.2994,2.2452,2.1946,2.1576,2.1388,2.1144,2.1155,2.1502,2.1388,2.1345,2.1745,2.1874,2.1667,2.1588,2.0833,2.0142,1.9695,1.9573,1.9532,0.6809,0.0,0.6741,0.6741,0.0,0.6741,0.6741,0.6697,0.639,0.6171,0.6038,0.6213,0.6302,0.6482,0.6707,0.684,0.6922,0.7054,0.7095,0.7139,0.7889,0.8201,0.8233,0.895,0.9354,0.9483,0.9815,1.0058,1.0321,1.108,1.1596,1.1849,1.2455,1.2786,1.2922,1.3186,1.3447,1.3716,1.3623,1.366,1.3743,1.3928,1.4158,1.4509,0.0,0.0,0.0,0.0,0.0,0.0,0.0,0.0,0.0,0.0,0.0,1.4987,1.5409,1.5942,1.6621,1.6878,1.7473,1.8612,1.9307,1.9528,1.9033,1.9725,2.0289,2.0401,2.0663,2.0874,2.0995,2.1019,2.1107,2.1305,2.093,2.0671,2.0764,2.106,2.1187,2.1058,2.1853,2.2524,2.2577,2.3349,2.4008,2.434,2.4802,2.509,2.525,2.5378,2.5361,2.5098,2.4637,2.44,2.4154,2.3785,2.3604,2.3393,2.2954,2.261,2.2519,2.2249,2.2168,2.2341,2.2037,2.1813,2.1995,2.1854,2.1571,2.1427,2.0938,2.0391,2.0086,1.9792,1.9508,0.7054,0.7095,0.7095,0.7095,0.7095,0.7095,0.7095,0.7095,0.0,0.0,0.0,0.6428,0.6609,0.6792,0.6836,0.6925,0.7095,0.7095,0.7082,0.7105,0.7844,0.8222,0.8316,0.933,0.9864,0.9993,1.0653,1.1089,1.1266,1.1804,1.216,1.2406,1.2619,1.2705,1.2705,1.3009,1.3249,1.3505,1.3867,1.3963,1.3773,1.4038,1.4306,1.4589,1.4543,1.4559,1.4603,1.4695,1.4769,1.4853,1.4894,1.5054,1.5297,1.522,1.5274,1.5622,1.5811,1.648,1.7665,1.8053,1.8711,1.986,2.0932,2.1371,2.0984,2.1497,2.1648,2.1207,2.1711,2.1834,2.1386,2.1608,2.1811,2.1875,2.1519,2.1311,2.1319,2.1772,2.1895,2.1612,2.2349,2.3021,2.3154,2.3729,2.4338,2.4746,2.5078,2.561,2.5775,2.5839,2.587,2.5722,2.5007,2.4553,2.4825,2.4546,2.4307,2.4038,2.3692,2.3478,2.3271,2.3039,2.2862,2.2613,2.223,2.1935,2.1861,2.1473,2.1043,2.1031,2.0742,2.0425,2.0246,1.972,1.9262,0.6925,0.7095,0.7095,0.7095,0.7095,0.7095,0.7095,0.7095,0.6836,0.6612,0.6428,0.6612,0.6748,0.6792,0.6966,0.7095,0.7095,0.7095,0.7031,0.6959,0.7679,0.8231,0.8652,0.9204,0.9751,1.0248,1.075,1.1011,1.1142,1.193,1.2369,1.2406,1.2577,1.2705,1.2747,1.3137,1.3374,1.3412,1.3684,1.3917,1.4059,1.4293,1.4569,1.4832,1.4818,1.4863,1.5109,1.5276,1.5354,1.5397,1.542,1.57,1.6073,1.5622,1.5591,1.6112,1.6388,1.6598,1.6848,1.7925,1.9234,2.0686,2.139,2.1609,2.13,2.1889,2.2093,2.1609,2.1587,2.1709,2.2117,2.2157,2.2189,2.2298,2.2547,2.253,2.2091,2.2424,2.2679,2.2591,2.3047,2.3349,2.3435,2.3825,2.4161,2.4226,2.4454,2.4696,2.5519,2.5719,2.5594,2.539,2.4884,2.4407,2.427,2.4068,2.3878,2.3423,2.3358,2.3163,2.2758,2.2403,2.2194,2.2064,2.1791,2.1562,2.1522,2.1359,2.1129,2.1051,2.0557,2.0091,2.0024,1.9479,1.9108,0.6653,0.6697,0.6741,0.6697,0.6697,0.6741,0.67,0.6642,0.658,0.6612,0.6679,0.6813,0.681,0.6744,0.6903,0.6937,0.6862,0.699,0.695,0.6932,0.7268,0.7781,0.8399,0.8764,0.9266,0.9922,1.0503,1.0921,1.1208,1.1876,1.2326,1.2534,1.2668,1.2796,1.2924,1.3222,1.344,1.3568,1.3825,1.4055,1.4262,1.4482,1.4809,1.5147,1.5234,1.5424,1.5678,1.5588,1.5606,1.5703,1.5737,1.5787,1.5965,1.593,1.61,1.6583,1.6818,1.747,1.8644,2.0279,2.1459,2.2094,2.2377,2.2247,2.1688,2.2162,2.2342,2.1996,2.2157,2.2327,2.2282,2.2661,2.2739,2.227,2.2593,2.2645,2.2289,2.2592,2.2947,2.3115,2.35,2.3789,2.376,2.3966,2.4125,2.4125,2.4125,2.4422,2.5236,2.5318,2.5348,2.5462,2.5099,2.4615,2.4125,2.4008,2.3907,2.3704,2.3404,2.3117,2.2831,2.2402,2.2032,2.1979,2.1624,2.1366,2.1341,2.0953,2.0695,2.0511,2.0106,1.9707,1.9551,1.9262,1.9039,0.6387,0.6428,0.6428,0.6428,0.6428,0.6428,0.6373,0.6297,0.6358,0.6489,0.6678,0.6741,0.675,0.6729,0.681,0.6796,0.6827,0.6879,0.6916,0.6886,0.6886,0.7382,0.8166,0.8408,0.8864,0.9642,1.0372,1.0875,1.13,1.1834,1.2289,1.2662,1.2705,1.2833,1.3094,1.3243,1.3419,1.3682,1.3889,1.4099,1.4391,1.4657,1.4992,1.5394,1.565,1.5873,1.6098,1.5865,1.5826,1.5968,1.5926,1.5946,1.5968,1.6293,1.6748,1.7252,1.7423,1.8416,2.0436,2.1955,2.2825,2.283,2.282,2.2503,2.1894,2.2076,2.2268,2.2176,2.2503,2.2653,2.2402,2.2911,2.3084,2.2344,2.2666,2.2883,2.2582,2.2874,2.3296,2.359,2.3929,2.4128,2.4112,2.4125,2.4125,2.4125,2.4125,2.4347,2.4861,2.5022,2.5232,2.538,2.5249,2.4766,2.423,2.3968,2.3825,2.3759,2.3171,2.2701,2.2451,2.207,2.1821,2.1678,2.1432,2.1186,2.1108,2.0733,2.0297,2.0156,1.9794,1.9431,1.9245,1.9115,1.8919,0.6213,0.6387,0.6384,0.6428,0.6384,0.6384,0.6375,0.6348,0.6306,0.6224,0.6128,0.6269,0.6514,0.6775,0.6664,0.6757,0.7024,0.7068,0.7004,0.6893,0.6886,0.7415,0.8286,0.8312,0.8862,0.9858,1.0592,1.102,1.1284,1.1979,1.2491,1.2662,1.2705,1.2833,1.3069,1.3067,1.3268,1.3675,1.3649,1.389,1.4378,1.4831,1.52,1.5394,1.5824,1.6087,1.6128,1.6132,1.6166,1.619,1.6213,1.6425,1.6739,1.7009,1.7523,1.8439,1.8442,1.9121,2.0667,2.1138,2.1621,2.1932,2.2056,2.1848,2.1351,2.1432,2.1571,2.1741,2.191,2.223,2.2606,2.2898,2.2955,2.2654,2.3153,2.3648,2.3534,2.386,2.4169,2.4463,2.4347,2.4261,2.4141,2.4125,2.4125,2.4125,2.4125,2.4282,2.4769,2.499,2.5034,2.5061,2.4992,2.4713,2.4191,2.3587,2.3276,2.274,2.21,2.1721,2.1394,2.1145,2.0845,2.1081,2.091,2.0832,2.0781,2.0575,2.0423,2.0195,1.9849,1.9486,1.9146,1.9025,1.8919,0.5908,0.5994,0.5994,0.5994,0.5994,0.5994,0.5951,0.588,0.5911,0.5852,0.5704,0.5789,0.5968,0.6215,0.6315,0.6441,0.6632,0.6754,0.6854,0.6919,0.7176,0.7857,0.8769,0.8845,0.938,1.0252,1.0496,1.075,1.1147,1.1934,1.2469,1.2687,1.2705,1.2875,1.3252,1.3077,1.3207,1.3635,1.3568,1.3878,1.4495,1.5016,1.545,1.5824,1.6245,1.6451,1.6437,1.6325,1.6281,1.6379,1.6672,1.6949,1.7243,1.7685,1.8225,1.8812,1.968,2.0605,2.1636,2.2075,2.2297,2.2364,2.2088,2.1709,2.1247,2.1253,2.1348,2.1506,2.1757,2.2032,2.2372,2.2755,2.2859,2.2603,2.2959,2.3396,2.3619,2.3738,2.4039,2.4501,2.4522,2.439,2.4171,2.4125,2.4125,2.4125,2.4125,2.4243,2.4482,2.4524,2.4524,2.4495,2.4465,2.4387,2.4086,2.3574,2.3145,2.2779,2.21,2.1381,2.1185,2.0844,2.0725,2.0699,2.0699,2.0699,2.07,2.0649,2.0549,2.0322,1.9926,1.9486,1.9093,1.9013,1.8919,0.5688,0.5688,0.5688,0.5688,0.5688,0.5688,0.564,0.5564,0.5618,0.5588,0.551,0.5505,0.558,0.5741,0.5984,0.6199,0.6336,0.6546,0.681,0.7102,0.7547,0.831,0.9232,0.9371,0.9837,1.0474,1.0471,1.066,1.1152,1.1987,1.2524,1.2681,1.2705,1.2918,1.3311,1.3054,1.3113,1.3519,1.3465,1.368,1.4354,1.5027,1.5644,1.6147,1.6439,1.6587,1.6612,1.6317,1.6201,1.637,1.697,1.7379,1.7558,1.8352,1.9034,1.9516,2.056,2.1505,2.2077,2.2496,2.2605,2.2329,2.2019,2.1709,2.1328,2.1201,2.1253,2.14,2.162,2.1862,2.214,2.2471,2.2507,2.227,2.259,2.2965,2.3505,2.3607,2.3868,2.4463,2.4576,2.4447,2.4171,2.4125,2.4125,2.4125,2.4125,2.4125,2.4112,2.4154,2.4184,2.4099,2.4008,2.3906,2.3838,2.3328,2.3027,2.257,2.1825,2.1237,2.1276,2.0896,2.0712,2.0699,2.0699,2.0699,2.0699,2.0674,2.0549,2.0296,1.9926,1.9486,1.9066,1.9013,1.896,0.5688,0.5688,0.5688,0.5688,0.5688,0.5688,0.5686,0.5661,0.5572,0.5516,0.5516,0.5513,0.5502,0.5569,0.5806,0.6083,0.6398,0.6675,0.7031,0.7508,0.7931,0.8651,0.9578,0.9788,1.0129,1.0589,1.0571,1.0906,1.1633,1.2313,1.2693,1.2693,1.2681,1.2912,1.3254,1.2798,1.2879,1.3446,1.3248,1.3292,1.3902,1.4812,1.5592,1.6236,1.6284,1.6333,1.6412,1.5981,1.5844,1.6008,1.7035,1.7604,1.7739,1.8918,2.0065,2.0816,2.104,2.1286,2.1599,2.1766,2.1695,2.1424,2.1686,2.1697,2.127,2.1201,2.1253,2.14,2.1431,2.1557,2.1862,2.2008,2.2083,2.2178,2.2221,2.2672,2.3501,2.359,2.3901,2.4405,2.4563,2.4419,2.4141,2.4125,2.4125,2.4125,2.4125,2.4125,2.4112,2.4203,2.4189,2.4013,2.3767,2.3458,2.3212,2.2766,2.2217,2.1851,2.1446,2.0792,2.0739,2.0687,2.0699,2.0699,2.0699,2.0699,2.0699,2.0599,2.0385,2.0156,1.9875,1.9448,1.9093,1.9013,1.8987,0.5688,0.5688,0.5688,0.5688,0.5688,0.5688,0.5688,0.5686,0.5645,0.5621,0.5623,0.5623,0.5623,0.5623,0.5709,0.5992,0.6381,0.652,0.7051,0.7918,0.8426,0.9133,0.9986,1.0247,1.0527,1.0796,1.0667,1.0955,1.1679,1.2081,1.2326,1.2451,1.2457,1.2666,1.2953,1.2538,1.2595,1.3227,1.3078,1.3215,1.3732,1.4368,1.501,1.5732,1.6047,1.6173,1.6199,1.5863,1.5794,1.5978,1.7234,1.8063,1.8482,2.0021,2.0938,2.0993,2.1247,2.1526,2.1698,2.1487,2.1396,2.149,2.1341,2.1259,2.1204,2.1201,2.1221,2.1253,2.1273,2.138,2.1569,2.1769,2.1925,2.1999,2.2123,2.2525,2.3228,2.3467,2.3734,2.4218,2.4347,2.4229,2.4171,2.4125,2.4125,2.4125,2.4125,2.4125,2.4112,2.4157,2.4053,2.3616,2.3382,2.3018,2.2166,2.1995,2.1694,2.1472,2.1119,2.0844,2.0712,2.0699,2.0699,2.0699,2.0699,2.0699,2.0699,2.0674,2.041,2.0029,1.9734,1.9539,1.9105,1.9078,1.9052,0.5688,0.5688,0.5688,0.5688,0.5688,0.5688,0.5688,0.5688,0.5688,0.5688,0.5688,0.5688,0.5688,0.5688,0.5688,0.5908,0.6302,0.6387,0.6959,0.8009,0.8677,0.9413,1.0139,1.0632,1.0903,1.1063,1.0992,1.1214,1.1696,1.198,1.223,1.2445,1.2439,1.2648,1.294,1.2525,1.255,1.3034,1.2989,1.3093,1.347,1.3991,1.4456,1.4896,1.5466,1.5808,1.5818,1.5655,1.5649,1.5992,1.7126,1.8171,1.8997,2.035,2.1047,2.0856,2.0934,2.1233,2.1539,2.1152,2.1019,2.1326,2.1086,2.0967,2.1106,2.1158,2.1201,2.1201,2.1201,2.1253,2.1336,2.1557,2.1769,2.1843,2.198,2.2402,2.3168,2.3275,2.3603,2.4118,2.4173,2.4112,2.4125,2.4125,2.4125,2.4125,2.4125,2.4125,2.4125,2.4099,2.3874,2.33,2.3054,2.2558,2.1851,2.1485,2.1315,2.108,2.1053,2.0792,2.0699,2.0699,2.0699,2.0699,2.0699,2.0699,2.0699,2.0699,2.041,1.9965,1.9811,1.972,1.9382,1.9105,1.9105,0.5688,0.5688,0.5688,0.5688,0.5688,0.5688,0.5688,0.5688,0.5688,0.5688,0.5688,0.5688,0.5688,0.5688,0.5688,0.5863,0.6124,0.639,0.6918,0.7702,0.8694,0.9483,1.0072,1.0864,1.1236,1.1268,1.1542,1.1634,1.1754,1.2137,1.2407,1.2626,1.2626,1.282,1.336,1.2775,1.2685,1.304,1.2996,1.2877,1.3008,1.3777,1.4104,1.3998,1.4565,1.5085,1.5446,1.5302,1.5298,1.5616,1.6651,1.7861,1.9023,1.9868,2.0268,2.0481,2.0213,2.0379,2.093,2.0665,2.052,2.0736,2.083,2.0871,2.0935,2.1063,2.1169,2.1169,2.1201,2.1233,2.1221,2.1336,2.1494,2.1667,2.173,2.2142,2.2811,2.313,2.3416,2.4089,2.4144,2.4112,2.4125,2.4125,2.4125,2.4125,2.4125,2.4125,2.407,2.4034,2.3785,2.325,2.2688,2.206,2.1538,2.1067,2.0883,2.0725,2.0777,2.0699,2.0699,2.0699,2.0699,2.0699,2.0699,2.0699,2.0699,2.0674,2.0473,2.0118,2.0029,1.9823,1.9499,1.9237,1.9223,0.5688,0.5688,0.5688,0.5688,0.5688,0.5688,0.5688,0.5688,0.5688,0.5688,0.5688,0.5688,0.5688,0.5688,0.5688,0.5863,0.6127,0.6612,0.7356,0.8145,0.8882,0.9719,1.0564,1.1094,1.1311,1.1305,1.1392,1.1617,1.1903,1.2077,1.2207,1.2392,1.2445,1.2689,1.3064,1.2578,1.2518,1.308,1.2838,1.2753,1.29,1.3322,1.3623,1.382,1.4041,1.4269,1.4546,1.4832,1.5007,1.5122,1.6239,1.7548,1.8853,2.0083,2.0408,2.0002,2.0388,2.0423,2.027,2.0238,2.0281,2.0443,2.0529,2.0625,2.0754,2.0903,2.0999,2.0999,2.1106,2.1201,2.1201,2.1221,2.1348,2.1474,2.1624,2.1886,2.25,2.2975,2.3526,2.4011,2.4141,2.4125,2.4125,2.4125,2.4125,2.4125,2.4125,2.4125,2.4044,2.3757,2.3289,2.2712,2.2165,2.1695,2.1184,2.0896,2.0792,2.0699,2.0699,2.0699,2.0699,2.0699,2.0699,2.0699,2.0699,2.0699,2.0699,2.0624,2.0448,2.022,2.0029,1.9772,1.9473,1.9368,1.9354,0.5688,0.5688,0.5688,0.5688,0.5688,0.5688,0.5688,0.5688,0.5688,0.5688,0.5688,0.5688,0.5688,0.5688,0.5688,0.5774,0.6038,0.6745,0.7489,0.8321,0.9152,0.9898,1.0651,1.1089,1.1311,1.1311,1.1311,1.1521,1.1995,1.1995,1.2165,1.2404,1.2457,1.2637,1.2962,1.2563,1.2563,1.2988,1.277,1.2673,1.29,1.3083,1.3346,1.3637,1.3754,1.3826,1.392,1.4361,1.4677,1.496,1.5931,1.7123,1.8319,1.9347,1.9847,1.9739,1.9939,2.0136,1.9943,1.9987,2.0107,2.027,2.0335,2.0443,2.0604,2.0711,2.0818,2.085,2.0967,2.1063,2.1094,2.1169,2.1253,2.1316,2.1423,2.1769,2.2254,2.2969,2.3569,2.3966,2.4125,2.4125,2.4125,2.4125,2.4125,2.4125,2.4125,2.4125,2.3995,2.3602,2.3041,2.2465,2.1956,2.1446,2.0869,2.0712,2.0712,2.0699,2.0699,2.0699,2.0699,2.0699,2.0699,2.0699,2.0699,2.0699,2.0699,2.0699,2.0587,2.0322,2.0029,1.9901,1.9694,1.9525,1.9473,0.5688,0.5688,0.5688,0.5688,0.5688,0.5688,0.5688,0.5688,0.5688,0.5688,0.5688,0.5688,0.5688,0.5688,0.5688,0.5733,0.5911,0.6789,0.7445,0.8141,0.9148,1.0033,1.0342,1.0997,1.1267,1.1311,1.1311,1.1521,1.1957,1.2,1.2246,1.2632,1.2662,1.2845,1.295,1.2685,1.26,1.2857,1.2698,1.2643,1.2863,1.3046,1.3273,1.3455,1.3637,1.3674,1.3637,1.3956,1.431,1.4677,1.5753,1.6753,1.7392,1.8008,1.8835,1.9274,1.9318,1.9581,1.9813,1.99,1.9976,2.0107,2.0281,2.0367,2.041,2.054,2.0669,2.0701,2.0818,2.0903,2.0935,2.1031,2.1126,2.119,2.1233,2.1639,2.2451,2.3035,2.3429,2.3846,2.406,2.4047,2.3981,2.3981,2.4021,2.4125,2.4125,2.4125,2.3968,2.3563,2.3001,2.2413,2.1812,2.1276,2.0725,2.0699,2.0699,2.0699,2.0699,2.0699,2.0699,2.0699,2.0699,2.0699,2.0699,2.0699,2.0699,2.0699,2.0574,2.0296,2.0131,2.0042,1.9888,1.9694,1.9617,0.5688,0.5688,0.5688,0.5688,0.5688,0.5688,0.5688,0.5688,0.5688,0.5688,0.5688,0.5688,0.5688,0.5688,0.5688,0.5688,0.5997,0.7003,0.7661,0.8053,0.9458,1.0472,1.0868,1.1132,1.1311,1.1311,1.1311,1.1521,1.1957,1.2,1.2246,1.2705,1.2699,1.2777,1.2937,1.2668,1.2608,1.2737,1.2556,1.2496,1.2686,1.29,1.3083,1.3273,1.3455,1.3564,1.3528,1.3884,1.4209,1.4525,1.5921,1.6793,1.7113,1.8226,1.8942,1.9108,1.9374,1.9539,1.9671,1.9802,1.9944,2.0085,2.0151,2.0172,2.0183,2.0346,2.0475,2.0508,2.0669,2.0786,2.0882,2.0882,2.0882,2.0967,2.1094,2.1557,2.2359,2.2713,2.2992,2.335,2.3483,2.355,2.3496,2.3548,2.3652,2.3968,2.4099,2.406,2.3851,2.325,2.2583,2.2205,2.1655,2.1106,2.0738,2.0712,2.0699,2.0699,2.0699,2.0699,2.0699,2.0699,2.0699,2.0699,2.0699,2.0699,2.0699,2.0699,2.0473,2.0271,2.0182,2.0118,1.9939,1.9759,1.9734,0.5688,0.5688,0.5688,0.5688,0.5688,0.5688,0.5688,0.5688,0.5688,0.5688,0.5688,0.5688,0.5688,0.5688,0.5688,0.5688,0.5863,0.6871,0.7482,0.8097,0.9632,1.0646,1.1089,1.1224,1.1311,1.1311,1.1311,1.1521,1.1828,1.1957,1.2209,1.2534,1.2662,1.2692,1.2709,1.2751,1.2676,1.2674,1.257,1.2597,1.2784,1.2845,1.301,1.32,1.3382,1.3492,1.3528,1.3819,1.4137,1.4713,1.5613,1.635,1.6837,1.7842,1.8563,1.8741,1.9142,1.9407,1.9473,1.9583,1.9714,1.9878,1.9944,2.0009,2.0042,2.0183,2.0281,2.0302,2.0443,2.0604,2.0669,2.0701,2.0733,2.0818,2.0978,2.1494,2.247,2.2634,2.292,2.3351,2.3589,2.343,2.3289,2.3391,2.3561,2.3731,2.3952,2.3848,2.3668,2.2884,2.2244,2.1891,2.1472,2.0961,2.0725,2.0712,2.0699,2.0699,2.0699,2.0699,2.0699,2.0699,2.0699,2.0699,2.0699,2.0699,2.0699,2.0649,2.0524,2.0372,2.0258,2.0118,1.9939,1.9798,1.9798,0.5688,0.5688,0.5688,0.5688,0.5688,0.5688,0.5688,0.5644,0.5688,0.5688,0.5688,0.5688,0.5688,0.5688,0.5688,0.5688,0.5733,0.6564,0.7309,0.8273,0.9632,1.0689,1.0959,1.1224,1.1267,1.1311,1.1311,1.144,1.1699,1.1914,1.2123,1.2412,1.2619,1.256,1.2527,1.2754,1.2832,1.2711,1.2732,1.2837,1.2968,1.3009,1.3093,1.3226,1.3397,1.3492,1.3528,1.3754,1.4109,1.48,1.5106,1.5833,1.6594,1.7192,1.7818,1.8428,1.8942,1.9208,1.9274,1.9351,1.9417,1.9605,1.9802,1.99,1.9933,2.0042,2.0151,2.0151,2.0281,2.0378,2.041,2.054,2.068,2.0701,2.0786,2.1388,2.2194,2.2524,2.2892,2.379,2.3926,2.3642,2.3498,2.3576,2.3825,2.3511,2.3691,2.3796,2.3456,2.2818,2.2178,2.1655,2.1237,2.0777,2.0699,2.0699,2.0699,2.0699,2.0699,2.0699,2.0699,2.0699,2.0699,2.0699,2.0699,2.0699,2.0699,2.0624,2.0524,2.0372,2.0233,2.0042,1.9888,1.9824,1.9798,0.5688,0.5688,0.5688,0.5599,0.5508,0.5644,0.5599,0.5463,0.5644,0.5688,0.5688,0.5688,0.5688,0.5688,0.5688,0.5688,0.5777,0.6476,0.7438,0.8715,0.955,1.0337,1.0738,1.1132,1.1267,1.1311,1.1311,1.144,1.1699,1.1871,1.2118,1.2363,1.2565,1.2614,1.2556,1.2661,1.2763,1.2809,1.2857,1.2995,1.3163,1.3196,1.325,1.329,1.3432,1.3499,1.3528,1.3681,1.4044,1.4569,1.5204,1.5903,1.6802,1.7647,1.8259,1.8697,1.8965,1.9175,1.9252,1.9285,1.9374,1.9572,1.9736,1.99,1.99,1.9998,2.0085,2.0118,2.014,2.0172,2.0205,2.0508,2.0572,2.054,2.0637,2.1031,2.1662,2.194,2.2421,2.2952,2.3048,2.2741,2.2663,2.3184,2.3367,2.3302,2.3443,2.3691,2.3248,2.2648,2.2034,2.1407,2.1093,2.0712,2.0699,2.0699,2.0699,2.0699,2.0699,2.0699,2.0699,2.0699,2.0699,2.0699,2.0699,2.0699,2.0699,2.0674,2.0599,2.0385,2.0169,2.0042,1.9914,1.985,1.9798,0.5599,0.5688,0.5599,0.5508,0.5416,0.5508,0.5508,0.5463,0.5599,0.5688,0.5688,0.5688,0.5688,0.5688,0.5688,0.5688,0.5863,0.6476,0.7349,0.8408,0.9288,1.012,1.0689,1.1084,1.1311,1.1311,1.1311,1.1397,1.157,1.1828,1.208,1.224,1.254,1.256,1.2551,1.2677,1.2858,1.2947,1.3045,1.3212,1.3367,1.3388,1.3428,1.344,1.349,1.3492,1.3492,1.3564,1.3855,1.4281,1.4856,1.5657,1.6698,1.7604,1.8293,1.863,1.8998,1.9108,1.9218,1.9218,1.9241,1.9374,1.9605,1.9648,1.9747,1.9878,2.0042,2.0042,2.0042,2.0118,2.0118,2.0237,2.0346,2.0346,2.0432,2.0786,2.1215,2.1646,2.2122,2.2712,2.3034,2.2826,2.283,2.3091,2.3263,2.3354,2.3234,2.3391,2.2844,2.223,2.1708,2.1184,2.0909,2.0712,2.0699,2.0699,2.0699,2.0699,2.0699,2.0699,2.0699,2.0699,2.0699,2.0699,2.0699,2.0699,2.0699,2.0674,2.0599,2.0359,2.0144,2.0042,1.9927,1.985,1.9798,0.5508,0.5644,0.5463,0.5371,0.5371,0.5371,0.5371,0.5371,0.5599,0.5688,0.5688,0.5688,0.5688,0.5688,0.5688,0.5688,0.5863,0.6343,0.7088,0.7965,0.8982,0.9898,1.0598,1.1084,1.1311,1.1311,1.1311,1.1311,1.144,1.1742,1.1957,1.208,1.2412,1.2566,1.2523,1.2777,1.3012,1.3109,1.3213,1.342,1.3626,1.3614,1.3604,1.3627,1.3661,1.3629,1.3666,1.3726,1.3874,1.4188,1.4546,1.5292,1.629,1.7201,1.81,1.8337,1.8875,1.9098,1.9142,1.9098,1.9131,1.9098,1.9374,1.9483,1.9483,1.9714,1.9911,1.9976,2.002,2.0118,2.0118,2.0151,2.0151,2.0151,2.0281,2.0496,2.086,2.1502,2.1934,2.2514,2.2709,2.2551,2.2864,2.3182,2.3287,2.3339,2.3234,2.2973,2.2439,2.1904,2.142,2.104,2.0804,2.0712,2.0699,2.0699,2.0699,2.0699,2.0699,2.0699,2.0699,2.0699,2.0699,2.0699,2.0699,2.0699,2.0699,2.0699,2.0536,2.0309,2.0144,2.0067,1.9965,1.9824,1.9773,0.5416,0.5463,0.5416,0.528,0.5099,0.5282,0.528,0.5146,0.5552,0.5688,0.5688,0.5688,0.5688,0.5688,0.5688,0.5688,0.5822,0.6127,0.6827,0.7746,0.8715,0.9545,1.0598,1.1127,1.1267,1.1311,1.1311,1.1311,1.1354,1.157,1.1871,1.2043,1.2332,1.248,1.2596,1.2729,1.2984,1.3199,1.3319,1.3584,1.3818,1.3838,1.3761,1.38,1.3853,1.394,1.4007,1.4197,1.442,1.4682,1.5659,1.6257,1.6685,1.7101,1.7758,1.8506,1.8959,1.9147,1.9108,1.9098,1.9098,1.9131,1.9274,1.9351,1.9374,1.9539,1.9769,1.99,2.0009,2.0085,2.0118,2.0118,2.0118,2.0118,2.0151,2.0281,2.0529,2.0912,2.1542,2.2219,2.2255,2.2324,2.2642,2.2992,2.3181,2.3145,2.3009,2.2724,2.2229,2.176,2.1302,2.0975,2.0725,2.0699,2.0699,2.0699,2.0699,2.0699,2.0699,2.0699,2.0699,2.0699,2.0699,2.0699,2.0699,2.0699,2.0699,2.0699,2.0511,2.0283,2.0182,2.0105,1.9965,1.9798,1.9747,0.5191,0.5191,0.5191,0.5057,0.4879,0.5099,0.5146,0.5099,0.5508,0.5688,0.5688,0.5688,0.5688,0.5688,0.5688,0.5688,0.5733,0.5822,0.6612,0.7705,0.8448,0.9414,1.0598,1.1084,1.1262,1.1311,1.1311,1.1311,1.1311,1.157,1.1785,1.2,1.2246,1.2491,1.2662,1.2699,1.2918,1.3179,1.3349,1.3568,1.3893,1.3884,1.3885,1.3929,1.3987,1.4098,1.4137,1.4379,1.4535,1.4684,1.5219,1.5989,1.6639,1.7216,1.7708,1.8612,1.9113,1.9225,1.9127,1.9098,1.9098,1.9098,1.9208,1.9241,1.9274,1.9429,1.9671,1.9835,1.9933,2.0009,2.0085,2.0118,2.0118,2.0118,2.0118,2.0151,2.027,2.0496,2.1071,2.1791,2.1958,2.2103,2.2297,2.2638,2.2959,2.2935,2.2808,2.2434,2.1953,2.1511,2.1066,2.0909,2.0699,2.0699,2.0699,2.0699,2.0699,2.0699,2.0699,2.0699,2.0699,2.0699,2.0699,2.0699,2.0699,2.0699,2.0699,2.0699,2.046,2.0283,2.0207,2.0118,1.9939,1.9798,1.9747,0.4921,0.4921,0.4966,0.4835,0.4748,0.4921,0.501,0.5099,0.5508,0.5688,0.5688,0.5688,0.5688,0.5688,0.5688,0.5688,0.5688,0.5688,0.6523,0.7661,0.8277,0.924,1.0467,1.1041,1.1262,1.1311,1.1311,1.1311,1.1354,1.1483,1.1742,1.2,1.224,1.2448,1.2662,1.2705,1.2875,1.3094,1.3313,1.3525,1.372,1.3861,1.394,1.3974,1.4099,1.4193,1.4283,1.4536,1.4696,1.4887,1.5238,1.5833,1.6784,1.747,1.8062,1.8695,1.9239,1.9329,1.9276,1.9108,1.9098,1.9098,1.9208,1.9208,1.9208,1.933,1.9605,1.9736,1.9868,1.9933,2.0042,2.0074,2.0118,2.0118,2.0118,2.0118,2.0151,2.0313,2.0561,2.1135,2.1565,2.1824,2.1942,2.1894,2.2124,2.2233,2.2082,2.1929,2.1507,2.1159,2.0805,2.0766,2.0699,2.0699,2.0699,2.0699,2.0699,2.0699,2.0699,2.0699,2.0699,2.0699,2.0699,2.0699,2.0699,2.0699,2.0699,2.0674,2.0485,2.0359,2.0258,2.0093,1.9914,1.9798,1.9773,0.475,0.475,0.475,0.4705,0.4703,0.4879,0.501,0.5055,0.5508,0.5688,0.5688,0.5688,0.5688,0.5688,0.5688,0.5688,0.5733,0.5863,0.6523,0.7702,0.8233,0.92,1.0559,1.0916,1.1181,1.1267,1.1311,1.1311,1.1311,1.1354,1.157,1.1914,1.2037,1.2246,1.2619,1.2705,1.2833,1.3094,1.3313,1.3616,1.3948,1.4028,1.405,1.4114,1.4233,1.4421,1.4558,1.4805,1.5005,1.5315,1.6337,1.6885,1.7262,1.8364,1.8712,1.8883,1.9103,1.9506,1.9356,1.9204,1.9098,1.9098,1.9131,1.9098,1.9131,1.9208,1.9374,1.9374,1.9671,1.9868,1.9944,2.0042,2.0085,2.0118,2.0118,2.0118,2.0118,2.0151,2.0399,2.059,2.1055,2.1318,2.15,2.1353,2.1239,2.1347,2.1403,2.1268,2.109,2.0784,2.0687,2.0699,2.0699,2.0699,2.0699,2.0699,2.0699,2.0699,2.0699,2.0699,2.0699,2.0699,2.0699,2.0699,2.0699,2.0699,2.0699,2.0649,2.0524,2.0385,2.0258,2.0067,1.9862,1.9837,1.9798,0.4478,0.4478,0.4659,0.4614,0.4523,0.4832,0.501,0.5099,0.5508,0.5688,0.5688,0.5688,0.5688,0.5688,0.5688,0.5688,0.5777,0.6083,0.6827,0.779,0.8496,0.9458,1.0467,1.0916,1.1094,1.1267,1.1311,1.1311,1.1311,1.1311,1.1483,1.1785,1.1957,1.216,1.2534,1.2662,1.2753,1.2924,1.3222,1.3568,1.3822,1.3997,1.4088,1.413,1.4321,1.4489,1.4699,1.4957,1.5173,1.5387,1.5968,1.6365,1.6868,1.7607,1.8014,1.9279,1.9019,1.9043,1.908,1.9078,1.9096,1.9098,1.9098,1.9098,1.9098,1.9131,1.9241,1.9308,1.955,1.9736,1.9868,2.0009,2.0085,2.0118,2.0118,2.0118,2.0118,2.0118,2.0226,2.0364,2.052,2.0869,2.116,2.1229,2.096,2.0616,2.0737,2.0787,2.0725,2.0591,2.0574,2.0699,2.0699,2.0699,2.0699,2.0699,2.0699,2.0699,2.0699,2.0699,2.0699,2.0699,2.0699,2.0699,2.0699,2.0699,2.0699,2.0649,2.0574,2.0385,2.0195,2.0042,1.9888,1.9837,1.9773,0.4297,0.4297,0.4525,0.4478,0.4342,0.4788,0.501,0.5055,0.5508,0.5688,0.5688,0.5688,0.5688,0.5688,0.5688,0.5688,0.573,0.6476,0.7173,0.7918,0.875,0.9715,1.0467,1.0916,1.1094,1.1311,1.1311,1.1311,1.1311,1.1311,1.144,1.1699,1.1914,1.216,1.2369,1.2577,1.2747,1.2881,1.3222,1.3483,1.3737,1.3955,1.4088,1.4166,1.4328,1.4482,1.4692,1.4957,1.5173,1.5338,1.5766,1.6445,1.7073,1.757,1.8055,1.8918,1.8814,1.8571,1.8706,1.8818,1.9008,1.9098,1.9098,1.9098,1.9098,1.9098,1.9131,1.9208,1.9417,1.9605,1.9769,1.9944,2.0042,2.0085,2.0118,2.0118,2.0118,2.0118,2.0248,2.0495,2.0608,2.0588,2.0876,2.1131,2.0815,2.01,2.0032,2.0226,2.027,2.0271,2.046,2.0586,2.0699,2.0699,2.0699,2.0699,2.0699,2.0699,2.0699,2.0699,2.0699,2.0699,2.0699,2.0699,2.0699,2.0699,2.0699,2.0649,2.0599,2.0385,2.0169,2.0042,1.9927,1.985,1.9798,0.4297,0.4297,0.4342,0.4344,0.4344,0.4788,0.501,0.5099,0.5508,0.5688,0.5688,0.5688,0.5688,0.5688,0.5688,0.5688,0.5733,0.6476,0.7173,0.7962,0.8794,0.9802,1.0511,1.0916,1.1094,1.1267,1.1311,1.1311,1.1311,1.1311,1.144,1.1705,1.1871,1.2118,1.2369,1.2577,1.279,1.2966,1.3222,1.344,1.3695,1.3906,1.4082,1.4124,1.4279,1.4482,1.4692,1.4915,1.5173,1.5382,1.6016,1.6661,1.7058,1.76,1.8104,1.8396,1.8366,1.8224,1.8355,1.8613,1.8908,1.9031,1.9098,1.9098,1.9098,1.9098,1.9098,1.9142,1.9285,1.945,1.9638,1.9802,1.9976,2.0085,2.0118,2.0118,2.0118,2.0118,2.0281,2.0561,2.0675,2.0647,2.0656,2.0951,2.0496,1.9783,1.9535,1.972,1.9908,1.9978,2.0271,2.0485,2.0649,2.0687,2.0699,2.0699,2.0699,2.0699,2.0699,2.0699,2.0699,2.0699,2.0699,2.0699,2.0699,2.0699,2.0699,2.0674,2.0574,2.0334,2.0144,2.0042,1.9927,1.9824,1.9798,0.4297,0.4297,0.4297,0.4389,0.4569,0.4877,0.5099,0.5282,0.5552,0.5688,0.5688,0.5688,0.5688,0.5688,0.5688,0.5688,0.5866,0.6959,0.7485,0.8185,0.9152,1.0115,1.0689,1.0916,1.1094,1.1267,1.1311,1.1311,1.1311,1.1311,1.1311,1.1521,1.1823,1.2,1.2246,1.2491,1.2747,1.2881,1.3094,1.3307,1.3525,1.3737,1.3955,1.413,1.4124,1.4321,1.4482,1.4741,1.4957,1.5289,1.5766,1.6292,1.6727,1.7166,1.7582,1.7934,1.784,1.7897,1.8241,1.852,1.8751,1.9031,1.9098,1.9098,1.9098,1.9098,1.9098,1.9142,1.9208,1.9341,1.9572,1.978,1.9976,2.0053,2.0118,2.0118,2.0118,2.0118,2.0216,2.0496,2.0637,2.0709,2.0709,2.0775,2.0135,1.9483,1.9308,1.9195,1.9434,1.9669,1.9991,2.0296,2.046,2.0649,2.0674,2.0699,2.0699,2.0699,2.0699,2.0699,2.0699,2.0699,2.0699,2.0699,2.0699,2.0699,2.0699,2.0699,2.0535,2.0231,2.0105,2.0093,1.9952,1.9824,1.9798,0.4297,0.4297,0.4389,0.4525,0.4703,0.4924,0.5146,0.5416,0.5599,0.5688,0.5688,0.5688,0.5688,0.5688,0.5688,0.5688,0.6086,0.7003,0.7617,0.8404,0.9327,1.0337,1.0689,1.0916,1.1094,1.1267,1.1311,1.1311,1.1311,1.1311,1.1311,1.144,1.1742,1.1957,1.2123,1.2412,1.2705,1.2747,1.2966,1.3179,1.3392,1.361,1.3822,1.4082,1.4159,1.4279,1.4482,1.4699,1.4957,1.5233,1.5621,1.5983,1.6301,1.6598,1.6982,1.7342,1.7577,1.764,1.8103,1.8532,1.8717,1.9042,1.9098,1.9098,1.9098,1.9098,1.9098,1.9098,1.9175,1.9318,1.9517,1.9671,1.9835,1.9944,2.0085,2.0118,2.0118,2.0118,2.0248,2.041,2.054,2.069,2.0557,2.0501,1.9961,1.9332,1.9034,1.8934,1.9024,1.9317,1.9643,1.9952,2.0271,2.0485,2.0674,2.0649,2.0661,2.0699,2.0699,2.0699,2.0699,2.0699,2.0699,2.0699,2.0699,2.0699,2.0674,2.0636,2.0394,2.0052,1.9952,1.9826,1.9991,1.9862,1.9824,0.4297,0.4344,0.4569,0.4659,0.4703,0.4924,0.5146,0.5419,0.5599,0.5688,0.5688,0.5688,0.5688,0.5688,0.5688,0.5688,0.6041,0.7136,0.7793,0.8229,0.9501,1.0332,1.0689,1.0916,1.1094,1.1224,1.1311,1.1311,1.1311,1.1311,1.1311,1.144,1.1742,1.2037,1.208,1.2454,1.2662,1.2747,1.2966,1.3137,1.3392,1.3561,1.3779,1.4082,1.4201,1.4279,1.4405,1.4741,1.4957,1.5095,1.606,1.6493,1.6596,1.7483,1.7764,1.7496,1.7513,1.7515,1.7628,1.8363,1.8866,1.9039,1.9075,1.9098,1.9098,1.9098,1.9098,1.9098,1.9131,1.9208,1.9341,1.9506,1.9704,1.99,2.0009,2.0118,2.0118,2.0118,2.0216,2.0302,2.0508,2.0646,2.0469,2.0193,1.9716,1.9231,1.8841,1.873,1.8795,1.8972,1.933,1.9552,1.9888,2.0195,2.0385,2.0561,2.0611,2.0674,2.0699,2.0699,2.0699,2.0699,2.0699,2.0699,2.0699,2.0699,2.0636,2.0586,2.0267,1.9962,1.9609,1.9535,1.975,1.9888,1.9837,0.4297,0.4297,0.4389,0.4525,0.475,0.5104,0.5371,0.5599,0.5688,0.5688,0.5688,0.5688,0.5688,0.5688,0.5688,0.5733,0.5952,0.7136,0.7793,0.8053,0.9501,1.0294,1.0689,1.0873,1.1094,1.1224,1.1311,1.1311,1.1311,1.1311,1.1311,1.1397,1.178,1.216,1.2412,1.2662,1.2705,1.2705,1.2839,1.2966,1.3355,1.3483,1.3695,1.4088,1.4159,1.4201,1.4243,1.4664,1.4866,1.495,1.5933,1.6306,1.6439,1.7243,1.7316,1.737,1.7513,1.7857,1.8342,1.9006,1.9137,1.9083,1.9093,1.916,1.9108,1.9098,1.9098,1.9098,1.9098,1.9175,1.9308,1.9473,1.9704,1.9868,2.0009,2.0085,2.0118,2.0118,2.0151,2.0205,2.0367,2.0475,2.0375,2.0222,1.9804,1.9365,1.9004,1.8799,1.8795,1.8817,1.8999,1.9131,1.9382,1.9759,2.0067,2.0271,2.0472,2.0561,2.0611,2.0699,2.0699,2.0699,2.0699,2.0699,2.0699,2.0699,2.0598,2.0471,2.0152,1.9835,1.9623,1.9548,1.9775,1.9862,1.9824,0.4297,0.4297,0.4389,0.4525,0.475,0.5015,0.5329,0.5555,0.5644,0.5688,0.5688,0.5688,0.5688,0.5688,0.5688,0.5688,0.5866,0.7136,0.7793,0.8053,0.9414,1.025,1.0646,1.0824,1.1046,1.1219,1.1311,1.1311,1.1311,1.1311,1.1354,1.1527,1.178,1.216,1.2454,1.2619,1.2705,1.2705,1.2747,1.2966,1.327,1.3483,1.3652,1.3955,1.413,1.413,1.4208,1.4412,1.4692,1.4859,1.5328,1.5894,1.6266,1.6665,1.7006,1.7504,1.7843,1.8154,1.8615,1.9146,1.9217,1.9198,1.9267,1.9313,1.9285,1.9212,1.9129,1.9098,1.9108,1.9142,1.9241,1.944,1.9638,1.9846,1.9976,2.0053,2.0118,2.0118,2.0118,2.0183,2.0237,2.0335,2.0367,2.0226,1.9997,1.9605,1.9215,1.9016,1.8783,1.8665,1.8703,1.8851,1.8999,1.9356,1.9695,1.9978,2.0182,2.0397,2.0561,2.0699,2.0699,2.0699,2.0699,2.0699,2.0699,2.0661,2.0534,2.0356,2.0129,1.999,1.9851,1.9812,1.9862,1.9837,1.9798,0.4297,0.4344,0.4569,0.4705,0.4705,0.475,0.5018,0.5419,0.5644,0.5688,0.5688,0.5688,0.5688,0.5688,0.5688,0.5688,0.5997,0.7177,0.7658,0.8233,0.9375,1.0077,1.0603,1.0733,1.0997,1.1176,1.1311,1.1311,1.1311,1.1311,1.144,1.1656,1.1823,1.2118,1.2369,1.2583,1.2662,1.2705,1.2705,1.2966,1.3307,1.3398,1.3652,1.3955,1.4088,1.4088,1.4208,1.4405,1.4615,1.4985,1.5636,1.6282,1.6819,1.7332,1.7726,1.8069,1.8295,1.8499,1.8695,1.9179,1.9394,1.9495,1.9671,1.9782,1.9658,1.9409,1.9264,1.9191,1.9191,1.9139,1.9142,1.9374,1.9615,1.978,1.9944,2.0009,2.0085,2.0118,2.0118,2.0151,2.0237,2.0302,2.0302,2.0183,2.0063,1.9841,1.9435,1.9048,1.8758,1.8365,1.8402,1.861,1.8759,1.8972,1.9291,1.9682,2.0118,2.0385,2.0561,2.0699,2.0699,2.0699,2.0699,2.0699,2.0699,2.0636,2.051,2.0359,2.0207,2.0054,1.9952,1.9888,1.9862,1.9837,1.9798,0.4433,0.4569,0.4478,0.4525,0.4703,0.4879,0.5191,0.5599,0.5688,0.5688,0.5688,0.5688,0.5688,0.5688,0.5688,0.5688,0.6216,0.6959,0.7617,0.8364,0.9244,1.0077,1.0554,1.0733,1.0949,1.1176,1.1311,1.1311,1.1311,1.1311,1.1311,1.1435,1.1823,1.2037,1.2246,1.2497,1.2619,1.2705,1.2705,1.3003,1.3264,1.3398,1.3701,1.3962,1.4088,1.4088,1.4166,1.4363,1.4524,1.4866,1.52,1.5781,1.6793,1.7027,1.7316,1.8461,1.8837,1.9088,1.9273,1.9688,1.9849,1.9715,1.9851,1.9893,1.9806,1.9627,1.9399,1.9285,1.9347,1.9378,1.9258,1.9341,1.955,1.9681,1.9878,2.0009,2.0085,2.0118,2.0118,2.0118,2.0216,2.0216,2.0216,2.0172,2.0063,1.9941,1.9671,1.9204,1.8807,1.8379,1.818,1.8367,1.8437,1.8614,1.9078,1.9486,1.9952,2.0359,2.0536,2.0674,2.0699,2.0699,2.0699,2.0699,2.0699,2.0624,2.0511,2.0385,2.0296,2.0118,1.9978,1.9926,1.9862,1.9837,1.9798,0.4389,0.4525,0.4344,0.4478,0.4748,0.5013,0.5327,0.5552,0.5644,0.5688,0.5688,0.5688,0.5688,0.5688,0.5688,0.5733,0.5819,0.6874,0.7573,0.8141,0.9161,0.999,1.0472,1.0733,1.0949,1.1176,1.1311,1.1311,1.1311,1.1311,1.1311,1.1348,1.178,1.1957,1.2123,1.2412,1.2662,1.2705,1.2747,1.3009,1.3222,1.3398,1.3701,1.4004,1.4088,1.4088,1.4124,1.4321,1.4482,1.4699,1.4957,1.5741,1.6894,1.7482,1.7965,1.8942,1.9091,1.9258,1.9425,1.9806,1.9841,1.9734,1.9752,1.9702,1.9725,1.9617,1.9417,1.9264,1.9513,1.9671,1.9448,1.9308,1.944,1.9615,1.9813,2.002,2.0085,2.0118,2.0118,2.0118,2.0118,2.0118,2.0118,2.0118,2.0053,1.9942,1.9662,1.9226,1.8823,1.8459,1.8217,1.8205,1.8182,1.8236,1.8747,1.9237,1.9642,2.0093,2.046,2.0599,2.0649,2.0699,2.0699,2.0699,2.0699,2.0624,2.0587,2.0511,2.0398,2.0246,2.008,2.0029,1.9939,1.9837,1.9837,0.4342,0.4344,0.4344,0.4523,0.4792,0.5193,0.5416,0.5419,0.5644,0.5688,0.5688,0.5688,0.5688,0.5688,0.5688,0.5688,0.5997,0.6745,0.7489,0.783,0.8942,0.9907,1.0516,1.0733,1.0997,1.1176,1.1311,1.1311,1.1311,1.1311,1.1311,1.1348,1.178,1.2043,1.2166,1.2497,1.2699,1.2705,1.2747,1.2924,1.327,1.344,1.361,1.3997,1.4088,1.4088,1.4124,1.4286,1.4482,1.4692,1.5068,1.5794,1.7155,1.8275,1.885,1.9216,1.9274,1.9283,1.942,1.9706,1.9522,1.9402,1.9401,1.9239,1.9174,1.9496,1.9407,1.9316,1.9482,1.9502,1.9341,1.9306,1.9417,1.9583,1.9813,1.9976,2.0085,2.0085,2.0118,2.0118,2.0118,2.0118,2.0118,2.0118,2.0118,1.9975,1.9607,1.919,1.889,1.8499,1.8258,1.8084,1.8045,1.8127,1.8533,1.8999,1.9291,1.9734,2.0258,2.0574,2.0674,2.0699,2.0699,2.0699,2.0699,2.0699,2.0649,2.0574,2.0524,2.0423,2.0296,2.0182,2.0054,1.9939,1.9837,0.4433,0.4614,0.4743,0.4877,0.4968,0.528,0.5463,0.5644,0.5688,0.5688,0.5688,0.5688,0.5688,0.5688,0.5688,0.5688,0.5908,0.6564,0.7312,0.8013,0.8942,0.9864,1.0598,1.0824,1.1051,1.1219,1.1311,1.1332,1.1311,1.1311,1.1435,1.1613,1.1914,1.2037,1.2289,1.2571,1.2699,1.2705,1.2747,1.2966,1.3313,1.344,1.3603,1.3955,1.4088,1.4088,1.413,1.4124,1.4279,1.4447,1.465,1.5718,1.731,1.8135,1.8785,1.9173,1.9253,1.9292,1.9371,1.9444,1.9282,1.8892,1.8719,1.855,1.864,1.9222,1.9462,1.9338,1.9303,1.9292,1.9287,1.9304,1.9384,1.9583,1.9747,1.9911,2.0042,2.0085,2.0118,2.0118,2.0118,2.0118,2.0118,2.0118,2.0118,1.9843,1.9446,1.9082,1.889,1.8572,1.8246,1.8084,1.7975,1.81,1.8464,1.8774,1.9081,1.963,2.022,2.0485,2.0674,2.0699,2.0699,2.0699,2.0699,2.0699,2.0699,2.0674,2.0624,2.0549,2.0486,2.0347,2.0207,2.008,1.9952,0.4389,0.4569,0.4877,0.501,0.5055,0.5371,0.5552,0.5552,0.5644,0.5688,0.5688,0.5688,0.5688,0.5688,0.5688,0.5688,0.5822,0.6432,0.7132,0.7925,0.8846,0.9767,1.0386,1.0921,1.1238,1.138,1.1445,1.1445,1.1348,1.1311,1.1435,1.1705,1.1914,1.2118,1.2406,1.2577,1.2705,1.2705,1.2705,1.296,1.3355,1.344,1.3652,1.3955,1.4088,1.4088,1.4088,1.413,1.4201,1.4608,1.5019,1.5684,1.6952,1.7804,1.8416,1.8825,1.9063,1.9292,1.9341,1.9309,1.9081,1.8638,1.8498,1.8493,1.807,1.8571,1.8923,1.8863,1.9339,1.9414,1.923,1.9208,1.9274,1.944,1.9539,1.9648,1.9878,2.0042,2.0085,2.0118,2.0118,2.0118,2.0118,2.0118,2.0085,1.9954,1.9494,1.9119,1.8872,1.8566,1.8264,1.8057,1.7947,1.7975,1.8247,1.856,1.8883,1.9488,2.0144,2.041,2.0586,2.0649,2.0699,2.0699,2.0699,2.0699,2.0699,2.0699,2.0699,2.0637,2.0587,2.0537,2.0372,2.0246,2.0105,0.4342,0.4433,0.483,0.501,0.5099,0.5508,0.5599,0.5508,0.5599,0.5688,0.5688,0.5688,0.5688,0.5688,0.5688,0.5688,0.5863,0.6299,0.6956,0.7702,0.858,0.9545,1.0294,1.0883,1.1233,1.1438,1.1514,1.1472,1.1402,1.1397,1.1446,1.1721,1.1969,1.2166,1.2412,1.2577,1.2705,1.2705,1.2747,1.296,1.3222,1.3398,1.3701,1.3913,1.4088,1.4088,1.4088,1.4124,1.4201,1.4573,1.5144,1.585,1.6468,1.7326,1.7934,1.8376,1.8776,1.9063,1.9244,1.9309,1.8837,1.8451,1.8554,1.833,1.7858,1.7896,1.8245,1.868,1.9154,1.9336,1.9153,1.9098,1.9208,1.9341,1.9407,1.9517,1.978,2.0009,2.0085,2.0118,2.0118,2.0118,2.0118,2.0118,1.9998,1.991,1.9653,1.9277,1.891,1.851,1.8155,1.7975,1.7865,1.7947,1.8111,1.8371,1.8724,1.9331,1.9914,2.0245,2.0511,2.0611,2.0699,2.0699,2.0699,2.0699,2.0699,2.0699,2.0699,2.0687,2.0662,2.0612,2.0562,2.0436,2.0296,0.4433,0.4659,0.4921,0.5146,0.5327,0.5599,0.5688,0.5644,0.5688,0.5688,0.5688,0.5688,0.5688,0.5688,0.5688,0.5733,0.5866,0.6213,0.6653,0.7312,0.8536,0.9414,1.0178,1.0958,1.1218,1.1391,1.145,1.1461,1.1418,1.1359,1.1619,1.214,1.1997,1.2209,1.2577,1.2705,1.2705,1.2705,1.2747,1.2918,1.3264,1.3483,1.3695,1.3913,1.4088,1.4088,1.4088,1.4088,1.413,1.4328,1.4734,1.5484,1.6147,1.6755,1.7367,1.8055,1.8456,1.8856,1.9058,1.9045,1.8605,1.821,1.8156,1.7853,1.7587,1.7598,1.794,1.8337,1.873,1.8944,1.8875,1.9008,1.9142,1.9341,1.9483,1.9714,1.9944,2.0053,2.0085,2.0118,2.0118,2.0118,2.0118,2.0053,1.99,1.9734,1.9406,1.9078,1.8809,1.8431,1.808,1.7993,1.7867,1.792,1.8068,1.8236,1.8602,1.9186,1.9759,2.0245,2.0561,2.0636,2.0699,2.0699,2.0699,2.0699,2.0699,2.0699,2.0699,2.0699,2.0699,2.0674,2.0637,2.0562,2.0461]}]]